<?xml version="1.0" encoding="UTF-8" standalone="no" ?>
<gpx xmlns="http://www.topografix.com/GPX/1/1" xmlns:xsi="http://www.w3.org/2001/XMLSchema-instance" xsi:schemaLocation="http://www.topografix.com/GPX/1/1 http://www.topografix.com/GPX/1/1/gpx.xsd" version="1.1" creator="VisuGPX - https://www.visugpx.com">
  <metadata>
    <name>Crespières, Sortie Père et Mère Noël, Equi\'Tey</name>
    <desc><![CDATA[Super journée, avec nos chevaux en ligne dans les douves le midi !
distribution de petits gâteaux et bonbons sur la place du marché à Beynes...
2 attelages et une vingtaine de chevaux ! et tous habillés !]]></desc>
  </metadata>
  <trk>
    <name><![CDATA[Crespières, Sortie Père et Mère Noël, Equi'Tey]]></name>
    <desc><![CDATA[Super journée, avec nos chevaux en ligne dans les douves !]]></desc>
    <trkseg>
      <trkpt lat="48.89725" lon="1.93368">
        <ele>190</ele>
        <time>2011-12-18T09:18:21.000Z</time>
      </trkpt>
      <trkpt lat="48.89732" lon="1.93353">
        <ele>190</ele>
        <time>2011-12-18T09:18:28.000Z</time>
      </trkpt>
      <trkpt lat="48.89733" lon="1.93347">
        <ele>190</ele>
        <time>2011-12-18T09:18:31.000Z</time>
      </trkpt>
      <trkpt lat="48.8974" lon="1.93333">
        <ele>189.80000305176</ele>
        <time>2011-12-18T09:18:38.000Z</time>
      </trkpt>
      <trkpt lat="48.89744" lon="1.93326">
        <ele>190</ele>
        <time>2011-12-18T09:18:42.000Z</time>
      </trkpt>
      <trkpt lat="48.89752" lon="1.93313">
        <ele>190.39999389648</ele>
        <time>2011-12-18T09:18:50.000Z</time>
      </trkpt>
      <trkpt lat="48.89756" lon="1.93302">
        <ele>190.60000610352</ele>
        <time>2011-12-18T09:18:55.000Z</time>
      </trkpt>
      <trkpt lat="48.89764" lon="1.93293">
        <ele>190.39999389648</ele>
        <time>2011-12-18T09:19:01.000Z</time>
      </trkpt>
      <trkpt lat="48.89769" lon="1.93283">
        <ele>190.39999389648</ele>
        <time>2011-12-18T09:19:08.000Z</time>
      </trkpt>
      <trkpt lat="48.89776" lon="1.93279">
        <ele>190</ele>
        <time>2011-12-18T09:19:14.000Z</time>
      </trkpt>
      <trkpt lat="48.89778" lon="1.93275">
        <ele>190</ele>
        <time>2011-12-18T09:19:16.000Z</time>
      </trkpt>
      <trkpt lat="48.89781" lon="1.93268">
        <ele>189.80000305176</ele>
        <time>2011-12-18T09:19:20.000Z</time>
      </trkpt>
      <trkpt lat="48.89784" lon="1.93264">
        <ele>189.60000610352</ele>
        <time>2011-12-18T09:19:23.000Z</time>
      </trkpt>
      <trkpt lat="48.89791" lon="1.93259">
        <ele>189.19999694824</ele>
        <time>2011-12-18T09:19:29.000Z</time>
      </trkpt>
      <trkpt lat="48.89793" lon="1.93257">
        <ele>189</ele>
        <time>2011-12-18T09:19:31.000Z</time>
      </trkpt>
      <trkpt lat="48.89801" lon="1.93248">
        <ele>188.39999389648</ele>
        <time>2011-12-18T09:19:37.000Z</time>
      </trkpt>
      <trkpt lat="48.89804" lon="1.93244">
        <ele>188</ele>
        <time>2011-12-18T09:19:40.000Z</time>
      </trkpt>
      <trkpt lat="48.89806" lon="1.9322">
        <ele>187.60000610352</ele>
        <time>2011-12-18T09:19:46.000Z</time>
      </trkpt>
      <trkpt lat="48.89808" lon="1.93216">
        <ele>187.39999389648</ele>
        <time>2011-12-18T09:19:48.000Z</time>
      </trkpt>
      <trkpt lat="48.89816" lon="1.93205">
        <ele>186.80000305176</ele>
        <time>2011-12-18T09:19:55.000Z</time>
      </trkpt>
      <trkpt lat="48.89817" lon="1.93204">
        <ele>186.60000610352</ele>
        <time>2011-12-18T09:19:56.000Z</time>
      </trkpt>
      <trkpt lat="48.89822" lon="1.93195">
        <ele>186.19999694824</ele>
        <time>2011-12-18T09:20:02.000Z</time>
      </trkpt>
      <trkpt lat="48.89837" lon="1.9318">
        <ele>185</ele>
        <time>2011-12-18T09:20:11.000Z</time>
      </trkpt>
      <trkpt lat="48.89848" lon="1.93161">
        <ele>184.60000610352</ele>
        <time>2011-12-18T09:20:16.000Z</time>
      </trkpt>
      <trkpt lat="48.89853" lon="1.93148">
        <ele>184.39999389648</ele>
        <time>2011-12-18T09:20:21.000Z</time>
      </trkpt>
      <trkpt lat="48.89854" lon="1.93143">
        <ele>184.39999389648</ele>
        <time>2011-12-18T09:20:23.000Z</time>
      </trkpt>
      <trkpt lat="48.89862" lon="1.93128">
        <ele>184.39999389648</ele>
        <time>2011-12-18T09:20:31.000Z</time>
      </trkpt>
      <trkpt lat="48.89867" lon="1.93114">
        <ele>184.60000610352</ele>
        <time>2011-12-18T09:20:37.000Z</time>
      </trkpt>
      <trkpt lat="48.89874" lon="1.93104">
        <ele>184.60000610352</ele>
        <time>2011-12-18T09:20:43.000Z</time>
      </trkpt>
      <trkpt lat="48.89878" lon="1.93094">
        <ele>184.80000305176</ele>
        <time>2011-12-18T09:20:47.000Z</time>
      </trkpt>
      <trkpt lat="48.89888" lon="1.93073">
        <ele>185.19999694824</ele>
        <time>2011-12-18T09:20:55.000Z</time>
      </trkpt>
      <trkpt lat="48.89893" lon="1.9306">
        <ele>185.39999389648</ele>
        <time>2011-12-18T09:21:01.000Z</time>
      </trkpt>
      <trkpt lat="48.899" lon="1.93044">
        <ele>185.80000305176</ele>
        <time>2011-12-18T09:21:08.000Z</time>
      </trkpt>
      <trkpt lat="48.89906" lon="1.93032">
        <ele>186.19999694824</ele>
        <time>2011-12-18T09:21:14.000Z</time>
      </trkpt>
      <trkpt lat="48.89908" lon="1.93028">
        <ele>186.19999694824</ele>
        <time>2011-12-18T09:21:16.000Z</time>
      </trkpt>
      <trkpt lat="48.89913" lon="1.93021">
        <ele>186.39999389648</ele>
        <time>2011-12-18T09:21:20.000Z</time>
      </trkpt>
      <trkpt lat="48.89925" lon="1.93009">
        <ele>186.60000610352</ele>
        <time>2011-12-18T09:21:28.000Z</time>
      </trkpt>
      <trkpt lat="48.89932" lon="1.92996">
        <ele>186.60000610352</ele>
        <time>2011-12-18T09:21:33.000Z</time>
      </trkpt>
      <trkpt lat="48.8994" lon="1.92982">
        <ele>186.39999389648</ele>
        <time>2011-12-18T09:21:40.000Z</time>
      </trkpt>
      <trkpt lat="48.89945" lon="1.92964">
        <ele>186</ele>
        <time>2011-12-18T09:21:48.000Z</time>
      </trkpt>
      <trkpt lat="48.89953" lon="1.92948">
        <ele>185.60000610352</ele>
        <time>2011-12-18T09:21:55.000Z</time>
      </trkpt>
      <trkpt lat="48.89959" lon="1.92939">
        <ele>185.19999694824</ele>
        <time>2011-12-18T09:22:00.000Z</time>
      </trkpt>
      <trkpt lat="48.8996" lon="1.92937">
        <ele>185.19999694824</ele>
        <time>2011-12-18T09:22:01.000Z</time>
      </trkpt>
      <trkpt lat="48.89968" lon="1.92924">
        <ele>184.60000610352</ele>
        <time>2011-12-18T09:22:08.000Z</time>
      </trkpt>
      <trkpt lat="48.8997" lon="1.92921">
        <ele>184.60000610352</ele>
        <time>2011-12-18T09:22:10.000Z</time>
      </trkpt>
      <trkpt lat="48.89971" lon="1.9291">
        <ele>184.19999694824</ele>
        <time>2011-12-18T09:22:17.000Z</time>
      </trkpt>
      <trkpt lat="48.89963" lon="1.92899">
        <ele>184.39999389648</ele>
        <time>2011-12-18T09:22:23.000Z</time>
      </trkpt>
      <trkpt lat="48.89955" lon="1.9289">
        <ele>184.60000610352</ele>
        <time>2011-12-18T09:22:30.000Z</time>
      </trkpt>
      <trkpt lat="48.89955" lon="1.92889">
        <ele>184.39999389648</ele>
        <time>2011-12-18T09:22:33.000Z</time>
      </trkpt>
      <trkpt lat="48.89947" lon="1.92884">
        <ele>184.80000305176</ele>
        <time>2011-12-18T09:22:53.000Z</time>
      </trkpt>
      <trkpt lat="48.89934" lon="1.92874">
        <ele>185.19999694824</ele>
        <time>2011-12-18T09:23:00.000Z</time>
      </trkpt>
      <trkpt lat="48.8992" lon="1.92862">
        <ele>185.60000610352</ele>
        <time>2011-12-18T09:23:09.000Z</time>
      </trkpt>
      <trkpt lat="48.89905" lon="1.9285">
        <ele>185.80000305176</ele>
        <time>2011-12-18T09:23:19.000Z</time>
      </trkpt>
      <trkpt lat="48.89891" lon="1.92839">
        <ele>186</ele>
        <time>2011-12-18T09:23:28.000Z</time>
      </trkpt>
      <trkpt lat="48.8988" lon="1.9283">
        <ele>186.19999694824</ele>
        <time>2011-12-18T09:23:35.000Z</time>
      </trkpt>
      <trkpt lat="48.8987" lon="1.92822">
        <ele>186.19999694824</ele>
        <time>2011-12-18T09:23:42.000Z</time>
      </trkpt>
      <trkpt lat="48.89856" lon="1.92811">
        <ele>186.19999694824</ele>
        <time>2011-12-18T09:23:51.000Z</time>
      </trkpt>
      <trkpt lat="48.8984" lon="1.92798">
        <ele>186</ele>
        <time>2011-12-18T09:24:01.000Z</time>
      </trkpt>
      <trkpt lat="48.89826" lon="1.92787">
        <ele>186.19999694824</ele>
        <time>2011-12-18T09:24:10.000Z</time>
      </trkpt>
      <trkpt lat="48.89818" lon="1.92778">
        <ele>186.19999694824</ele>
        <time>2011-12-18T09:24:16.000Z</time>
      </trkpt>
      <trkpt lat="48.89817" lon="1.92776">
        <ele>186</ele>
        <time>2011-12-18T09:24:17.000Z</time>
      </trkpt>
      <trkpt lat="48.89817" lon="1.92766">
        <ele>185.60000610352</ele>
        <time>2011-12-18T09:24:21.000Z</time>
      </trkpt>
      <trkpt lat="48.89823" lon="1.92741">
        <ele>184.60000610352</ele>
        <time>2011-12-18T09:24:31.000Z</time>
      </trkpt>
      <trkpt lat="48.89829" lon="1.92721">
        <ele>184.19999694824</ele>
        <time>2011-12-18T09:24:39.000Z</time>
      </trkpt>
      <trkpt lat="48.89834" lon="1.92704">
        <ele>184</ele>
        <time>2011-12-18T09:24:46.000Z</time>
      </trkpt>
      <trkpt lat="48.89839" lon="1.92686">
        <ele>183.80000305176</ele>
        <time>2011-12-18T09:24:54.000Z</time>
      </trkpt>
      <trkpt lat="48.89847" lon="1.92655">
        <ele>183.80000305176</ele>
        <time>2011-12-18T09:25:06.000Z</time>
      </trkpt>
      <trkpt lat="48.89854" lon="1.92633">
        <ele>184</ele>
        <time>2011-12-18T09:25:15.000Z</time>
      </trkpt>
      <trkpt lat="48.89854" lon="1.9262">
        <ele>184.39999389648</ele>
        <time>2011-12-18T09:25:21.000Z</time>
      </trkpt>
      <trkpt lat="48.89847" lon="1.9261">
        <ele>185.19999694824</ele>
        <time>2011-12-18T09:25:27.000Z</time>
      </trkpt>
      <trkpt lat="48.89847" lon="1.926">
        <ele>185.39999389648</ele>
        <time>2011-12-18T09:25:31.000Z</time>
      </trkpt>
      <trkpt lat="48.89854" lon="1.92577">
        <ele>185.39999389648</ele>
        <time>2011-12-18T09:25:41.000Z</time>
      </trkpt>
      <trkpt lat="48.89859" lon="1.92556">
        <ele>184.80000305176</ele>
        <time>2011-12-18T09:25:50.000Z</time>
      </trkpt>
      <trkpt lat="48.8986" lon="1.92551">
        <ele>184.80000305176</ele>
        <time>2011-12-18T09:25:52.000Z</time>
      </trkpt>
      <trkpt lat="48.89863" lon="1.9253">
        <ele>184.19999694824</ele>
        <time>2011-12-18T09:26:00.000Z</time>
      </trkpt>
      <trkpt lat="48.89868" lon="1.92512">
        <ele>183.60000610352</ele>
        <time>2011-12-18T09:26:07.000Z</time>
      </trkpt>
      <trkpt lat="48.89876" lon="1.92493">
        <ele>183</ele>
        <time>2011-12-18T09:26:15.000Z</time>
      </trkpt>
      <trkpt lat="48.89883" lon="1.92467">
        <ele>182.60000610352</ele>
        <time>2011-12-18T09:26:26.000Z</time>
      </trkpt>
      <trkpt lat="48.89889" lon="1.92449">
        <ele>182.60000610352</ele>
        <time>2011-12-18T09:26:34.000Z</time>
      </trkpt>
      <trkpt lat="48.89898" lon="1.9243">
        <ele>182.80000305176</ele>
        <time>2011-12-18T09:26:43.000Z</time>
      </trkpt>
      <trkpt lat="48.899" lon="1.92417">
        <ele>183</ele>
        <time>2011-12-18T09:26:49.000Z</time>
      </trkpt>
      <trkpt lat="48.89896" lon="1.92406">
        <ele>182.80000305176</ele>
        <time>2011-12-18T09:26:55.000Z</time>
      </trkpt>
      <trkpt lat="48.89886" lon="1.92391">
        <ele>182.60000610352</ele>
        <time>2011-12-18T09:27:03.000Z</time>
      </trkpt>
      <trkpt lat="48.89874" lon="1.9238">
        <ele>182.19999694824</ele>
        <time>2011-12-18T09:27:11.000Z</time>
      </trkpt>
      <trkpt lat="48.89861" lon="1.92368">
        <ele>181.39999389648</ele>
        <time>2011-12-18T09:27:20.000Z</time>
      </trkpt>
      <trkpt lat="48.89852" lon="1.92358">
        <ele>180.80000305176</ele>
        <time>2011-12-18T09:27:27.000Z</time>
      </trkpt>
      <trkpt lat="48.89845" lon="1.9235">
        <ele>180.19999694824</ele>
        <time>2011-12-18T09:27:33.000Z</time>
      </trkpt>
      <trkpt lat="48.89839" lon="1.92335">
        <ele>179.39999389648</ele>
        <time>2011-12-18T09:27:41.000Z</time>
      </trkpt>
      <trkpt lat="48.89839" lon="1.9233">
        <ele>179.19999694824</ele>
        <time>2011-12-18T09:27:43.000Z</time>
      </trkpt>
      <trkpt lat="48.89846" lon="1.92323">
        <ele>179.39999389648</ele>
        <time>2011-12-18T09:27:49.000Z</time>
      </trkpt>
      <trkpt lat="48.89855" lon="1.92318">
        <ele>179.80000305176</ele>
        <time>2011-12-18T09:27:55.000Z</time>
      </trkpt>
      <trkpt lat="48.89866" lon="1.92307">
        <ele>180.19999694824</ele>
        <time>2011-12-18T09:28:03.000Z</time>
      </trkpt>
      <trkpt lat="48.89873" lon="1.92299">
        <ele>180.39999389648</ele>
        <time>2011-12-18T09:28:09.000Z</time>
      </trkpt>
      <trkpt lat="48.89878" lon="1.92294">
        <ele>180.60000610352</ele>
        <time>2011-12-18T09:28:13.000Z</time>
      </trkpt>
      <trkpt lat="48.89893" lon="1.92283">
        <ele>181.39999389648</ele>
        <time>2011-12-18T09:28:23.000Z</time>
      </trkpt>
      <trkpt lat="48.89894" lon="1.92282">
        <ele>181.60000610352</ele>
        <time>2011-12-18T09:28:24.000Z</time>
      </trkpt>
      <trkpt lat="48.89899" lon="1.92277">
        <ele>181.80000305176</ele>
        <time>2011-12-18T09:28:28.000Z</time>
      </trkpt>
      <trkpt lat="48.89909" lon="1.92268">
        <ele>182.39999389648</ele>
        <time>2011-12-18T09:28:35.000Z</time>
      </trkpt>
      <trkpt lat="48.89912" lon="1.92265">
        <ele>182.60000610352</ele>
        <time>2011-12-18T09:28:37.000Z</time>
      </trkpt>
      <trkpt lat="48.89911" lon="1.92252">
        <ele>182.60000610352</ele>
        <time>2011-12-18T09:28:43.000Z</time>
      </trkpt>
      <trkpt lat="48.89908" lon="1.9225">
        <ele>182.39999389648</ele>
        <time>2011-12-18T09:28:45.000Z</time>
      </trkpt>
      <trkpt lat="48.89895" lon="1.92242">
        <ele>181.60000610352</ele>
        <time>2011-12-18T09:28:53.000Z</time>
      </trkpt>
      <trkpt lat="48.89886" lon="1.92237">
        <ele>180.80000305176</ele>
        <time>2011-12-18T09:28:59.000Z</time>
      </trkpt>
      <trkpt lat="48.89881" lon="1.92225">
        <ele>180.39999389648</ele>
        <time>2011-12-18T09:29:06.000Z</time>
      </trkpt>
      <trkpt lat="48.89883" lon="1.92219">
        <ele>180.60000610352</ele>
        <time>2011-12-18T09:29:11.000Z</time>
      </trkpt>
      <trkpt lat="48.89885" lon="1.92214">
        <ele>180.60000610352</ele>
        <time>2011-12-18T09:29:13.000Z</time>
      </trkpt>
      <trkpt lat="48.89887" lon="1.92197">
        <ele>181</ele>
        <time>2011-12-18T09:29:19.000Z</time>
      </trkpt>
      <trkpt lat="48.89891" lon="1.92181">
        <ele>181.60000610352</ele>
        <time>2011-12-18T09:29:26.000Z</time>
      </trkpt>
      <trkpt lat="48.89896" lon="1.92164">
        <ele>182.60000610352</ele>
        <time>2011-12-18T09:29:33.000Z</time>
      </trkpt>
      <trkpt lat="48.89898" lon="1.92159">
        <ele>182.60000610352</ele>
        <time>2011-12-18T09:29:35.000Z</time>
      </trkpt>
      <trkpt lat="48.899" lon="1.92147">
        <ele>182.80000305176</ele>
        <time>2011-12-18T09:29:40.000Z</time>
      </trkpt>
      <trkpt lat="48.89901" lon="1.92143">
        <ele>183</ele>
        <time>2011-12-18T09:29:42.000Z</time>
      </trkpt>
      <trkpt lat="48.89906" lon="1.92132">
        <ele>183.60000610352</ele>
        <time>2011-12-18T09:29:47.000Z</time>
      </trkpt>
      <trkpt lat="48.8991" lon="1.92124">
        <ele>184.19999694824</ele>
        <time>2011-12-18T09:29:51.000Z</time>
      </trkpt>
      <trkpt lat="48.89912" lon="1.92119">
        <ele>184.39999389648</ele>
        <time>2011-12-18T09:29:53.000Z</time>
      </trkpt>
      <trkpt lat="48.89918" lon="1.92109">
        <ele>185.39999389648</ele>
        <time>2011-12-18T09:29:59.000Z</time>
      </trkpt>
      <trkpt lat="48.89923" lon="1.92095">
        <ele>185.19999694824</ele>
        <time>2011-12-18T09:30:05.000Z</time>
      </trkpt>
      <trkpt lat="48.89928" lon="1.92083">
        <ele>185.19999694824</ele>
        <time>2011-12-18T09:30:11.000Z</time>
      </trkpt>
      <trkpt lat="48.89929" lon="1.92081">
        <ele>185.19999694824</ele>
        <time>2011-12-18T09:30:12.000Z</time>
      </trkpt>
      <trkpt lat="48.89934" lon="1.92071">
        <ele>185.19999694824</ele>
        <time>2011-12-18T09:30:17.000Z</time>
      </trkpt>
      <trkpt lat="48.89944" lon="1.92053">
        <ele>185.19999694824</ele>
        <time>2011-12-18T09:30:25.000Z</time>
      </trkpt>
      <trkpt lat="48.89947" lon="1.92037">
        <ele>185.19999694824</ele>
        <time>2011-12-18T09:30:32.000Z</time>
      </trkpt>
      <trkpt lat="48.89948" lon="1.92029">
        <ele>185.19999694824</ele>
        <time>2011-12-18T09:30:35.000Z</time>
      </trkpt>
      <trkpt lat="48.8995" lon="1.92018">
        <ele>185.19999694824</ele>
        <time>2011-12-18T09:30:39.000Z</time>
      </trkpt>
      <trkpt lat="48.89953" lon="1.92009">
        <ele>185.39999389648</ele>
        <time>2011-12-18T09:30:43.000Z</time>
      </trkpt>
      <trkpt lat="48.89956" lon="1.91993">
        <ele>185.39999389648</ele>
        <time>2011-12-18T09:30:50.000Z</time>
      </trkpt>
      <trkpt lat="48.8996" lon="1.91983">
        <ele>185.39999389648</ele>
        <time>2011-12-18T09:30:55.000Z</time>
      </trkpt>
      <trkpt lat="48.89962" lon="1.91967">
        <ele>185.39999389648</ele>
        <time>2011-12-18T09:31:01.000Z</time>
      </trkpt>
      <trkpt lat="48.89964" lon="1.91946">
        <ele>185.19999694824</ele>
        <time>2011-12-18T09:31:09.000Z</time>
      </trkpt>
      <trkpt lat="48.89966" lon="1.91938">
        <ele>185.39999389648</ele>
        <time>2011-12-18T09:31:12.000Z</time>
      </trkpt>
      <trkpt lat="48.8997" lon="1.91921">
        <ele>185.60000610352</ele>
        <time>2011-12-18T09:31:19.000Z</time>
      </trkpt>
      <trkpt lat="48.89973" lon="1.91905">
        <ele>185.60000610352</ele>
        <time>2011-12-18T09:31:26.000Z</time>
      </trkpt>
      <trkpt lat="48.89973" lon="1.91902">
        <ele>185.60000610352</ele>
        <time>2011-12-18T09:31:27.000Z</time>
      </trkpt>
      <trkpt lat="48.89975" lon="1.91885">
        <ele>185.39999389648</ele>
        <time>2011-12-18T09:31:33.000Z</time>
      </trkpt>
      <trkpt lat="48.89977" lon="1.91867">
        <ele>185.39999389648</ele>
        <time>2011-12-18T09:31:39.000Z</time>
      </trkpt>
      <trkpt lat="48.89977" lon="1.9185">
        <ele>185</ele>
        <time>2011-12-18T09:31:45.000Z</time>
      </trkpt>
      <trkpt lat="48.89978" lon="1.91838">
        <ele>185</ele>
        <time>2011-12-18T09:31:49.000Z</time>
      </trkpt>
      <trkpt lat="48.8998" lon="1.91824">
        <ele>184.80000305176</ele>
        <time>2011-12-18T09:31:55.000Z</time>
      </trkpt>
      <trkpt lat="48.89981" lon="1.91822">
        <ele>184.80000305176</ele>
        <time>2011-12-18T09:31:56.000Z</time>
      </trkpt>
      <trkpt lat="48.89984" lon="1.91808">
        <ele>185</ele>
        <time>2011-12-18T09:32:02.000Z</time>
      </trkpt>
      <trkpt lat="48.89988" lon="1.91787">
        <ele>185</ele>
        <time>2011-12-18T09:32:11.000Z</time>
      </trkpt>
      <trkpt lat="48.8999" lon="1.9177">
        <ele>185</ele>
        <time>2011-12-18T09:32:18.000Z</time>
      </trkpt>
      <trkpt lat="48.89994" lon="1.9175">
        <ele>185.19999694824</ele>
        <time>2011-12-18T09:32:26.000Z</time>
      </trkpt>
      <trkpt lat="48.89996" lon="1.91735">
        <ele>185.60000610352</ele>
        <time>2011-12-18T09:32:32.000Z</time>
      </trkpt>
      <trkpt lat="48.9" lon="1.91717">
        <ele>186.39999389648</ele>
        <time>2011-12-18T09:32:39.000Z</time>
      </trkpt>
      <trkpt lat="48.90005" lon="1.91699">
        <ele>186.60000610352</ele>
        <time>2011-12-18T09:32:47.000Z</time>
      </trkpt>
      <trkpt lat="48.9001" lon="1.91683">
        <ele>186.80000305176</ele>
        <time>2011-12-18T09:32:54.000Z</time>
      </trkpt>
      <trkpt lat="48.90015" lon="1.91665">
        <ele>187</ele>
        <time>2011-12-18T09:33:01.000Z</time>
      </trkpt>
      <trkpt lat="48.90018" lon="1.91655">
        <ele>187</ele>
        <time>2011-12-18T09:33:05.000Z</time>
      </trkpt>
      <trkpt lat="48.90023" lon="1.91642">
        <ele>187</ele>
        <time>2011-12-18T09:33:11.000Z</time>
      </trkpt>
      <trkpt lat="48.90029" lon="1.91626">
        <ele>187</ele>
        <time>2011-12-18T09:33:18.000Z</time>
      </trkpt>
      <trkpt lat="48.90035" lon="1.91611">
        <ele>187.19999694824</ele>
        <time>2011-12-18T09:33:25.000Z</time>
      </trkpt>
      <trkpt lat="48.90038" lon="1.91597">
        <ele>187.39999389648</ele>
        <time>2011-12-18T09:33:31.000Z</time>
      </trkpt>
      <trkpt lat="48.90038" lon="1.91593">
        <ele>187.39999389648</ele>
        <time>2011-12-18T09:33:32.000Z</time>
      </trkpt>
      <trkpt lat="48.90039" lon="1.91573">
        <ele>187.19999694824</ele>
        <time>2011-12-18T09:33:39.000Z</time>
      </trkpt>
      <trkpt lat="48.90039" lon="1.91562">
        <ele>187</ele>
        <time>2011-12-18T09:33:43.000Z</time>
      </trkpt>
      <trkpt lat="48.90042" lon="1.91543">
        <ele>186.80000305176</ele>
        <time>2011-12-18T09:33:49.000Z</time>
      </trkpt>
      <trkpt lat="48.90047" lon="1.91526">
        <ele>186.60000610352</ele>
        <time>2011-12-18T09:33:56.000Z</time>
      </trkpt>
      <trkpt lat="48.90049" lon="1.91514">
        <ele>186.39999389648</ele>
        <time>2011-12-18T09:34:01.000Z</time>
      </trkpt>
      <trkpt lat="48.90052" lon="1.91503">
        <ele>186.39999389648</ele>
        <time>2011-12-18T09:34:05.000Z</time>
      </trkpt>
      <trkpt lat="48.90055" lon="1.91492">
        <ele>186.19999694824</ele>
        <time>2011-12-18T09:34:10.000Z</time>
      </trkpt>
      <trkpt lat="48.90059" lon="1.91471">
        <ele>186.39999389648</ele>
        <time>2011-12-18T09:34:19.000Z</time>
      </trkpt>
      <trkpt lat="48.90061" lon="1.91466">
        <ele>186.39999389648</ele>
        <time>2011-12-18T09:34:21.000Z</time>
      </trkpt>
      <trkpt lat="48.90066" lon="1.91453">
        <ele>186.39999389648</ele>
        <time>2011-12-18T09:34:27.000Z</time>
      </trkpt>
      <trkpt lat="48.90067" lon="1.91448">
        <ele>186.60000610352</ele>
        <time>2011-12-18T09:34:29.000Z</time>
      </trkpt>
      <trkpt lat="48.9007" lon="1.91444">
        <ele>186.60000610352</ele>
        <time>2011-12-18T09:34:31.000Z</time>
      </trkpt>
      <trkpt lat="48.90073" lon="1.91429">
        <ele>186.60000610352</ele>
        <time>2011-12-18T09:34:37.000Z</time>
      </trkpt>
      <trkpt lat="48.90076" lon="1.91416">
        <ele>186.80000305176</ele>
        <time>2011-12-18T09:34:42.000Z</time>
      </trkpt>
      <trkpt lat="48.90079" lon="1.91403">
        <ele>186.80000305176</ele>
        <time>2011-12-18T09:34:47.000Z</time>
      </trkpt>
      <trkpt lat="48.90083" lon="1.91388">
        <ele>187</ele>
        <time>2011-12-18T09:34:53.000Z</time>
      </trkpt>
      <trkpt lat="48.90084" lon="1.9137">
        <ele>187</ele>
        <time>2011-12-18T09:34:59.000Z</time>
      </trkpt>
      <trkpt lat="48.90085" lon="1.91368">
        <ele>186.80000305176</ele>
        <time>2011-12-18T09:35:00.000Z</time>
      </trkpt>
      <trkpt lat="48.9009" lon="1.91356">
        <ele>186.60000610352</ele>
        <time>2011-12-18T09:35:06.000Z</time>
      </trkpt>
      <trkpt lat="48.90096" lon="1.91343">
        <ele>186</ele>
        <time>2011-12-18T09:35:12.000Z</time>
      </trkpt>
      <trkpt lat="48.90099" lon="1.91329">
        <ele>185.60000610352</ele>
        <time>2011-12-18T09:35:18.000Z</time>
      </trkpt>
      <trkpt lat="48.901" lon="1.91318">
        <ele>185</ele>
        <time>2011-12-18T09:35:23.000Z</time>
      </trkpt>
      <trkpt lat="48.90103" lon="1.91297">
        <ele>184</ele>
        <time>2011-12-18T09:35:31.000Z</time>
      </trkpt>
      <trkpt lat="48.90106" lon="1.91285">
        <ele>183.19999694824</ele>
        <time>2011-12-18T09:35:37.000Z</time>
      </trkpt>
      <trkpt lat="48.90108" lon="1.91269">
        <ele>182.39999389648</ele>
        <time>2011-12-18T09:35:44.000Z</time>
      </trkpt>
      <trkpt lat="48.9011" lon="1.91256">
        <ele>181.60000610352</ele>
        <time>2011-12-18T09:35:51.000Z</time>
      </trkpt>
      <trkpt lat="48.9011" lon="1.91244">
        <ele>181.19999694824</ele>
        <time>2011-12-18T09:35:56.000Z</time>
      </trkpt>
      <trkpt lat="48.90115" lon="1.91227">
        <ele>180.80000305176</ele>
        <time>2011-12-18T09:36:03.000Z</time>
      </trkpt>
      <trkpt lat="48.9012" lon="1.91216">
        <ele>180.39999389648</ele>
        <time>2011-12-18T09:36:09.000Z</time>
      </trkpt>
      <trkpt lat="48.90123" lon="1.91201">
        <ele>180</ele>
        <time>2011-12-18T09:36:15.000Z</time>
      </trkpt>
      <trkpt lat="48.90126" lon="1.91187">
        <ele>179.80000305176</ele>
        <time>2011-12-18T09:36:20.000Z</time>
      </trkpt>
      <trkpt lat="48.90126" lon="1.91182">
        <ele>179.60000610352</ele>
        <time>2011-12-18T09:36:22.000Z</time>
      </trkpt>
      <trkpt lat="48.90124" lon="1.91173">
        <ele>179.60000610352</ele>
        <time>2011-12-18T09:36:27.000Z</time>
      </trkpt>
      <trkpt lat="48.90122" lon="1.9117">
        <ele>179.60000610352</ele>
        <time>2011-12-18T09:36:29.000Z</time>
      </trkpt>
      <trkpt lat="48.90123" lon="1.91146">
        <ele>180</ele>
        <time>2011-12-18T09:36:37.000Z</time>
      </trkpt>
      <trkpt lat="48.90124" lon="1.91135">
        <ele>180</ele>
        <time>2011-12-18T09:36:42.000Z</time>
      </trkpt>
      <trkpt lat="48.90125" lon="1.91128">
        <ele>180.19999694824</ele>
        <time>2011-12-18T09:36:46.000Z</time>
      </trkpt>
      <trkpt lat="48.90127" lon="1.9112">
        <ele>180.39999389648</ele>
        <time>2011-12-18T09:36:50.000Z</time>
      </trkpt>
      <trkpt lat="48.90126" lon="1.91099">
        <ele>180.80000305176</ele>
        <time>2011-12-18T09:36:58.000Z</time>
      </trkpt>
      <trkpt lat="48.90128" lon="1.91088">
        <ele>181</ele>
        <time>2011-12-18T09:37:03.000Z</time>
      </trkpt>
      <trkpt lat="48.9013" lon="1.91076">
        <ele>181.19999694824</ele>
        <time>2011-12-18T09:37:08.000Z</time>
      </trkpt>
      <trkpt lat="48.90132" lon="1.91059">
        <ele>181.60000610352</ele>
        <time>2011-12-18T09:37:15.000Z</time>
      </trkpt>
      <trkpt lat="48.90134" lon="1.91055">
        <ele>181.60000610352</ele>
        <time>2011-12-18T09:37:17.000Z</time>
      </trkpt>
      <trkpt lat="48.90135" lon="1.91047">
        <ele>181.80000305176</ele>
        <time>2011-12-18T09:37:21.000Z</time>
      </trkpt>
      <trkpt lat="48.90136" lon="1.91041">
        <ele>182</ele>
        <time>2011-12-18T09:37:24.000Z</time>
      </trkpt>
      <trkpt lat="48.90138" lon="1.91029">
        <ele>182.19999694824</ele>
        <time>2011-12-18T09:37:30.000Z</time>
      </trkpt>
      <trkpt lat="48.90143" lon="1.91021">
        <ele>182.60000610352</ele>
        <time>2011-12-18T09:37:36.000Z</time>
      </trkpt>
      <trkpt lat="48.90144" lon="1.91019">
        <ele>182.60000610352</ele>
        <time>2011-12-18T09:37:39.000Z</time>
      </trkpt>
      <trkpt lat="48.90147" lon="1.91">
        <ele>183</ele>
        <time>2011-12-18T09:38:22.000Z</time>
      </trkpt>
      <trkpt lat="48.90147" lon="1.90988">
        <ele>182.80000305176</ele>
        <time>2011-12-18T09:38:26.000Z</time>
      </trkpt>
      <trkpt lat="48.90148" lon="1.90982">
        <ele>182.80000305176</ele>
        <time>2011-12-18T09:38:32.000Z</time>
      </trkpt>
      <trkpt lat="48.90156" lon="1.90959">
        <ele>182.80000305176</ele>
        <time>2011-12-18T09:39:47.000Z</time>
      </trkpt>
      <trkpt lat="48.90159" lon="1.90953">
        <ele>182.80000305176</ele>
        <time>2011-12-18T09:39:49.000Z</time>
      </trkpt>
      <trkpt lat="48.9016" lon="1.90948">
        <ele>182.80000305176</ele>
        <time>2011-12-18T09:39:51.000Z</time>
      </trkpt>
      <trkpt lat="48.90164" lon="1.90934">
        <ele>183</ele>
        <time>2011-12-18T09:39:58.000Z</time>
      </trkpt>
      <trkpt lat="48.90167" lon="1.90918">
        <ele>183</ele>
        <time>2011-12-18T09:40:05.000Z</time>
      </trkpt>
      <trkpt lat="48.90168" lon="1.9091">
        <ele>182.80000305176</ele>
        <time>2011-12-18T09:40:10.000Z</time>
      </trkpt>
      <trkpt lat="48.9017" lon="1.90902">
        <ele>182.39999389648</ele>
        <time>2011-12-18T09:40:14.000Z</time>
      </trkpt>
      <trkpt lat="48.90171" lon="1.90894">
        <ele>182.19999694824</ele>
        <time>2011-12-18T09:40:18.000Z</time>
      </trkpt>
      <trkpt lat="48.90172" lon="1.90882">
        <ele>181.60000610352</ele>
        <time>2011-12-18T09:40:24.000Z</time>
      </trkpt>
      <trkpt lat="48.90175" lon="1.90878">
        <ele>181.60000610352</ele>
        <time>2011-12-18T09:40:27.000Z</time>
      </trkpt>
      <trkpt lat="48.9018" lon="1.90865">
        <ele>181.19999694824</ele>
        <time>2011-12-18T09:40:34.000Z</time>
      </trkpt>
      <trkpt lat="48.90181" lon="1.90861">
        <ele>181.19999694824</ele>
        <time>2011-12-18T09:40:36.000Z</time>
      </trkpt>
      <trkpt lat="48.90185" lon="1.90847">
        <ele>180.80000305176</ele>
        <time>2011-12-18T09:40:43.000Z</time>
      </trkpt>
      <trkpt lat="48.90187" lon="1.90839">
        <ele>180.60000610352</ele>
        <time>2011-12-18T09:40:46.000Z</time>
      </trkpt>
      <trkpt lat="48.90188" lon="1.90832">
        <ele>180.39999389648</ele>
        <time>2011-12-18T09:40:49.000Z</time>
      </trkpt>
      <trkpt lat="48.90192" lon="1.90814">
        <ele>180.80000305176</ele>
        <time>2011-12-18T09:40:57.000Z</time>
      </trkpt>
      <trkpt lat="48.90195" lon="1.90797">
        <ele>180.80000305176</ele>
        <time>2011-12-18T09:41:05.000Z</time>
      </trkpt>
      <trkpt lat="48.90199" lon="1.90782">
        <ele>181.19999694824</ele>
        <time>2011-12-18T09:41:11.000Z</time>
      </trkpt>
      <trkpt lat="48.90201" lon="1.90774">
        <ele>181.39999389648</ele>
        <time>2011-12-18T09:41:15.000Z</time>
      </trkpt>
      <trkpt lat="48.90206" lon="1.90758">
        <ele>181.80000305176</ele>
        <time>2011-12-18T09:41:23.000Z</time>
      </trkpt>
      <trkpt lat="48.9021" lon="1.90739">
        <ele>182</ele>
        <time>2011-12-18T09:41:30.000Z</time>
      </trkpt>
      <trkpt lat="48.90214" lon="1.90723">
        <ele>182</ele>
        <time>2011-12-18T09:41:37.000Z</time>
      </trkpt>
      <trkpt lat="48.90216" lon="1.90714">
        <ele>182.19999694824</ele>
        <time>2011-12-18T09:41:42.000Z</time>
      </trkpt>
      <trkpt lat="48.9022" lon="1.90698">
        <ele>182.19999694824</ele>
        <time>2011-12-18T09:41:48.000Z</time>
      </trkpt>
      <trkpt lat="48.90223" lon="1.90685">
        <ele>182.39999389648</ele>
        <time>2011-12-18T09:41:53.000Z</time>
      </trkpt>
      <trkpt lat="48.90226" lon="1.90668">
        <ele>182.39999389648</ele>
        <time>2011-12-18T09:42:01.000Z</time>
      </trkpt>
      <trkpt lat="48.90228" lon="1.90657">
        <ele>182.19999694824</ele>
        <time>2011-12-18T09:42:06.000Z</time>
      </trkpt>
      <trkpt lat="48.90223" lon="1.90652">
        <ele>181.39999389648</ele>
        <time>2011-12-18T09:42:12.000Z</time>
      </trkpt>
      <trkpt lat="48.90219" lon="1.90648">
        <ele>180.80000305176</ele>
        <time>2011-12-18T09:42:15.000Z</time>
      </trkpt>
      <trkpt lat="48.90219" lon="1.90641">
        <ele>180.60000610352</ele>
        <time>2011-12-18T09:42:18.000Z</time>
      </trkpt>
      <trkpt lat="48.90221" lon="1.90626">
        <ele>180.19999694824</ele>
        <time>2011-12-18T09:42:25.000Z</time>
      </trkpt>
      <trkpt lat="48.90221" lon="1.90624">
        <ele>180</ele>
        <time>2011-12-18T09:42:26.000Z</time>
      </trkpt>
      <trkpt lat="48.90216" lon="1.90621">
        <ele>179.39999389648</ele>
        <time>2011-12-18T09:42:32.000Z</time>
      </trkpt>
      <trkpt lat="48.90216" lon="1.90621">
        <ele>179.39999389648</ele>
        <time>2011-12-18T09:42:34.000Z</time>
      </trkpt>
      <trkpt lat="48.90205" lon="1.90624">
        <ele>178.39999389648</ele>
        <time>2011-12-18T09:43:38.000Z</time>
      </trkpt>
      <trkpt lat="48.90198" lon="1.90623">
        <ele>177.60000610352</ele>
        <time>2011-12-18T09:43:42.000Z</time>
      </trkpt>
      <trkpt lat="48.90188" lon="1.90619">
        <ele>176.39999389648</ele>
        <time>2011-12-18T09:43:49.000Z</time>
      </trkpt>
      <trkpt lat="48.90187" lon="1.90618">
        <ele>176.39999389648</ele>
        <time>2011-12-18T09:43:50.000Z</time>
      </trkpt>
      <trkpt lat="48.90177" lon="1.90612">
        <ele>175</ele>
        <time>2011-12-18T09:43:57.000Z</time>
      </trkpt>
      <trkpt lat="48.90176" lon="1.90611">
        <ele>175</ele>
        <time>2011-12-18T09:43:58.000Z</time>
      </trkpt>
      <trkpt lat="48.90166" lon="1.90603">
        <ele>173.60000610352</ele>
        <time>2011-12-18T09:44:05.000Z</time>
      </trkpt>
      <trkpt lat="48.9016" lon="1.90596">
        <ele>172.60000610352</ele>
        <time>2011-12-18T09:44:10.000Z</time>
      </trkpt>
      <trkpt lat="48.90153" lon="1.90589">
        <ele>171.39999389648</ele>
        <time>2011-12-18T09:44:15.000Z</time>
      </trkpt>
      <trkpt lat="48.90148" lon="1.90587">
        <ele>170.60000610352</ele>
        <time>2011-12-18T09:44:20.000Z</time>
      </trkpt>
      <trkpt lat="48.90146" lon="1.90587">
        <ele>170.39999389648</ele>
        <time>2011-12-18T09:44:23.000Z</time>
      </trkpt>
      <trkpt lat="48.90139" lon="1.90582">
        <ele>169.19999694824</ele>
        <time>2011-12-18T09:44:30.000Z</time>
      </trkpt>
      <trkpt lat="48.90136" lon="1.90578">
        <ele>168.60000610352</ele>
        <time>2011-12-18T09:44:32.000Z</time>
      </trkpt>
      <trkpt lat="48.90131" lon="1.90575">
        <ele>167.80000305176</ele>
        <time>2011-12-18T09:44:36.000Z</time>
      </trkpt>
      <trkpt lat="48.90121" lon="1.90564">
        <ele>165.80000305176</ele>
        <time>2011-12-18T09:44:44.000Z</time>
      </trkpt>
      <trkpt lat="48.90113" lon="1.90555">
        <ele>164.19999694824</ele>
        <time>2011-12-18T09:44:50.000Z</time>
      </trkpt>
      <trkpt lat="48.90107" lon="1.90549">
        <ele>163.39999389648</ele>
        <time>2011-12-18T09:44:56.000Z</time>
      </trkpt>
      <trkpt lat="48.90107" lon="1.90549">
        <ele>163.39999389648</ele>
        <time>2011-12-18T09:44:58.000Z</time>
      </trkpt>
      <trkpt lat="48.901" lon="1.90537">
        <ele>162</ele>
        <time>2011-12-18T09:45:11.000Z</time>
      </trkpt>
      <trkpt lat="48.90094" lon="1.90522">
        <ele>160.80000305176</ele>
        <time>2011-12-18T09:45:17.000Z</time>
      </trkpt>
      <trkpt lat="48.90088" lon="1.90505">
        <ele>159.60000610352</ele>
        <time>2011-12-18T09:45:24.000Z</time>
      </trkpt>
      <trkpt lat="48.9008" lon="1.90484">
        <ele>157.39999389648</ele>
        <time>2011-12-18T09:45:33.000Z</time>
      </trkpt>
      <trkpt lat="48.90075" lon="1.90473">
        <ele>156.19999694824</ele>
        <time>2011-12-18T09:45:38.000Z</time>
      </trkpt>
      <trkpt lat="48.9007" lon="1.90461">
        <ele>155</ele>
        <time>2011-12-18T09:45:44.000Z</time>
      </trkpt>
      <trkpt lat="48.90064" lon="1.90446">
        <ele>153.39999389648</ele>
        <time>2011-12-18T09:45:53.000Z</time>
      </trkpt>
      <trkpt lat="48.90061" lon="1.90434">
        <ele>152.39999389648</ele>
        <time>2011-12-18T09:45:59.000Z</time>
      </trkpt>
      <trkpt lat="48.90052" lon="1.90419">
        <ele>151</ele>
        <time>2011-12-18T09:46:06.000Z</time>
      </trkpt>
      <trkpt lat="48.90046" lon="1.90408">
        <ele>149.60000610352</ele>
        <time>2011-12-18T09:46:12.000Z</time>
      </trkpt>
      <trkpt lat="48.90041" lon="1.90397">
        <ele>148.60000610352</ele>
        <time>2011-12-18T09:46:18.000Z</time>
      </trkpt>
      <trkpt lat="48.90032" lon="1.90382">
        <ele>147.19999694824</ele>
        <time>2011-12-18T09:46:26.000Z</time>
      </trkpt>
      <trkpt lat="48.90024" lon="1.90373">
        <ele>146.39999389648</ele>
        <time>2011-12-18T09:46:32.000Z</time>
      </trkpt>
      <trkpt lat="48.90018" lon="1.90362">
        <ele>145.60000610352</ele>
        <time>2011-12-18T09:46:38.000Z</time>
      </trkpt>
      <trkpt lat="48.9001" lon="1.90354">
        <ele>145</ele>
        <time>2011-12-18T09:46:44.000Z</time>
      </trkpt>
      <trkpt lat="48.90001" lon="1.90344">
        <ele>144.39999389648</ele>
        <time>2011-12-18T09:46:51.000Z</time>
      </trkpt>
      <trkpt lat="48.89992" lon="1.90332">
        <ele>143.39999389648</ele>
        <time>2011-12-18T09:46:58.000Z</time>
      </trkpt>
      <trkpt lat="48.89981" lon="1.90315">
        <ele>141.80000305176</ele>
        <time>2011-12-18T09:47:08.000Z</time>
      </trkpt>
      <trkpt lat="48.89974" lon="1.90302">
        <ele>140.80000305176</ele>
        <time>2011-12-18T09:47:15.000Z</time>
      </trkpt>
      <trkpt lat="48.89968" lon="1.90288">
        <ele>140</ele>
        <time>2011-12-18T09:47:22.000Z</time>
      </trkpt>
      <trkpt lat="48.89961" lon="1.90265">
        <ele>138.60000610352</ele>
        <time>2011-12-18T09:47:32.000Z</time>
      </trkpt>
      <trkpt lat="48.8996" lon="1.90257">
        <ele>138.39999389648</ele>
        <time>2011-12-18T09:47:35.000Z</time>
      </trkpt>
      <trkpt lat="48.89955" lon="1.90237">
        <ele>137.19999694824</ele>
        <time>2011-12-18T09:47:42.000Z</time>
      </trkpt>
      <trkpt lat="48.89954" lon="1.9023">
        <ele>136.60000610352</ele>
        <time>2011-12-18T09:47:45.000Z</time>
      </trkpt>
      <trkpt lat="48.89952" lon="1.90214">
        <ele>135.60000610352</ele>
        <time>2011-12-18T09:47:52.000Z</time>
      </trkpt>
      <trkpt lat="48.8995" lon="1.90195">
        <ele>134.39999389648</ele>
        <time>2011-12-18T09:47:59.000Z</time>
      </trkpt>
      <trkpt lat="48.89948" lon="1.90177">
        <ele>133.39999389648</ele>
        <time>2011-12-18T09:48:06.000Z</time>
      </trkpt>
      <trkpt lat="48.89946" lon="1.9016">
        <ele>132.39999389648</ele>
        <time>2011-12-18T09:48:12.000Z</time>
      </trkpt>
      <trkpt lat="48.89943" lon="1.90147">
        <ele>131.80000305176</ele>
        <time>2011-12-18T09:48:17.000Z</time>
      </trkpt>
      <trkpt lat="48.89937" lon="1.90128">
        <ele>131</ele>
        <time>2011-12-18T09:48:24.000Z</time>
      </trkpt>
      <trkpt lat="48.89931" lon="1.90113">
        <ele>130.39999389648</ele>
        <time>2011-12-18T09:48:30.000Z</time>
      </trkpt>
      <trkpt lat="48.89925" lon="1.90102">
        <ele>129.80000305176</ele>
        <time>2011-12-18T09:48:35.000Z</time>
      </trkpt>
      <trkpt lat="48.89916" lon="1.90093">
        <ele>129.19999694824</ele>
        <time>2011-12-18T09:48:41.000Z</time>
      </trkpt>
      <trkpt lat="48.8991" lon="1.90082">
        <ele>128.39999389648</ele>
        <time>2011-12-18T09:48:46.000Z</time>
      </trkpt>
      <trkpt lat="48.89914" lon="1.90068">
        <ele>127.80000305176</ele>
        <time>2011-12-18T09:48:52.000Z</time>
      </trkpt>
      <trkpt lat="48.8992" lon="1.9005">
        <ele>126.59999847412</ele>
        <time>2011-12-18T09:48:59.000Z</time>
      </trkpt>
      <trkpt lat="48.89922" lon="1.90046">
        <ele>126.40000152588</ele>
        <time>2011-12-18T09:49:01.000Z</time>
      </trkpt>
      <trkpt lat="48.89928" lon="1.90039">
        <ele>125.80000305176</ele>
        <time>2011-12-18T09:49:05.000Z</time>
      </trkpt>
      <trkpt lat="48.8994" lon="1.90029">
        <ele>125.19999694824</ele>
        <time>2011-12-18T09:49:13.000Z</time>
      </trkpt>
      <trkpt lat="48.89954" lon="1.90016">
        <ele>124.19999694824</ele>
        <time>2011-12-18T09:49:21.000Z</time>
      </trkpt>
      <trkpt lat="48.89966" lon="1.90006">
        <ele>123.40000152588</ele>
        <time>2011-12-18T09:49:29.000Z</time>
      </trkpt>
      <trkpt lat="48.89983" lon="1.89988">
        <ele>122.19999694824</ele>
        <time>2011-12-18T09:49:41.000Z</time>
      </trkpt>
      <trkpt lat="48.89995" lon="1.89974">
        <ele>121.40000152588</ele>
        <time>2011-12-18T09:49:49.000Z</time>
      </trkpt>
      <trkpt lat="48.90006" lon="1.89964">
        <ele>121</ele>
        <time>2011-12-18T09:49:57.000Z</time>
      </trkpt>
      <trkpt lat="48.9002" lon="1.89951">
        <ele>121</ele>
        <time>2011-12-18T09:50:06.000Z</time>
      </trkpt>
      <trkpt lat="48.90021" lon="1.8995">
        <ele>121</ele>
        <time>2011-12-18T09:50:07.000Z</time>
      </trkpt>
      <trkpt lat="48.90027" lon="1.89942">
        <ele>120.80000305176</ele>
        <time>2011-12-18T09:50:11.000Z</time>
      </trkpt>
      <trkpt lat="48.90038" lon="1.89925">
        <ele>120.59999847412</ele>
        <time>2011-12-18T09:50:20.000Z</time>
      </trkpt>
      <trkpt lat="48.90046" lon="1.89914">
        <ele>120.59999847412</ele>
        <time>2011-12-18T09:50:26.000Z</time>
      </trkpt>
      <trkpt lat="48.90052" lon="1.89905">
        <ele>120.80000305176</ele>
        <time>2011-12-18T09:50:31.000Z</time>
      </trkpt>
      <trkpt lat="48.9006" lon="1.89899">
        <ele>121</ele>
        <time>2011-12-18T09:50:37.000Z</time>
      </trkpt>
      <trkpt lat="48.90066" lon="1.89896">
        <ele>121.19999694824</ele>
        <time>2011-12-18T09:50:41.000Z</time>
      </trkpt>
      <trkpt lat="48.90072" lon="1.89882">
        <ele>121</ele>
        <time>2011-12-18T09:50:48.000Z</time>
      </trkpt>
      <trkpt lat="48.90072" lon="1.8988">
        <ele>121</ele>
        <time>2011-12-18T09:50:49.000Z</time>
      </trkpt>
      <trkpt lat="48.9008" lon="1.89868">
        <ele>121</ele>
        <time>2011-12-18T09:50:56.000Z</time>
      </trkpt>
      <trkpt lat="48.90085" lon="1.89858">
        <ele>121</ele>
        <time>2011-12-18T09:51:01.000Z</time>
      </trkpt>
      <trkpt lat="48.90089" lon="1.89851">
        <ele>120.80000305176</ele>
        <time>2011-12-18T09:51:05.000Z</time>
      </trkpt>
      <trkpt lat="48.90098" lon="1.89827">
        <ele>120.40000152588</ele>
        <time>2011-12-18T09:51:16.000Z</time>
      </trkpt>
      <trkpt lat="48.90107" lon="1.89809">
        <ele>120.80000305176</ele>
        <time>2011-12-18T09:51:25.000Z</time>
      </trkpt>
      <trkpt lat="48.90114" lon="1.89796">
        <ele>121</ele>
        <time>2011-12-18T09:51:30.000Z</time>
      </trkpt>
      <trkpt lat="48.90133" lon="1.89767">
        <ele>122</ele>
        <time>2011-12-18T09:51:37.000Z</time>
      </trkpt>
      <trkpt lat="48.90147" lon="1.89743">
        <ele>122.80000305176</ele>
        <time>2011-12-18T09:51:43.000Z</time>
      </trkpt>
      <trkpt lat="48.90161" lon="1.89721">
        <ele>123.59999847412</ele>
        <time>2011-12-18T09:51:49.000Z</time>
      </trkpt>
      <trkpt lat="48.90176" lon="1.89691">
        <ele>124.40000152588</ele>
        <time>2011-12-18T09:51:56.000Z</time>
      </trkpt>
      <trkpt lat="48.90194" lon="1.89657">
        <ele>125.80000305176</ele>
        <time>2011-12-18T09:52:04.000Z</time>
      </trkpt>
      <trkpt lat="48.9021" lon="1.89625">
        <ele>127.80000305176</ele>
        <time>2011-12-18T09:52:11.000Z</time>
      </trkpt>
      <trkpt lat="48.90229" lon="1.89588">
        <ele>130.39999389648</ele>
        <time>2011-12-18T09:52:19.000Z</time>
      </trkpt>
      <trkpt lat="48.90238" lon="1.89569">
        <ele>131.19999694824</ele>
        <time>2011-12-18T09:52:24.000Z</time>
      </trkpt>
      <trkpt lat="48.90252" lon="1.89544">
        <ele>132.60000610352</ele>
        <time>2011-12-18T09:52:31.000Z</time>
      </trkpt>
      <trkpt lat="48.90266" lon="1.89517">
        <ele>134</ele>
        <time>2011-12-18T09:52:38.000Z</time>
      </trkpt>
      <trkpt lat="48.90273" lon="1.89495">
        <ele>134.19999694824</ele>
        <time>2011-12-18T09:52:44.000Z</time>
      </trkpt>
      <trkpt lat="48.90278" lon="1.89477">
        <ele>133.19999694824</ele>
        <time>2011-12-18T09:52:51.000Z</time>
      </trkpt>
      <trkpt lat="48.90283" lon="1.89463">
        <ele>132.80000305176</ele>
        <time>2011-12-18T09:52:57.000Z</time>
      </trkpt>
      <trkpt lat="48.90287" lon="1.89452">
        <ele>132.19999694824</ele>
        <time>2011-12-18T09:53:03.000Z</time>
      </trkpt>
      <trkpt lat="48.90288" lon="1.89444">
        <ele>131.60000610352</ele>
        <time>2011-12-18T09:53:07.000Z</time>
      </trkpt>
      <trkpt lat="48.90297" lon="1.89425">
        <ele>130.60000610352</ele>
        <time>2011-12-18T09:53:16.000Z</time>
      </trkpt>
      <trkpt lat="48.90306" lon="1.89407">
        <ele>129.60000610352</ele>
        <time>2011-12-18T09:53:25.000Z</time>
      </trkpt>
      <trkpt lat="48.90314" lon="1.89386">
        <ele>128.39999389648</ele>
        <time>2011-12-18T09:53:35.000Z</time>
      </trkpt>
      <trkpt lat="48.90322" lon="1.89366">
        <ele>127.19999694824</ele>
        <time>2011-12-18T09:53:44.000Z</time>
      </trkpt>
      <trkpt lat="48.90329" lon="1.89347">
        <ele>126</ele>
        <time>2011-12-18T09:53:53.000Z</time>
      </trkpt>
      <trkpt lat="48.90335" lon="1.89332">
        <ele>124.80000305176</ele>
        <time>2011-12-18T09:54:01.000Z</time>
      </trkpt>
      <trkpt lat="48.90336" lon="1.8933">
        <ele>124.80000305176</ele>
        <time>2011-12-18T09:54:02.000Z</time>
      </trkpt>
      <trkpt lat="48.9034" lon="1.89322">
        <ele>124.19999694824</ele>
        <time>2011-12-18T09:54:07.000Z</time>
      </trkpt>
      <trkpt lat="48.90344" lon="1.89306">
        <ele>123.19999694824</ele>
        <time>2011-12-18T09:54:15.000Z</time>
      </trkpt>
      <trkpt lat="48.90344" lon="1.89294">
        <ele>122.40000152588</ele>
        <time>2011-12-18T09:54:20.000Z</time>
      </trkpt>
      <trkpt lat="48.90347" lon="1.89282">
        <ele>121.59999847412</ele>
        <time>2011-12-18T09:54:26.000Z</time>
      </trkpt>
      <trkpt lat="48.90349" lon="1.89266">
        <ele>120.80000305176</ele>
        <time>2011-12-18T09:54:32.000Z</time>
      </trkpt>
      <trkpt lat="48.90351" lon="1.89252">
        <ele>120</ele>
        <time>2011-12-18T09:54:37.000Z</time>
      </trkpt>
      <trkpt lat="48.90352" lon="1.8924">
        <ele>118.80000305176</ele>
        <time>2011-12-18T09:54:42.000Z</time>
      </trkpt>
      <trkpt lat="48.90354" lon="1.89226">
        <ele>117.40000152588</ele>
        <time>2011-12-18T09:54:48.000Z</time>
      </trkpt>
      <trkpt lat="48.90355" lon="1.89209">
        <ele>115.80000305176</ele>
        <time>2011-12-18T09:54:54.000Z</time>
      </trkpt>
      <trkpt lat="48.90357" lon="1.89197">
        <ele>114.59999847412</ele>
        <time>2011-12-18T09:54:59.000Z</time>
      </trkpt>
      <trkpt lat="48.90362" lon="1.89181">
        <ele>113.40000152588</ele>
        <time>2011-12-18T09:55:05.000Z</time>
      </trkpt>
      <trkpt lat="48.90368" lon="1.89161">
        <ele>112</ele>
        <time>2011-12-18T09:55:13.000Z</time>
      </trkpt>
      <trkpt lat="48.90373" lon="1.89141">
        <ele>111.40000152588</ele>
        <time>2011-12-18T09:55:21.000Z</time>
      </trkpt>
      <trkpt lat="48.90379" lon="1.89124">
        <ele>110.80000305176</ele>
        <time>2011-12-18T09:55:28.000Z</time>
      </trkpt>
      <trkpt lat="48.90384" lon="1.89109">
        <ele>110.40000152588</ele>
        <time>2011-12-18T09:55:34.000Z</time>
      </trkpt>
      <trkpt lat="48.9039" lon="1.89091">
        <ele>110</ele>
        <time>2011-12-18T09:55:39.000Z</time>
      </trkpt>
      <trkpt lat="48.90397" lon="1.89069">
        <ele>110</ele>
        <time>2011-12-18T09:55:43.000Z</time>
      </trkpt>
      <trkpt lat="48.90405" lon="1.89038">
        <ele>110.40000152588</ele>
        <time>2011-12-18T09:55:48.000Z</time>
      </trkpt>
      <trkpt lat="48.90417" lon="1.88988">
        <ele>111.40000152588</ele>
        <time>2011-12-18T09:55:55.000Z</time>
      </trkpt>
      <trkpt lat="48.90427" lon="1.88943">
        <ele>113.40000152588</ele>
        <time>2011-12-18T09:56:01.000Z</time>
      </trkpt>
      <trkpt lat="48.90435" lon="1.88902">
        <ele>115.19999694824</ele>
        <time>2011-12-18T09:56:07.000Z</time>
      </trkpt>
      <trkpt lat="48.90442" lon="1.8887">
        <ele>116.40000152588</ele>
        <time>2011-12-18T09:56:13.000Z</time>
      </trkpt>
      <trkpt lat="48.90446" lon="1.88855">
        <ele>117.19999694824</ele>
        <time>2011-12-18T09:56:18.000Z</time>
      </trkpt>
      <trkpt lat="48.90449" lon="1.88844">
        <ele>117.59999847412</ele>
        <time>2011-12-18T09:56:23.000Z</time>
      </trkpt>
      <trkpt lat="48.90455" lon="1.88827">
        <ele>118.40000152588</ele>
        <time>2011-12-18T09:56:31.000Z</time>
      </trkpt>
      <trkpt lat="48.9046" lon="1.88815">
        <ele>119.19999694824</ele>
        <time>2011-12-18T09:56:37.000Z</time>
      </trkpt>
      <trkpt lat="48.90466" lon="1.88802">
        <ele>120</ele>
        <time>2011-12-18T09:56:44.000Z</time>
      </trkpt>
      <trkpt lat="48.90468" lon="1.88796">
        <ele>120.19999694824</ele>
        <time>2011-12-18T09:56:47.000Z</time>
      </trkpt>
      <trkpt lat="48.90474" lon="1.88783">
        <ele>121</ele>
        <time>2011-12-18T09:56:54.000Z</time>
      </trkpt>
      <trkpt lat="48.90481" lon="1.8877">
        <ele>122</ele>
        <time>2011-12-18T09:57:01.000Z</time>
      </trkpt>
      <trkpt lat="48.9049" lon="1.88754">
        <ele>123.19999694824</ele>
        <time>2011-12-18T09:57:10.000Z</time>
      </trkpt>
      <trkpt lat="48.90498" lon="1.88742">
        <ele>123.80000305176</ele>
        <time>2011-12-18T09:57:18.000Z</time>
      </trkpt>
      <trkpt lat="48.90504" lon="1.88738">
        <ele>124</ele>
        <time>2011-12-18T09:57:23.000Z</time>
      </trkpt>
      <trkpt lat="48.90505" lon="1.88727">
        <ele>124</ele>
        <time>2011-12-18T09:57:29.000Z</time>
      </trkpt>
      <trkpt lat="48.90496" lon="1.88703">
        <ele>123.19999694824</ele>
        <time>2011-12-18T09:57:40.000Z</time>
      </trkpt>
      <trkpt lat="48.90484" lon="1.88693">
        <ele>122.40000152588</ele>
        <time>2011-12-18T09:57:48.000Z</time>
      </trkpt>
      <trkpt lat="48.90471" lon="1.88684">
        <ele>121.40000152588</ele>
        <time>2011-12-18T09:57:57.000Z</time>
      </trkpt>
      <trkpt lat="48.90458" lon="1.88677">
        <ele>120.59999847412</ele>
        <time>2011-12-18T09:58:05.000Z</time>
      </trkpt>
      <trkpt lat="48.90441" lon="1.88671">
        <ele>119.40000152588</ele>
        <time>2011-12-18T09:58:15.000Z</time>
      </trkpt>
      <trkpt lat="48.90427" lon="1.88666">
        <ele>118.59999847412</ele>
        <time>2011-12-18T09:58:24.000Z</time>
      </trkpt>
      <trkpt lat="48.90411" lon="1.8866">
        <ele>117.40000152588</ele>
        <time>2011-12-18T09:58:34.000Z</time>
      </trkpt>
      <trkpt lat="48.90398" lon="1.88653">
        <ele>116.59999847412</ele>
        <time>2011-12-18T09:58:42.000Z</time>
      </trkpt>
      <trkpt lat="48.90384" lon="1.88643">
        <ele>115.59999847412</ele>
        <time>2011-12-18T09:58:51.000Z</time>
      </trkpt>
      <trkpt lat="48.90375" lon="1.88636">
        <ele>115</ele>
        <time>2011-12-18T09:58:58.000Z</time>
      </trkpt>
      <trkpt lat="48.90366" lon="1.88627">
        <ele>114.40000152588</ele>
        <time>2011-12-18T09:59:06.000Z</time>
      </trkpt>
      <trkpt lat="48.90355" lon="1.88619">
        <ele>113.80000305176</ele>
        <time>2011-12-18T09:59:16.000Z</time>
      </trkpt>
      <trkpt lat="48.90353" lon="1.88617">
        <ele>113.80000305176</ele>
        <time>2011-12-18T09:59:20.000Z</time>
      </trkpt>
      <trkpt lat="48.90347" lon="1.88612">
        <ele>113.40000152588</ele>
        <time>2011-12-18T09:59:43.000Z</time>
      </trkpt>
      <trkpt lat="48.90341" lon="1.88609">
        <ele>113.19999694824</ele>
        <time>2011-12-18T09:59:47.000Z</time>
      </trkpt>
      <trkpt lat="48.9034" lon="1.88608">
        <ele>113</ele>
        <time>2011-12-18T09:59:51.000Z</time>
      </trkpt>
      <trkpt lat="48.90337" lon="1.88604">
        <ele>113</ele>
        <time>2011-12-18T09:59:57.000Z</time>
      </trkpt>
      <trkpt lat="48.90332" lon="1.88599">
        <ele>112.80000305176</ele>
        <time>2011-12-18T10:00:01.000Z</time>
      </trkpt>
      <trkpt lat="48.90332" lon="1.88599">
        <ele>112.80000305176</ele>
        <time>2011-12-18T10:00:02.000Z</time>
      </trkpt>
      <trkpt lat="48.90323" lon="1.88596">
        <ele>112.19999694824</ele>
        <time>2011-12-18T10:05:31.000Z</time>
      </trkpt>
      <trkpt lat="48.90307" lon="1.88585">
        <ele>111.40000152588</ele>
        <time>2011-12-18T10:05:39.000Z</time>
      </trkpt>
      <trkpt lat="48.90295" lon="1.88576">
        <ele>110.59999847412</ele>
        <time>2011-12-18T10:05:46.000Z</time>
      </trkpt>
      <trkpt lat="48.90285" lon="1.88568">
        <ele>110</ele>
        <time>2011-12-18T10:05:52.000Z</time>
      </trkpt>
      <trkpt lat="48.90273" lon="1.88559">
        <ele>109.40000152588</ele>
        <time>2011-12-18T10:05:59.000Z</time>
      </trkpt>
      <trkpt lat="48.90259" lon="1.88548">
        <ele>108.40000152588</ele>
        <time>2011-12-18T10:06:08.000Z</time>
      </trkpt>
      <trkpt lat="48.90246" lon="1.88538">
        <ele>107.80000305176</ele>
        <time>2011-12-18T10:06:16.000Z</time>
      </trkpt>
      <trkpt lat="48.90235" lon="1.88529">
        <ele>107.19999694824</ele>
        <time>2011-12-18T10:06:23.000Z</time>
      </trkpt>
      <trkpt lat="48.90233" lon="1.88528">
        <ele>107.19999694824</ele>
        <time>2011-12-18T10:06:24.000Z</time>
      </trkpt>
      <trkpt lat="48.90223" lon="1.88522">
        <ele>106.59999847412</ele>
        <time>2011-12-18T10:06:31.000Z</time>
      </trkpt>
      <trkpt lat="48.90215" lon="1.88515">
        <ele>106.19999694824</ele>
        <time>2011-12-18T10:06:36.000Z</time>
      </trkpt>
      <trkpt lat="48.90201" lon="1.88503">
        <ele>105.59999847412</ele>
        <time>2011-12-18T10:06:45.000Z</time>
      </trkpt>
      <trkpt lat="48.90189" lon="1.88493">
        <ele>105.19999694824</ele>
        <time>2011-12-18T10:06:53.000Z</time>
      </trkpt>
      <trkpt lat="48.90178" lon="1.88483">
        <ele>104.80000305176</ele>
        <time>2011-12-18T10:07:00.000Z</time>
      </trkpt>
      <trkpt lat="48.90168" lon="1.88474">
        <ele>104.59999847412</ele>
        <time>2011-12-18T10:07:06.000Z</time>
      </trkpt>
      <trkpt lat="48.90152" lon="1.88458">
        <ele>104</ele>
        <time>2011-12-18T10:07:17.000Z</time>
      </trkpt>
      <trkpt lat="48.90138" lon="1.8844">
        <ele>103.40000152588</ele>
        <time>2011-12-18T10:07:28.000Z</time>
      </trkpt>
      <trkpt lat="48.90131" lon="1.88431">
        <ele>103.19999694824</ele>
        <time>2011-12-18T10:07:33.000Z</time>
      </trkpt>
      <trkpt lat="48.90124" lon="1.8842">
        <ele>102.80000305176</ele>
        <time>2011-12-18T10:07:38.000Z</time>
      </trkpt>
      <trkpt lat="48.90119" lon="1.8841">
        <ele>102.59999847412</ele>
        <time>2011-12-18T10:07:43.000Z</time>
      </trkpt>
      <trkpt lat="48.90112" lon="1.88397">
        <ele>102.40000152588</ele>
        <time>2011-12-18T10:07:49.000Z</time>
      </trkpt>
      <trkpt lat="48.901" lon="1.88381">
        <ele>102</ele>
        <time>2011-12-18T10:07:58.000Z</time>
      </trkpt>
      <trkpt lat="48.90088" lon="1.88362">
        <ele>101.59999847412</ele>
        <time>2011-12-18T10:08:08.000Z</time>
      </trkpt>
      <trkpt lat="48.9008" lon="1.88349">
        <ele>101.19999694824</ele>
        <time>2011-12-18T10:08:15.000Z</time>
      </trkpt>
      <trkpt lat="48.9007" lon="1.88331">
        <ele>100.19999694824</ele>
        <time>2011-12-18T10:08:24.000Z</time>
      </trkpt>
      <trkpt lat="48.90063" lon="1.88317">
        <ele>99.400001525879</ele>
        <time>2011-12-18T10:08:30.000Z</time>
      </trkpt>
      <trkpt lat="48.90054" lon="1.88299">
        <ele>98.800003051758</ele>
        <time>2011-12-18T10:08:38.000Z</time>
      </trkpt>
      <trkpt lat="48.90044" lon="1.88278">
        <ele>98</ele>
        <time>2011-12-18T10:08:48.000Z</time>
      </trkpt>
      <trkpt lat="48.90033" lon="1.88256">
        <ele>97.199996948242</ele>
        <time>2011-12-18T10:08:58.000Z</time>
      </trkpt>
      <trkpt lat="48.90021" lon="1.88231">
        <ele>96.599998474121</ele>
        <time>2011-12-18T10:09:09.000Z</time>
      </trkpt>
      <trkpt lat="48.9001" lon="1.8821">
        <ele>96</ele>
        <time>2011-12-18T10:09:19.000Z</time>
      </trkpt>
      <trkpt lat="48.89999" lon="1.88196">
        <ele>95.400001525879</ele>
        <time>2011-12-18T10:09:27.000Z</time>
      </trkpt>
      <trkpt lat="48.89986" lon="1.8818">
        <ele>94.400001525879</ele>
        <time>2011-12-18T10:09:36.000Z</time>
      </trkpt>
      <trkpt lat="48.89972" lon="1.8816">
        <ele>93.199996948242</ele>
        <time>2011-12-18T10:09:47.000Z</time>
      </trkpt>
      <trkpt lat="48.89959" lon="1.88141">
        <ele>92.199996948242</ele>
        <time>2011-12-18T10:09:57.000Z</time>
      </trkpt>
      <trkpt lat="48.89945" lon="1.8812">
        <ele>90.800003051758</ele>
        <time>2011-12-18T10:10:08.000Z</time>
      </trkpt>
      <trkpt lat="48.89938" lon="1.8811">
        <ele>90.199996948242</ele>
        <time>2011-12-18T10:10:13.000Z</time>
      </trkpt>
      <trkpt lat="48.89929" lon="1.88095">
        <ele>89.599998474121</ele>
        <time>2011-12-18T10:10:20.000Z</time>
      </trkpt>
      <trkpt lat="48.89921" lon="1.88081">
        <ele>88.800003051758</ele>
        <time>2011-12-18T10:10:27.000Z</time>
      </trkpt>
      <trkpt lat="48.89914" lon="1.88069">
        <ele>88.800003051758</ele>
        <time>2011-12-18T10:10:33.000Z</time>
      </trkpt>
      <trkpt lat="48.89905" lon="1.88051">
        <ele>89</ele>
        <time>2011-12-18T10:10:41.000Z</time>
      </trkpt>
      <trkpt lat="48.89895" lon="1.88031">
        <ele>89.199996948242</ele>
        <time>2011-12-18T10:10:50.000Z</time>
      </trkpt>
      <trkpt lat="48.89885" lon="1.8801">
        <ele>89.599998474121</ele>
        <time>2011-12-18T10:10:59.000Z</time>
      </trkpt>
      <trkpt lat="48.89876" lon="1.8799">
        <ele>90</ele>
        <time>2011-12-18T10:11:08.000Z</time>
      </trkpt>
      <trkpt lat="48.89869" lon="1.87969">
        <ele>90.599998474121</ele>
        <time>2011-12-18T10:11:17.000Z</time>
      </trkpt>
      <trkpt lat="48.89863" lon="1.87949">
        <ele>91.400001525879</ele>
        <time>2011-12-18T10:11:25.000Z</time>
      </trkpt>
      <trkpt lat="48.89857" lon="1.8793">
        <ele>92.199996948242</ele>
        <time>2011-12-18T10:11:33.000Z</time>
      </trkpt>
      <trkpt lat="48.89856" lon="1.87923">
        <ele>92.400001525879</ele>
        <time>2011-12-18T10:11:36.000Z</time>
      </trkpt>
      <trkpt lat="48.89853" lon="1.87915">
        <ele>92.599998474121</ele>
        <time>2011-12-18T10:11:40.000Z</time>
      </trkpt>
      <trkpt lat="48.89843" lon="1.87888">
        <ele>92.599998474121</ele>
        <time>2011-12-18T10:11:51.000Z</time>
      </trkpt>
      <trkpt lat="48.89837" lon="1.87869">
        <ele>92.800003051758</ele>
        <time>2011-12-18T10:11:59.000Z</time>
      </trkpt>
      <trkpt lat="48.8983" lon="1.87849">
        <ele>93</ele>
        <time>2011-12-18T10:12:08.000Z</time>
      </trkpt>
      <trkpt lat="48.89822" lon="1.87821">
        <ele>93.400001525879</ele>
        <time>2011-12-18T10:12:19.000Z</time>
      </trkpt>
      <trkpt lat="48.89816" lon="1.87798">
        <ele>94</ele>
        <time>2011-12-18T10:12:28.000Z</time>
      </trkpt>
      <trkpt lat="48.8981" lon="1.87778">
        <ele>94.199996948242</ele>
        <time>2011-12-18T10:12:36.000Z</time>
      </trkpt>
      <trkpt lat="48.89804" lon="1.8776">
        <ele>94.400001525879</ele>
        <time>2011-12-18T10:12:44.000Z</time>
      </trkpt>
      <trkpt lat="48.89795" lon="1.87734">
        <ele>93.800003051758</ele>
        <time>2011-12-18T10:12:55.000Z</time>
      </trkpt>
      <trkpt lat="48.89785" lon="1.87705">
        <ele>92.400001525879</ele>
        <time>2011-12-18T10:13:07.000Z</time>
      </trkpt>
      <trkpt lat="48.89779" lon="1.87683">
        <ele>91.800003051758</ele>
        <time>2011-12-18T10:13:16.000Z</time>
      </trkpt>
      <trkpt lat="48.89775" lon="1.87661">
        <ele>91.400001525879</ele>
        <time>2011-12-18T10:13:24.000Z</time>
      </trkpt>
      <trkpt lat="48.89772" lon="1.87634">
        <ele>91.599998474121</ele>
        <time>2011-12-18T10:13:34.000Z</time>
      </trkpt>
      <trkpt lat="48.89767" lon="1.8761">
        <ele>91.400001525879</ele>
        <time>2011-12-18T10:13:43.000Z</time>
      </trkpt>
      <trkpt lat="48.89761" lon="1.87585">
        <ele>91.400001525879</ele>
        <time>2011-12-18T10:13:52.000Z</time>
      </trkpt>
      <trkpt lat="48.89758" lon="1.87563">
        <ele>91.199996948242</ele>
        <time>2011-12-18T10:14:00.000Z</time>
      </trkpt>
      <trkpt lat="48.89754" lon="1.87542">
        <ele>91</ele>
        <time>2011-12-18T10:14:08.000Z</time>
      </trkpt>
      <trkpt lat="48.8975" lon="1.87518">
        <ele>90.800003051758</ele>
        <time>2011-12-18T10:14:17.000Z</time>
      </trkpt>
      <trkpt lat="48.89747" lon="1.87499">
        <ele>90.199996948242</ele>
        <time>2011-12-18T10:14:24.000Z</time>
      </trkpt>
      <trkpt lat="48.89742" lon="1.87481">
        <ele>89</ele>
        <time>2011-12-18T10:14:31.000Z</time>
      </trkpt>
      <trkpt lat="48.89737" lon="1.8747">
        <ele>87.800003051758</ele>
        <time>2011-12-18T10:14:36.000Z</time>
      </trkpt>
      <trkpt lat="48.89736" lon="1.87469">
        <ele>87.400001525879</ele>
        <time>2011-12-18T10:14:37.000Z</time>
      </trkpt>
      <trkpt lat="48.8973" lon="1.87455">
        <ele>86.199996948242</ele>
        <time>2011-12-18T10:14:45.000Z</time>
      </trkpt>
      <trkpt lat="48.89724" lon="1.87437">
        <ele>85</ele>
        <time>2011-12-18T10:14:53.000Z</time>
      </trkpt>
      <trkpt lat="48.89722" lon="1.87422">
        <ele>84.599998474121</ele>
        <time>2011-12-18T10:14:59.000Z</time>
      </trkpt>
      <trkpt lat="48.89723" lon="1.8741">
        <ele>85</ele>
        <time>2011-12-18T10:15:05.000Z</time>
      </trkpt>
      <trkpt lat="48.89722" lon="1.87404">
        <ele>84.800003051758</ele>
        <time>2011-12-18T10:15:09.000Z</time>
      </trkpt>
      <trkpt lat="48.89715" lon="1.87388">
        <ele>83.599998474121</ele>
        <time>2011-12-18T10:15:18.000Z</time>
      </trkpt>
      <trkpt lat="48.89705" lon="1.87363">
        <ele>82</ele>
        <time>2011-12-18T10:15:30.000Z</time>
      </trkpt>
      <trkpt lat="48.89701" lon="1.87347">
        <ele>81.400001525879</ele>
        <time>2011-12-18T10:15:37.000Z</time>
      </trkpt>
      <trkpt lat="48.89696" lon="1.87328">
        <ele>80.400001525879</ele>
        <time>2011-12-18T10:15:46.000Z</time>
      </trkpt>
      <trkpt lat="48.89692" lon="1.87311">
        <ele>79</ele>
        <time>2011-12-18T10:15:54.000Z</time>
      </trkpt>
      <trkpt lat="48.89688" lon="1.87295">
        <ele>77.800003051758</ele>
        <time>2011-12-18T10:16:01.000Z</time>
      </trkpt>
      <trkpt lat="48.89683" lon="1.87276">
        <ele>76</ele>
        <time>2011-12-18T10:16:09.000Z</time>
      </trkpt>
      <trkpt lat="48.89679" lon="1.87257">
        <ele>74.599998474121</ele>
        <time>2011-12-18T10:16:17.000Z</time>
      </trkpt>
      <trkpt lat="48.89676" lon="1.87235">
        <ele>72.800003051758</ele>
        <time>2011-12-18T10:16:26.000Z</time>
      </trkpt>
      <trkpt lat="48.89669" lon="1.8721">
        <ele>70</ele>
        <time>2011-12-18T10:16:36.000Z</time>
      </trkpt>
      <trkpt lat="48.89664" lon="1.87191">
        <ele>67.800003051758</ele>
        <time>2011-12-18T10:16:44.000Z</time>
      </trkpt>
      <trkpt lat="48.89653" lon="1.87172">
        <ele>64.800003051758</ele>
        <time>2011-12-18T10:16:54.000Z</time>
      </trkpt>
      <trkpt lat="48.89642" lon="1.87156">
        <ele>62</ele>
        <time>2011-12-18T10:17:03.000Z</time>
      </trkpt>
      <trkpt lat="48.89631" lon="1.87139">
        <ele>59</ele>
        <time>2011-12-18T10:17:13.000Z</time>
      </trkpt>
      <trkpt lat="48.89621" lon="1.87124">
        <ele>56.799999237061</ele>
        <time>2011-12-18T10:17:21.000Z</time>
      </trkpt>
      <trkpt lat="48.8961" lon="1.87107">
        <ele>54.599998474121</ele>
        <time>2011-12-18T10:17:31.000Z</time>
      </trkpt>
      <trkpt lat="48.89596" lon="1.87088">
        <ele>52.400001525879</ele>
        <time>2011-12-18T10:17:43.000Z</time>
      </trkpt>
      <trkpt lat="48.89592" lon="1.87081">
        <ele>51.799999237061</ele>
        <time>2011-12-18T10:17:47.000Z</time>
      </trkpt>
      <trkpt lat="48.89586" lon="1.87076">
        <ele>51.200000762939</ele>
        <time>2011-12-18T10:17:51.000Z</time>
      </trkpt>
      <trkpt lat="48.89575" lon="1.87068">
        <ele>50.200000762939</ele>
        <time>2011-12-18T10:17:58.000Z</time>
      </trkpt>
      <trkpt lat="48.89564" lon="1.8707">
        <ele>49.599998474121</ele>
        <time>2011-12-18T10:18:04.000Z</time>
      </trkpt>
      <trkpt lat="48.89557" lon="1.87074">
        <ele>49</ele>
        <time>2011-12-18T10:18:09.000Z</time>
      </trkpt>
      <trkpt lat="48.89541" lon="1.87086">
        <ele>48</ele>
        <time>2011-12-18T10:18:19.000Z</time>
      </trkpt>
      <trkpt lat="48.89535" lon="1.87091">
        <ele>47.400001525879</ele>
        <time>2011-12-18T10:18:24.000Z</time>
      </trkpt>
      <trkpt lat="48.89528" lon="1.87098">
        <ele>46.799999237061</ele>
        <time>2011-12-18T10:18:28.000Z</time>
      </trkpt>
      <trkpt lat="48.89521" lon="1.87101">
        <ele>46.200000762939</ele>
        <time>2011-12-18T10:18:33.000Z</time>
      </trkpt>
      <trkpt lat="48.89517" lon="1.87102">
        <ele>45.799999237061</ele>
        <time>2011-12-18T10:18:36.000Z</time>
      </trkpt>
      <trkpt lat="48.89511" lon="1.87108">
        <ele>45.400001525879</ele>
        <time>2011-12-18T10:18:41.000Z</time>
      </trkpt>
      <trkpt lat="48.89509" lon="1.87107">
        <ele>45.200000762939</ele>
        <time>2011-12-18T10:18:48.000Z</time>
      </trkpt>
      <trkpt lat="48.89508" lon="1.87098">
        <ele>45.200000762939</ele>
        <time>2011-12-18T10:18:52.000Z</time>
      </trkpt>
      <trkpt lat="48.89507" lon="1.87087">
        <ele>45.400001525879</ele>
        <time>2011-12-18T10:18:57.000Z</time>
      </trkpt>
      <trkpt lat="48.89506" lon="1.87076">
        <ele>45.400001525879</ele>
        <time>2011-12-18T10:19:01.000Z</time>
      </trkpt>
      <trkpt lat="48.89507" lon="1.87061">
        <ele>45.599998474121</ele>
        <time>2011-12-18T10:19:08.000Z</time>
      </trkpt>
      <trkpt lat="48.89507" lon="1.87046">
        <ele>45.400001525879</ele>
        <time>2011-12-18T10:19:14.000Z</time>
      </trkpt>
      <trkpt lat="48.89504" lon="1.87022">
        <ele>45.200000762939</ele>
        <time>2011-12-18T10:19:24.000Z</time>
      </trkpt>
      <trkpt lat="48.89504" lon="1.87006">
        <ele>45.200000762939</ele>
        <time>2011-12-18T10:19:31.000Z</time>
      </trkpt>
      <trkpt lat="48.89504" lon="1.86989">
        <ele>44.799999237061</ele>
        <time>2011-12-18T10:19:38.000Z</time>
      </trkpt>
      <trkpt lat="48.89511" lon="1.86978">
        <ele>44.799999237061</ele>
        <time>2011-12-18T10:19:44.000Z</time>
      </trkpt>
      <trkpt lat="48.89515" lon="1.86962">
        <ele>44.400001525879</ele>
        <time>2011-12-18T10:19:52.000Z</time>
      </trkpt>
      <trkpt lat="48.89508" lon="1.86945">
        <ele>43.400001525879</ele>
        <time>2011-12-18T10:20:00.000Z</time>
      </trkpt>
      <trkpt lat="48.89506" lon="1.86926">
        <ele>42.599998474121</ele>
        <time>2011-12-18T10:20:08.000Z</time>
      </trkpt>
      <trkpt lat="48.89503" lon="1.86906">
        <ele>41.799999237061</ele>
        <time>2011-12-18T10:20:16.000Z</time>
      </trkpt>
      <trkpt lat="48.89502" lon="1.86894">
        <ele>41.599998474121</ele>
        <time>2011-12-18T10:20:20.000Z</time>
      </trkpt>
      <trkpt lat="48.89501" lon="1.8688">
        <ele>41.200000762939</ele>
        <time>2011-12-18T10:20:26.000Z</time>
      </trkpt>
      <trkpt lat="48.89499" lon="1.86868">
        <ele>40.799999237061</ele>
        <time>2011-12-18T10:20:31.000Z</time>
      </trkpt>
      <trkpt lat="48.89497" lon="1.86853">
        <ele>40.400001525879</ele>
        <time>2011-12-18T10:20:37.000Z</time>
      </trkpt>
      <trkpt lat="48.89493" lon="1.86832">
        <ele>40</ele>
        <time>2011-12-18T10:20:45.000Z</time>
      </trkpt>
      <trkpt lat="48.89489" lon="1.86814">
        <ele>40.200000762939</ele>
        <time>2011-12-18T10:20:52.000Z</time>
      </trkpt>
      <trkpt lat="48.89486" lon="1.86804">
        <ele>40.200000762939</ele>
        <time>2011-12-18T10:20:56.000Z</time>
      </trkpt>
      <trkpt lat="48.8948" lon="1.86784">
        <ele>40.200000762939</ele>
        <time>2011-12-18T10:21:04.000Z</time>
      </trkpt>
      <trkpt lat="48.89474" lon="1.86764">
        <ele>40</ele>
        <time>2011-12-18T10:21:12.000Z</time>
      </trkpt>
      <trkpt lat="48.8947" lon="1.86752">
        <ele>40</ele>
        <time>2011-12-18T10:21:18.000Z</time>
      </trkpt>
      <trkpt lat="48.89464" lon="1.86736">
        <ele>39.400001525879</ele>
        <time>2011-12-18T10:21:25.000Z</time>
      </trkpt>
      <trkpt lat="48.89459" lon="1.86719">
        <ele>39</ele>
        <time>2011-12-18T10:21:32.000Z</time>
      </trkpt>
      <trkpt lat="48.89457" lon="1.86709">
        <ele>38.799999237061</ele>
        <time>2011-12-18T10:21:36.000Z</time>
      </trkpt>
      <trkpt lat="48.89455" lon="1.86698">
        <ele>38.599998474121</ele>
        <time>2011-12-18T10:21:40.000Z</time>
      </trkpt>
      <trkpt lat="48.89448" lon="1.8668">
        <ele>38.200000762939</ele>
        <time>2011-12-18T10:21:48.000Z</time>
      </trkpt>
      <trkpt lat="48.89443" lon="1.86666">
        <ele>38</ele>
        <time>2011-12-18T10:21:54.000Z</time>
      </trkpt>
      <trkpt lat="48.89436" lon="1.86652">
        <ele>38</ele>
        <time>2011-12-18T10:22:01.000Z</time>
      </trkpt>
      <trkpt lat="48.89431" lon="1.86639">
        <ele>38.200000762939</ele>
        <time>2011-12-18T10:22:07.000Z</time>
      </trkpt>
      <trkpt lat="48.89427" lon="1.86624">
        <ele>38.400001525879</ele>
        <time>2011-12-18T10:22:13.000Z</time>
      </trkpt>
      <trkpt lat="48.8942" lon="1.866">
        <ele>38.799999237061</ele>
        <time>2011-12-18T10:22:20.000Z</time>
      </trkpt>
      <trkpt lat="48.89415" lon="1.86584">
        <ele>39</ele>
        <time>2011-12-18T10:22:27.000Z</time>
      </trkpt>
      <trkpt lat="48.89412" lon="1.86568">
        <ele>38.799999237061</ele>
        <time>2011-12-18T10:22:34.000Z</time>
      </trkpt>
      <trkpt lat="48.89408" lon="1.86549">
        <ele>38.599998474121</ele>
        <time>2011-12-18T10:22:42.000Z</time>
      </trkpt>
      <trkpt lat="48.89405" lon="1.86536">
        <ele>38.599998474121</ele>
        <time>2011-12-18T10:22:48.000Z</time>
      </trkpt>
      <trkpt lat="48.89402" lon="1.86522">
        <ele>38.599998474121</ele>
        <time>2011-12-18T10:22:54.000Z</time>
      </trkpt>
      <trkpt lat="48.89401" lon="1.86518">
        <ele>38.599998474121</ele>
        <time>2011-12-18T10:22:56.000Z</time>
      </trkpt>
      <trkpt lat="48.894" lon="1.86513">
        <ele>38.599998474121</ele>
        <time>2011-12-18T10:23:01.000Z</time>
      </trkpt>
      <trkpt lat="48.89402" lon="1.8652">
        <ele>38.599998474121</ele>
        <time>2011-12-18T10:23:09.000Z</time>
      </trkpt>
      <trkpt lat="48.89403" lon="1.86533">
        <ele>38.599998474121</ele>
        <time>2011-12-18T10:23:13.000Z</time>
      </trkpt>
      <trkpt lat="48.89399" lon="1.86541">
        <ele>38.799999237061</ele>
        <time>2011-12-18T10:23:17.000Z</time>
      </trkpt>
      <trkpt lat="48.89385" lon="1.86553">
        <ele>38.799999237061</ele>
        <time>2011-12-18T10:23:24.000Z</time>
      </trkpt>
      <trkpt lat="48.89376" lon="1.86558">
        <ele>38.799999237061</ele>
        <time>2011-12-18T10:23:30.000Z</time>
      </trkpt>
      <trkpt lat="48.89374" lon="1.86558">
        <ele>38.799999237061</ele>
        <time>2011-12-18T10:23:32.000Z</time>
      </trkpt>
      <trkpt lat="48.89366" lon="1.86541">
        <ele>39.200000762939</ele>
        <time>2011-12-18T10:23:41.000Z</time>
      </trkpt>
      <trkpt lat="48.89356" lon="1.86517">
        <ele>39.799999237061</ele>
        <time>2011-12-18T10:23:52.000Z</time>
      </trkpt>
      <trkpt lat="48.89346" lon="1.86505">
        <ele>40.400001525879</ele>
        <time>2011-12-18T10:24:00.000Z</time>
      </trkpt>
      <trkpt lat="48.89344" lon="1.8649">
        <ele>41.200000762939</ele>
        <time>2011-12-18T10:24:07.000Z</time>
      </trkpt>
      <trkpt lat="48.89342" lon="1.86471">
        <ele>42.400001525879</ele>
        <time>2011-12-18T10:24:15.000Z</time>
      </trkpt>
      <trkpt lat="48.89343" lon="1.86469">
        <ele>42.599998474121</ele>
        <time>2011-12-18T10:24:16.000Z</time>
      </trkpt>
      <trkpt lat="48.89354" lon="1.86461">
        <ele>42.599998474121</ele>
        <time>2011-12-18T10:24:23.000Z</time>
      </trkpt>
      <trkpt lat="48.8937" lon="1.86452">
        <ele>42.599998474121</ele>
        <time>2011-12-18T10:24:31.000Z</time>
      </trkpt>
      <trkpt lat="48.89372" lon="1.86449">
        <ele>42.599998474121</ele>
        <time>2011-12-18T10:24:33.000Z</time>
      </trkpt>
      <trkpt lat="48.89372" lon="1.86431">
        <ele>43.799999237061</ele>
        <time>2011-12-18T10:24:40.000Z</time>
      </trkpt>
      <trkpt lat="48.89369" lon="1.86416">
        <ele>44.799999237061</ele>
        <time>2011-12-18T10:24:46.000Z</time>
      </trkpt>
      <trkpt lat="48.89363" lon="1.86403">
        <ele>47.400001525879</ele>
        <time>2011-12-18T10:24:54.000Z</time>
      </trkpt>
      <trkpt lat="48.89353" lon="1.86393">
        <ele>49.400001525879</ele>
        <time>2011-12-18T10:25:03.000Z</time>
      </trkpt>
      <trkpt lat="48.89338" lon="1.86387">
        <ele>51.200000762939</ele>
        <time>2011-12-18T10:25:13.000Z</time>
      </trkpt>
      <trkpt lat="48.89327" lon="1.86386">
        <ele>51.799999237061</ele>
        <time>2011-12-18T10:25:21.000Z</time>
      </trkpt>
      <trkpt lat="48.89315" lon="1.86385">
        <ele>52.200000762939</ele>
        <time>2011-12-18T10:25:29.000Z</time>
      </trkpt>
      <trkpt lat="48.89305" lon="1.86384">
        <ele>52.599998474121</ele>
        <time>2011-12-18T10:25:36.000Z</time>
      </trkpt>
      <trkpt lat="48.89298" lon="1.86384">
        <ele>52.599998474121</ele>
        <time>2011-12-18T10:25:41.000Z</time>
      </trkpt>
      <trkpt lat="48.89293" lon="1.86383">
        <ele>53</ele>
        <time>2011-12-18T10:25:44.000Z</time>
      </trkpt>
      <trkpt lat="48.89281" lon="1.86383">
        <ele>53.400001525879</ele>
        <time>2011-12-18T10:25:53.000Z</time>
      </trkpt>
      <trkpt lat="48.89266" lon="1.86382">
        <ele>53.799999237061</ele>
        <time>2011-12-18T10:26:02.000Z</time>
      </trkpt>
      <trkpt lat="48.89256" lon="1.86389">
        <ele>53.200000762939</ele>
        <time>2011-12-18T10:26:09.000Z</time>
      </trkpt>
      <trkpt lat="48.89243" lon="1.86404">
        <ele>51.799999237061</ele>
        <time>2011-12-18T10:26:19.000Z</time>
      </trkpt>
      <trkpt lat="48.89229" lon="1.86422">
        <ele>50.400001525879</ele>
        <time>2011-12-18T10:26:30.000Z</time>
      </trkpt>
      <trkpt lat="48.89217" lon="1.86436">
        <ele>49.599998474121</ele>
        <time>2011-12-18T10:26:39.000Z</time>
      </trkpt>
      <trkpt lat="48.89201" lon="1.8645">
        <ele>48.799999237061</ele>
        <time>2011-12-18T10:26:49.000Z</time>
      </trkpt>
      <trkpt lat="48.89187" lon="1.86458">
        <ele>48.200000762939</ele>
        <time>2011-12-18T10:26:56.000Z</time>
      </trkpt>
      <trkpt lat="48.89175" lon="1.86465">
        <ele>47.599998474121</ele>
        <time>2011-12-18T10:27:03.000Z</time>
      </trkpt>
      <trkpt lat="48.89157" lon="1.86474">
        <ele>47.400001525879</ele>
        <time>2011-12-18T10:27:11.000Z</time>
      </trkpt>
      <trkpt lat="48.89133" lon="1.86483">
        <ele>48.200000762939</ele>
        <time>2011-12-18T10:27:17.000Z</time>
      </trkpt>
      <trkpt lat="48.89105" lon="1.86489">
        <ele>49.200000762939</ele>
        <time>2011-12-18T10:27:23.000Z</time>
      </trkpt>
      <trkpt lat="48.89076" lon="1.86497">
        <ele>50.200000762939</ele>
        <time>2011-12-18T10:27:28.000Z</time>
      </trkpt>
      <trkpt lat="48.89037" lon="1.86508">
        <ele>52.599998474121</ele>
        <time>2011-12-18T10:27:33.000Z</time>
      </trkpt>
      <trkpt lat="48.89007" lon="1.86514">
        <ele>54.599998474121</ele>
        <time>2011-12-18T10:27:37.000Z</time>
      </trkpt>
      <trkpt lat="48.88967" lon="1.86523">
        <ele>55.200000762939</ele>
        <time>2011-12-18T10:27:43.000Z</time>
      </trkpt>
      <trkpt lat="48.88956" lon="1.86525">
        <ele>55.400001525879</ele>
        <time>2011-12-18T10:27:45.000Z</time>
      </trkpt>
      <trkpt lat="48.88924" lon="1.86534">
        <ele>55.200000762939</ele>
        <time>2011-12-18T10:27:51.000Z</time>
      </trkpt>
      <trkpt lat="48.88891" lon="1.86547">
        <ele>53.599998474121</ele>
        <time>2011-12-18T10:27:57.000Z</time>
      </trkpt>
      <trkpt lat="48.88863" lon="1.86548">
        <ele>53</ele>
        <time>2011-12-18T10:28:02.000Z</time>
      </trkpt>
      <trkpt lat="48.8884" lon="1.86534">
        <ele>54.599998474121</ele>
        <time>2011-12-18T10:28:07.000Z</time>
      </trkpt>
      <trkpt lat="48.88827" lon="1.86522">
        <ele>55.799999237061</ele>
        <time>2011-12-18T10:28:11.000Z</time>
      </trkpt>
      <trkpt lat="48.88815" lon="1.86506">
        <ele>57.200000762939</ele>
        <time>2011-12-18T10:28:19.000Z</time>
      </trkpt>
      <trkpt lat="48.88807" lon="1.86494">
        <ele>57.799999237061</ele>
        <time>2011-12-18T10:28:25.000Z</time>
      </trkpt>
      <trkpt lat="48.88799" lon="1.86482">
        <ele>58</ele>
        <time>2011-12-18T10:28:30.000Z</time>
      </trkpt>
      <trkpt lat="48.88791" lon="1.86468">
        <ele>58.200000762939</ele>
        <time>2011-12-18T10:28:38.000Z</time>
      </trkpt>
      <trkpt lat="48.88779" lon="1.86451">
        <ele>58.200000762939</ele>
        <time>2011-12-18T10:28:47.000Z</time>
      </trkpt>
      <trkpt lat="48.88771" lon="1.86437">
        <ele>58</ele>
        <time>2011-12-18T10:28:53.000Z</time>
      </trkpt>
      <trkpt lat="48.88761" lon="1.86421">
        <ele>57.799999237061</ele>
        <time>2011-12-18T10:29:00.000Z</time>
      </trkpt>
      <trkpt lat="48.88754" lon="1.86411">
        <ele>58</ele>
        <time>2011-12-18T10:29:06.000Z</time>
      </trkpt>
      <trkpt lat="48.88753" lon="1.8641">
        <ele>58</ele>
        <time>2011-12-18T10:29:08.000Z</time>
      </trkpt>
      <trkpt lat="48.88748" lon="1.86407">
        <ele>58.200000762939</ele>
        <time>2011-12-18T10:29:21.000Z</time>
      </trkpt>
      <trkpt lat="48.88737" lon="1.86395">
        <ele>60.400001525879</ele>
        <time>2011-12-18T10:29:28.000Z</time>
      </trkpt>
      <trkpt lat="48.88724" lon="1.8638">
        <ele>62.200000762939</ele>
        <time>2011-12-18T10:29:37.000Z</time>
      </trkpt>
      <trkpt lat="48.88709" lon="1.86365">
        <ele>63.599998474121</ele>
        <time>2011-12-18T10:29:46.000Z</time>
      </trkpt>
      <trkpt lat="48.88696" lon="1.86351">
        <ele>64.199996948242</ele>
        <time>2011-12-18T10:29:54.000Z</time>
      </trkpt>
      <trkpt lat="48.88694" lon="1.86349">
        <ele>64.400001525879</ele>
        <time>2011-12-18T10:29:55.000Z</time>
      </trkpt>
      <trkpt lat="48.88683" lon="1.8634">
        <ele>64.400001525879</ele>
        <time>2011-12-18T10:30:02.000Z</time>
      </trkpt>
      <trkpt lat="48.88672" lon="1.86328">
        <ele>64.400001525879</ele>
        <time>2011-12-18T10:30:09.000Z</time>
      </trkpt>
      <trkpt lat="48.88663" lon="1.86319">
        <ele>65.199996948242</ele>
        <time>2011-12-18T10:30:15.000Z</time>
      </trkpt>
      <trkpt lat="48.88653" lon="1.86311">
        <ele>67.199996948242</ele>
        <time>2011-12-18T10:30:21.000Z</time>
      </trkpt>
      <trkpt lat="48.88648" lon="1.86303">
        <ele>68.199996948242</ele>
        <time>2011-12-18T10:30:26.000Z</time>
      </trkpt>
      <trkpt lat="48.88641" lon="1.86292">
        <ele>69.599998474121</ele>
        <time>2011-12-18T10:30:32.000Z</time>
      </trkpt>
      <trkpt lat="48.88633" lon="1.86278">
        <ele>70.800003051758</ele>
        <time>2011-12-18T10:30:38.000Z</time>
      </trkpt>
      <trkpt lat="48.88626" lon="1.86266">
        <ele>71.800003051758</ele>
        <time>2011-12-18T10:30:43.000Z</time>
      </trkpt>
      <trkpt lat="48.88616" lon="1.86248">
        <ele>72.800003051758</ele>
        <time>2011-12-18T10:30:49.000Z</time>
      </trkpt>
      <trkpt lat="48.88606" lon="1.86232">
        <ele>74</ele>
        <time>2011-12-18T10:30:57.000Z</time>
      </trkpt>
      <trkpt lat="48.88598" lon="1.86219">
        <ele>74.800003051758</ele>
        <time>2011-12-18T10:31:04.000Z</time>
      </trkpt>
      <trkpt lat="48.88587" lon="1.862">
        <ele>75.199996948242</ele>
        <time>2011-12-18T10:31:13.000Z</time>
      </trkpt>
      <trkpt lat="48.88582" lon="1.86189">
        <ele>75.599998474121</ele>
        <time>2011-12-18T10:31:19.000Z</time>
      </trkpt>
      <trkpt lat="48.88574" lon="1.86179">
        <ele>76.599998474121</ele>
        <time>2011-12-18T10:31:25.000Z</time>
      </trkpt>
      <trkpt lat="48.88566" lon="1.86164">
        <ele>77.800003051758</ele>
        <time>2011-12-18T10:31:33.000Z</time>
      </trkpt>
      <trkpt lat="48.88561" lon="1.86154">
        <ele>78.400001525879</ele>
        <time>2011-12-18T10:31:38.000Z</time>
      </trkpt>
      <trkpt lat="48.88554" lon="1.86144">
        <ele>79.199996948242</ele>
        <time>2011-12-18T10:31:44.000Z</time>
      </trkpt>
      <trkpt lat="48.88539" lon="1.86126">
        <ele>80.599998474121</ele>
        <time>2011-12-18T10:31:54.000Z</time>
      </trkpt>
      <trkpt lat="48.88527" lon="1.86112">
        <ele>81.400001525879</ele>
        <time>2011-12-18T10:32:02.000Z</time>
      </trkpt>
      <trkpt lat="48.88519" lon="1.86103">
        <ele>81.800003051758</ele>
        <time>2011-12-18T10:32:08.000Z</time>
      </trkpt>
      <trkpt lat="48.88508" lon="1.86092">
        <ele>82</ele>
        <time>2011-12-18T10:32:16.000Z</time>
      </trkpt>
      <trkpt lat="48.88498" lon="1.86082">
        <ele>82.199996948242</ele>
        <time>2011-12-18T10:32:23.000Z</time>
      </trkpt>
      <trkpt lat="48.8849" lon="1.86075">
        <ele>83.800003051758</ele>
        <time>2011-12-18T10:32:29.000Z</time>
      </trkpt>
      <trkpt lat="48.8848" lon="1.86065">
        <ele>85.400001525879</ele>
        <time>2011-12-18T10:32:36.000Z</time>
      </trkpt>
      <trkpt lat="48.8847" lon="1.86056">
        <ele>87.199996948242</ele>
        <time>2011-12-18T10:32:43.000Z</time>
      </trkpt>
      <trkpt lat="48.8846" lon="1.86048">
        <ele>89</ele>
        <time>2011-12-18T10:32:49.000Z</time>
      </trkpt>
      <trkpt lat="48.88449" lon="1.86041">
        <ele>91</ele>
        <time>2011-12-18T10:32:56.000Z</time>
      </trkpt>
      <trkpt lat="48.88436" lon="1.86036">
        <ele>93.400001525879</ele>
        <time>2011-12-18T10:33:04.000Z</time>
      </trkpt>
      <trkpt lat="48.88423" lon="1.86031">
        <ele>95.800003051758</ele>
        <time>2011-12-18T10:33:11.000Z</time>
      </trkpt>
      <trkpt lat="48.88409" lon="1.86026">
        <ele>98</ele>
        <time>2011-12-18T10:33:18.000Z</time>
      </trkpt>
      <trkpt lat="48.88397" lon="1.86024">
        <ele>99.599998474121</ele>
        <time>2011-12-18T10:33:24.000Z</time>
      </trkpt>
      <trkpt lat="48.88384" lon="1.86022">
        <ele>101.40000152588</ele>
        <time>2011-12-18T10:33:31.000Z</time>
      </trkpt>
      <trkpt lat="48.88373" lon="1.86023">
        <ele>103</ele>
        <time>2011-12-18T10:33:37.000Z</time>
      </trkpt>
      <trkpt lat="48.8836" lon="1.86025">
        <ele>104.80000305176</ele>
        <time>2011-12-18T10:33:42.000Z</time>
      </trkpt>
      <trkpt lat="48.88346" lon="1.86027">
        <ele>106.59999847412</ele>
        <time>2011-12-18T10:33:50.000Z</time>
      </trkpt>
      <trkpt lat="48.8833" lon="1.8603">
        <ele>108.59999847412</ele>
        <time>2011-12-18T10:34:00.000Z</time>
      </trkpt>
      <trkpt lat="48.8832" lon="1.86033">
        <ele>109.59999847412</ele>
        <time>2011-12-18T10:34:07.000Z</time>
      </trkpt>
      <trkpt lat="48.88316" lon="1.86044">
        <ele>110</ele>
        <time>2011-12-18T10:34:13.000Z</time>
      </trkpt>
      <trkpt lat="48.88314" lon="1.8607">
        <ele>110.40000152588</ele>
        <time>2011-12-18T10:34:23.000Z</time>
      </trkpt>
      <trkpt lat="48.88313" lon="1.86086">
        <ele>110.80000305176</ele>
        <time>2011-12-18T10:34:29.000Z</time>
      </trkpt>
      <trkpt lat="48.8831" lon="1.86111">
        <ele>110.80000305176</ele>
        <time>2011-12-18T10:34:37.000Z</time>
      </trkpt>
      <trkpt lat="48.88308" lon="1.86134">
        <ele>111</ele>
        <time>2011-12-18T10:34:46.000Z</time>
      </trkpt>
      <trkpt lat="48.88307" lon="1.86136">
        <ele>111</ele>
        <time>2011-12-18T10:34:47.000Z</time>
      </trkpt>
      <trkpt lat="48.88295" lon="1.86153">
        <ele>111.40000152588</ele>
        <time>2011-12-18T10:34:57.000Z</time>
      </trkpt>
      <trkpt lat="48.8828" lon="1.8616">
        <ele>112</ele>
        <time>2011-12-18T10:35:05.000Z</time>
      </trkpt>
      <trkpt lat="48.8827" lon="1.86163">
        <ele>112.40000152588</ele>
        <time>2011-12-18T10:35:12.000Z</time>
      </trkpt>
      <trkpt lat="48.88257" lon="1.86166">
        <ele>112.80000305176</ele>
        <time>2011-12-18T10:35:19.000Z</time>
      </trkpt>
      <trkpt lat="48.88244" lon="1.86167">
        <ele>113.40000152588</ele>
        <time>2011-12-18T10:35:27.000Z</time>
      </trkpt>
      <trkpt lat="48.88229" lon="1.86162">
        <ele>114.40000152588</ele>
        <time>2011-12-18T10:35:36.000Z</time>
      </trkpt>
      <trkpt lat="48.88224" lon="1.86156">
        <ele>114.80000305176</ele>
        <time>2011-12-18T10:35:40.000Z</time>
      </trkpt>
      <trkpt lat="48.88223" lon="1.86138">
        <ele>115.40000152588</ele>
        <time>2011-12-18T10:35:47.000Z</time>
      </trkpt>
      <trkpt lat="48.88221" lon="1.86119">
        <ele>116</ele>
        <time>2011-12-18T10:35:55.000Z</time>
      </trkpt>
      <trkpt lat="48.88217" lon="1.86092">
        <ele>117</ele>
        <time>2011-12-18T10:36:06.000Z</time>
      </trkpt>
      <trkpt lat="48.88211" lon="1.86067">
        <ele>117.40000152588</ele>
        <time>2011-12-18T10:36:17.000Z</time>
      </trkpt>
      <trkpt lat="48.88211" lon="1.86055">
        <ele>117.40000152588</ele>
        <time>2011-12-18T10:36:22.000Z</time>
      </trkpt>
      <trkpt lat="48.8821" lon="1.86046">
        <ele>117.40000152588</ele>
        <time>2011-12-18T10:36:26.000Z</time>
      </trkpt>
      <trkpt lat="48.88202" lon="1.86029">
        <ele>117.80000305176</ele>
        <time>2011-12-18T10:36:35.000Z</time>
      </trkpt>
      <trkpt lat="48.88201" lon="1.86028">
        <ele>117.80000305176</ele>
        <time>2011-12-18T10:36:36.000Z</time>
      </trkpt>
      <trkpt lat="48.88194" lon="1.86033">
        <ele>118.19999694824</ele>
        <time>2011-12-18T10:36:40.000Z</time>
      </trkpt>
      <trkpt lat="48.88181" lon="1.86045">
        <ele>118.80000305176</ele>
        <time>2011-12-18T10:36:49.000Z</time>
      </trkpt>
      <trkpt lat="48.88171" lon="1.86054">
        <ele>119.19999694824</ele>
        <time>2011-12-18T10:36:56.000Z</time>
      </trkpt>
      <trkpt lat="48.8816" lon="1.86066">
        <ele>119.59999847412</ele>
        <time>2011-12-18T10:37:03.000Z</time>
      </trkpt>
      <trkpt lat="48.88157" lon="1.86068">
        <ele>119.80000305176</ele>
        <time>2011-12-18T10:37:05.000Z</time>
      </trkpt>
      <trkpt lat="48.88146" lon="1.8608">
        <ele>120.19999694824</ele>
        <time>2011-12-18T10:37:13.000Z</time>
      </trkpt>
      <trkpt lat="48.88138" lon="1.8609">
        <ele>120.59999847412</ele>
        <time>2011-12-18T10:37:19.000Z</time>
      </trkpt>
      <trkpt lat="48.88128" lon="1.86103">
        <ele>121</ele>
        <time>2011-12-18T10:37:27.000Z</time>
      </trkpt>
      <trkpt lat="48.88116" lon="1.86117">
        <ele>121.40000152588</ele>
        <time>2011-12-18T10:37:36.000Z</time>
      </trkpt>
      <trkpt lat="48.88105" lon="1.86123">
        <ele>121.80000305176</ele>
        <time>2011-12-18T10:37:43.000Z</time>
      </trkpt>
      <trkpt lat="48.88102" lon="1.86116">
        <ele>122.19999694824</ele>
        <time>2011-12-18T10:37:47.000Z</time>
      </trkpt>
      <trkpt lat="48.88097" lon="1.86099">
        <ele>122.80000305176</ele>
        <time>2011-12-18T10:37:54.000Z</time>
      </trkpt>
      <trkpt lat="48.88094" lon="1.8609">
        <ele>123.19999694824</ele>
        <time>2011-12-18T10:37:58.000Z</time>
      </trkpt>
      <trkpt lat="48.88085" lon="1.86079">
        <ele>124</ele>
        <time>2011-12-18T10:38:05.000Z</time>
      </trkpt>
      <trkpt lat="48.8807" lon="1.8607">
        <ele>123.80000305176</ele>
        <time>2011-12-18T10:38:14.000Z</time>
      </trkpt>
      <trkpt lat="48.88066" lon="1.86056">
        <ele>123.80000305176</ele>
        <time>2011-12-18T10:38:20.000Z</time>
      </trkpt>
      <trkpt lat="48.88065" lon="1.86043">
        <ele>123.80000305176</ele>
        <time>2011-12-18T10:38:25.000Z</time>
      </trkpt>
      <trkpt lat="48.88064" lon="1.8602">
        <ele>123.80000305176</ele>
        <time>2011-12-18T10:38:34.000Z</time>
      </trkpt>
      <trkpt lat="48.88063" lon="1.86008">
        <ele>123.80000305176</ele>
        <time>2011-12-18T10:38:39.000Z</time>
      </trkpt>
      <trkpt lat="48.88062" lon="1.85986">
        <ele>123.59999847412</ele>
        <time>2011-12-18T10:38:48.000Z</time>
      </trkpt>
      <trkpt lat="48.88061" lon="1.85966">
        <ele>123.59999847412</ele>
        <time>2011-12-18T10:38:56.000Z</time>
      </trkpt>
      <trkpt lat="48.8806" lon="1.85952">
        <ele>123.40000152588</ele>
        <time>2011-12-18T10:39:02.000Z</time>
      </trkpt>
      <trkpt lat="48.8806" lon="1.85927">
        <ele>123.40000152588</ele>
        <time>2011-12-18T10:39:12.000Z</time>
      </trkpt>
      <trkpt lat="48.88061" lon="1.859">
        <ele>123.40000152588</ele>
        <time>2011-12-18T10:39:23.000Z</time>
      </trkpt>
      <trkpt lat="48.88061" lon="1.85874">
        <ele>123.40000152588</ele>
        <time>2011-12-18T10:39:34.000Z</time>
      </trkpt>
      <trkpt lat="48.88058" lon="1.8586">
        <ele>123.59999847412</ele>
        <time>2011-12-18T10:39:40.000Z</time>
      </trkpt>
      <trkpt lat="48.8805" lon="1.8585">
        <ele>123.80000305176</ele>
        <time>2011-12-18T10:39:46.000Z</time>
      </trkpt>
      <trkpt lat="48.88036" lon="1.85842">
        <ele>124</ele>
        <time>2011-12-18T10:39:53.000Z</time>
      </trkpt>
      <trkpt lat="48.88023" lon="1.85829">
        <ele>124.40000152588</ele>
        <time>2011-12-18T10:40:00.000Z</time>
      </trkpt>
      <trkpt lat="48.88009" lon="1.85818">
        <ele>124.59999847412</ele>
        <time>2011-12-18T10:40:07.000Z</time>
      </trkpt>
      <trkpt lat="48.87997" lon="1.85811">
        <ele>124.80000305176</ele>
        <time>2011-12-18T10:40:14.000Z</time>
      </trkpt>
      <trkpt lat="48.87985" lon="1.85801">
        <ele>124.80000305176</ele>
        <time>2011-12-18T10:40:22.000Z</time>
      </trkpt>
      <trkpt lat="48.87974" lon="1.85791">
        <ele>124.80000305176</ele>
        <time>2011-12-18T10:40:28.000Z</time>
      </trkpt>
      <trkpt lat="48.8796" lon="1.8578">
        <ele>125</ele>
        <time>2011-12-18T10:40:37.000Z</time>
      </trkpt>
      <trkpt lat="48.87942" lon="1.85767">
        <ele>125.40000152588</ele>
        <time>2011-12-18T10:40:47.000Z</time>
      </trkpt>
      <trkpt lat="48.87924" lon="1.85754">
        <ele>125.80000305176</ele>
        <time>2011-12-18T10:40:57.000Z</time>
      </trkpt>
      <trkpt lat="48.87906" lon="1.85741">
        <ele>125.80000305176</ele>
        <time>2011-12-18T10:41:08.000Z</time>
      </trkpt>
      <trkpt lat="48.87888" lon="1.85729">
        <ele>125.80000305176</ele>
        <time>2011-12-18T10:41:18.000Z</time>
      </trkpt>
      <trkpt lat="48.87872" lon="1.85718">
        <ele>125.59999847412</ele>
        <time>2011-12-18T10:41:28.000Z</time>
      </trkpt>
      <trkpt lat="48.87852" lon="1.85704">
        <ele>125.59999847412</ele>
        <time>2011-12-18T10:41:40.000Z</time>
      </trkpt>
      <trkpt lat="48.87833" lon="1.85692">
        <ele>125.59999847412</ele>
        <time>2011-12-18T10:41:51.000Z</time>
      </trkpt>
      <trkpt lat="48.87816" lon="1.85682">
        <ele>125.40000152588</ele>
        <time>2011-12-18T10:42:01.000Z</time>
      </trkpt>
      <trkpt lat="48.87799" lon="1.85671">
        <ele>125.19999694824</ele>
        <time>2011-12-18T10:42:11.000Z</time>
      </trkpt>
      <trkpt lat="48.87782" lon="1.85663">
        <ele>124.80000305176</ele>
        <time>2011-12-18T10:42:21.000Z</time>
      </trkpt>
      <trkpt lat="48.87767" lon="1.85656">
        <ele>124.40000152588</ele>
        <time>2011-12-18T10:42:29.000Z</time>
      </trkpt>
      <trkpt lat="48.8775" lon="1.85645">
        <ele>124</ele>
        <time>2011-12-18T10:42:38.000Z</time>
      </trkpt>
      <trkpt lat="48.87733" lon="1.85635">
        <ele>123.59999847412</ele>
        <time>2011-12-18T10:42:47.000Z</time>
      </trkpt>
      <trkpt lat="48.87717" lon="1.85623">
        <ele>123.40000152588</ele>
        <time>2011-12-18T10:42:56.000Z</time>
      </trkpt>
      <trkpt lat="48.87698" lon="1.8561">
        <ele>123.19999694824</ele>
        <time>2011-12-18T10:43:07.000Z</time>
      </trkpt>
      <trkpt lat="48.87679" lon="1.85599">
        <ele>123</ele>
        <time>2011-12-18T10:43:18.000Z</time>
      </trkpt>
      <trkpt lat="48.87658" lon="1.85584">
        <ele>122.59999847412</ele>
        <time>2011-12-18T10:43:30.000Z</time>
      </trkpt>
      <trkpt lat="48.8764" lon="1.8557">
        <ele>122</ele>
        <time>2011-12-18T10:43:40.000Z</time>
      </trkpt>
      <trkpt lat="48.87628" lon="1.85561">
        <ele>121.59999847412</ele>
        <time>2011-12-18T10:43:47.000Z</time>
      </trkpt>
      <trkpt lat="48.87611" lon="1.85547">
        <ele>121</ele>
        <time>2011-12-18T10:43:57.000Z</time>
      </trkpt>
      <trkpt lat="48.87594" lon="1.85532">
        <ele>120.40000152588</ele>
        <time>2011-12-18T10:44:07.000Z</time>
      </trkpt>
      <trkpt lat="48.8758" lon="1.8552">
        <ele>120</ele>
        <time>2011-12-18T10:44:15.000Z</time>
      </trkpt>
      <trkpt lat="48.87566" lon="1.85509">
        <ele>119.59999847412</ele>
        <time>2011-12-18T10:44:23.000Z</time>
      </trkpt>
      <trkpt lat="48.87548" lon="1.85494">
        <ele>119.19999694824</ele>
        <time>2011-12-18T10:44:34.000Z</time>
      </trkpt>
      <trkpt lat="48.87537" lon="1.85485">
        <ele>118.80000305176</ele>
        <time>2011-12-18T10:44:40.000Z</time>
      </trkpt>
      <trkpt lat="48.87521" lon="1.85471">
        <ele>118.40000152588</ele>
        <time>2011-12-18T10:44:50.000Z</time>
      </trkpt>
      <trkpt lat="48.87503" lon="1.85456">
        <ele>118</ele>
        <time>2011-12-18T10:45:01.000Z</time>
      </trkpt>
      <trkpt lat="48.87486" lon="1.85443">
        <ele>117.59999847412</ele>
        <time>2011-12-18T10:45:11.000Z</time>
      </trkpt>
      <trkpt lat="48.87468" lon="1.8543">
        <ele>116.80000305176</ele>
        <time>2011-12-18T10:45:21.000Z</time>
      </trkpt>
      <trkpt lat="48.87449" lon="1.85415">
        <ele>116.19999694824</ele>
        <time>2011-12-18T10:45:32.000Z</time>
      </trkpt>
      <trkpt lat="48.87433" lon="1.85403">
        <ele>115.80000305176</ele>
        <time>2011-12-18T10:45:42.000Z</time>
      </trkpt>
      <trkpt lat="48.87413" lon="1.85388">
        <ele>115.19999694824</ele>
        <time>2011-12-18T10:45:54.000Z</time>
      </trkpt>
      <trkpt lat="48.87398" lon="1.85377">
        <ele>114.59999847412</ele>
        <time>2011-12-18T10:46:03.000Z</time>
      </trkpt>
      <trkpt lat="48.87381" lon="1.85363">
        <ele>114</ele>
        <time>2011-12-18T10:46:13.000Z</time>
      </trkpt>
      <trkpt lat="48.87366" lon="1.8535">
        <ele>113.40000152588</ele>
        <time>2011-12-18T10:46:22.000Z</time>
      </trkpt>
      <trkpt lat="48.87353" lon="1.85336">
        <ele>113</ele>
        <time>2011-12-18T10:46:30.000Z</time>
      </trkpt>
      <trkpt lat="48.87341" lon="1.85321">
        <ele>112.59999847412</ele>
        <time>2011-12-18T10:46:38.000Z</time>
      </trkpt>
      <trkpt lat="48.87328" lon="1.85302">
        <ele>112</ele>
        <time>2011-12-18T10:46:47.000Z</time>
      </trkpt>
      <trkpt lat="48.87317" lon="1.85288">
        <ele>111.59999847412</ele>
        <time>2011-12-18T10:46:54.000Z</time>
      </trkpt>
      <trkpt lat="48.87304" lon="1.85267">
        <ele>111.40000152588</ele>
        <time>2011-12-18T10:47:04.000Z</time>
      </trkpt>
      <trkpt lat="48.87295" lon="1.85252">
        <ele>111.19999694824</ele>
        <time>2011-12-18T10:47:09.000Z</time>
      </trkpt>
      <trkpt lat="48.87275" lon="1.85219">
        <ele>111.19999694824</ele>
        <time>2011-12-18T10:47:16.000Z</time>
      </trkpt>
      <trkpt lat="48.87254" lon="1.85183">
        <ele>111.59999847412</ele>
        <time>2011-12-18T10:47:23.000Z</time>
      </trkpt>
      <trkpt lat="48.87221" lon="1.85137">
        <ele>112.59999847412</ele>
        <time>2011-12-18T10:47:32.000Z</time>
      </trkpt>
      <trkpt lat="48.87194" lon="1.8511">
        <ele>112.80000305176</ele>
        <time>2011-12-18T10:47:39.000Z</time>
      </trkpt>
      <trkpt lat="48.87169" lon="1.85087">
        <ele>113</ele>
        <time>2011-12-18T10:47:46.000Z</time>
      </trkpt>
      <trkpt lat="48.87152" lon="1.85069">
        <ele>113.80000305176</ele>
        <time>2011-12-18T10:47:51.000Z</time>
      </trkpt>
      <trkpt lat="48.87118" lon="1.85032">
        <ele>116</ele>
        <time>2011-12-18T10:47:59.000Z</time>
      </trkpt>
      <trkpt lat="48.87086" lon="1.84995">
        <ele>118</ele>
        <time>2011-12-18T10:48:07.000Z</time>
      </trkpt>
      <trkpt lat="48.87063" lon="1.84965">
        <ele>119.19999694824</ele>
        <time>2011-12-18T10:48:12.000Z</time>
      </trkpt>
      <trkpt lat="48.87032" lon="1.84926">
        <ele>121</ele>
        <time>2011-12-18T10:48:19.000Z</time>
      </trkpt>
      <trkpt lat="48.87007" lon="1.84894">
        <ele>121.80000305176</ele>
        <time>2011-12-18T10:48:26.000Z</time>
      </trkpt>
      <trkpt lat="48.8697" lon="1.8485">
        <ele>122</ele>
        <time>2011-12-18T10:48:35.000Z</time>
      </trkpt>
      <trkpt lat="48.86935" lon="1.84809">
        <ele>122.19999694824</ele>
        <time>2011-12-18T10:48:43.000Z</time>
      </trkpt>
      <trkpt lat="48.86909" lon="1.84778">
        <ele>122.59999847412</ele>
        <time>2011-12-18T10:48:49.000Z</time>
      </trkpt>
      <trkpt lat="48.86881" lon="1.84744">
        <ele>122.19999694824</ele>
        <time>2011-12-18T10:48:55.000Z</time>
      </trkpt>
      <trkpt lat="48.86853" lon="1.84712">
        <ele>122</ele>
        <time>2011-12-18T10:49:01.000Z</time>
      </trkpt>
      <trkpt lat="48.8682" lon="1.84669">
        <ele>121.80000305176</ele>
        <time>2011-12-18T10:49:10.000Z</time>
      </trkpt>
      <trkpt lat="48.86796" lon="1.84641">
        <ele>122.19999694824</ele>
        <time>2011-12-18T10:49:18.000Z</time>
      </trkpt>
      <trkpt lat="48.86783" lon="1.84622">
        <ele>122.59999847412</ele>
        <time>2011-12-18T10:49:24.000Z</time>
      </trkpt>
      <trkpt lat="48.86778" lon="1.84615">
        <ele>122.80000305176</ele>
        <time>2011-12-18T10:49:27.000Z</time>
      </trkpt>
      <trkpt lat="48.86765" lon="1.84618">
        <ele>122.80000305176</ele>
        <time>2011-12-18T10:49:32.000Z</time>
      </trkpt>
      <trkpt lat="48.86762" lon="1.84621">
        <ele>122.59999847412</ele>
        <time>2011-12-18T10:49:33.000Z</time>
      </trkpt>
      <trkpt lat="48.86729" lon="1.84652">
        <ele>121.40000152588</ele>
        <time>2011-12-18T10:49:43.000Z</time>
      </trkpt>
      <trkpt lat="48.86694" lon="1.84682">
        <ele>121.19999694824</ele>
        <time>2011-12-18T10:49:52.000Z</time>
      </trkpt>
      <trkpt lat="48.86659" lon="1.84714">
        <ele>121.59999847412</ele>
        <time>2011-12-18T10:49:59.000Z</time>
      </trkpt>
      <trkpt lat="48.86622" lon="1.84748">
        <ele>121.40000152588</ele>
        <time>2011-12-18T10:50:06.000Z</time>
      </trkpt>
      <trkpt lat="48.86584" lon="1.84782">
        <ele>121</ele>
        <time>2011-12-18T10:50:13.000Z</time>
      </trkpt>
      <trkpt lat="48.86565" lon="1.848">
        <ele>121.59999847412</ele>
        <time>2011-12-18T10:50:17.000Z</time>
      </trkpt>
      <trkpt lat="48.8654" lon="1.84821">
        <ele>122.40000152588</ele>
        <time>2011-12-18T10:50:23.000Z</time>
      </trkpt>
      <trkpt lat="48.86504" lon="1.84853">
        <ele>123.40000152588</ele>
        <time>2011-12-18T10:50:32.000Z</time>
      </trkpt>
      <trkpt lat="48.86484" lon="1.84869">
        <ele>123.40000152588</ele>
        <time>2011-12-18T10:50:37.000Z</time>
      </trkpt>
      <trkpt lat="48.86463" lon="1.84885">
        <ele>123.40000152588</ele>
        <time>2011-12-18T10:50:44.000Z</time>
      </trkpt>
      <trkpt lat="48.86455" lon="1.8488">
        <ele>123.80000305176</ele>
        <time>2011-12-18T10:50:49.000Z</time>
      </trkpt>
      <trkpt lat="48.86445" lon="1.84869">
        <ele>124</ele>
        <time>2011-12-18T10:50:56.000Z</time>
      </trkpt>
      <trkpt lat="48.8643" lon="1.84848">
        <ele>124.59999847412</ele>
        <time>2011-12-18T10:51:07.000Z</time>
      </trkpt>
      <trkpt lat="48.86418" lon="1.84832">
        <ele>125</ele>
        <time>2011-12-18T10:51:15.000Z</time>
      </trkpt>
      <trkpt lat="48.86406" lon="1.84814">
        <ele>125</ele>
        <time>2011-12-18T10:51:23.000Z</time>
      </trkpt>
      <trkpt lat="48.86394" lon="1.84798">
        <ele>125</ele>
        <time>2011-12-18T10:51:32.000Z</time>
      </trkpt>
      <trkpt lat="48.86383" lon="1.84783">
        <ele>125</ele>
        <time>2011-12-18T10:51:39.000Z</time>
      </trkpt>
      <trkpt lat="48.86378" lon="1.84775">
        <ele>125</ele>
        <time>2011-12-18T10:51:44.000Z</time>
      </trkpt>
      <trkpt lat="48.86364" lon="1.84755">
        <ele>125</ele>
        <time>2011-12-18T10:51:55.000Z</time>
      </trkpt>
      <trkpt lat="48.86352" lon="1.84737">
        <ele>125</ele>
        <time>2011-12-18T10:52:05.000Z</time>
      </trkpt>
      <trkpt lat="48.86337" lon="1.84716">
        <ele>125</ele>
        <time>2011-12-18T10:52:16.000Z</time>
      </trkpt>
      <trkpt lat="48.86325" lon="1.84698">
        <ele>124.80000305176</ele>
        <time>2011-12-18T10:52:25.000Z</time>
      </trkpt>
      <trkpt lat="48.86313" lon="1.84682">
        <ele>124.80000305176</ele>
        <time>2011-12-18T10:52:33.000Z</time>
      </trkpt>
      <trkpt lat="48.86303" lon="1.84667">
        <ele>124.59999847412</ele>
        <time>2011-12-18T10:52:40.000Z</time>
      </trkpt>
      <trkpt lat="48.8629" lon="1.84647">
        <ele>124.59999847412</ele>
        <time>2011-12-18T10:52:50.000Z</time>
      </trkpt>
      <trkpt lat="48.86282" lon="1.84634">
        <ele>124.59999847412</ele>
        <time>2011-12-18T10:52:57.000Z</time>
      </trkpt>
      <trkpt lat="48.86273" lon="1.84621">
        <ele>124.40000152588</ele>
        <time>2011-12-18T10:53:03.000Z</time>
      </trkpt>
      <trkpt lat="48.86263" lon="1.8461">
        <ele>124.19999694824</ele>
        <time>2011-12-18T10:53:10.000Z</time>
      </trkpt>
      <trkpt lat="48.86254" lon="1.84597">
        <ele>124</ele>
        <time>2011-12-18T10:53:17.000Z</time>
      </trkpt>
      <trkpt lat="48.8625" lon="1.84596">
        <ele>124</ele>
        <time>2011-12-18T10:53:21.000Z</time>
      </trkpt>
      <trkpt lat="48.86243" lon="1.84601">
        <ele>124</ele>
        <time>2011-12-18T10:53:27.000Z</time>
      </trkpt>
      <trkpt lat="48.86226" lon="1.84612">
        <ele>124</ele>
        <time>2011-12-18T10:53:36.000Z</time>
      </trkpt>
      <trkpt lat="48.86212" lon="1.8462">
        <ele>124.19999694824</ele>
        <time>2011-12-18T10:53:44.000Z</time>
      </trkpt>
      <trkpt lat="48.86197" lon="1.84631">
        <ele>124.40000152588</ele>
        <time>2011-12-18T10:53:53.000Z</time>
      </trkpt>
      <trkpt lat="48.86184" lon="1.8464">
        <ele>124.59999847412</ele>
        <time>2011-12-18T10:54:01.000Z</time>
      </trkpt>
      <trkpt lat="48.8617" lon="1.84651">
        <ele>124.80000305176</ele>
        <time>2011-12-18T10:54:10.000Z</time>
      </trkpt>
      <trkpt lat="48.86154" lon="1.84665">
        <ele>125.19999694824</ele>
        <time>2011-12-18T10:54:20.000Z</time>
      </trkpt>
      <trkpt lat="48.86141" lon="1.84678">
        <ele>125</ele>
        <time>2011-12-18T10:54:28.000Z</time>
      </trkpt>
      <trkpt lat="48.86125" lon="1.84694">
        <ele>124.80000305176</ele>
        <time>2011-12-18T10:54:39.000Z</time>
      </trkpt>
      <trkpt lat="48.86111" lon="1.84707">
        <ele>124.80000305176</ele>
        <time>2011-12-18T10:54:48.000Z</time>
      </trkpt>
      <trkpt lat="48.86099" lon="1.84716">
        <ele>124.59999847412</ele>
        <time>2011-12-18T10:54:56.000Z</time>
      </trkpt>
      <trkpt lat="48.86087" lon="1.84727">
        <ele>124.40000152588</ele>
        <time>2011-12-18T10:55:04.000Z</time>
      </trkpt>
      <trkpt lat="48.86076" lon="1.84742">
        <ele>124.40000152588</ele>
        <time>2011-12-18T10:55:12.000Z</time>
      </trkpt>
      <trkpt lat="48.86063" lon="1.84757">
        <ele>124.40000152588</ele>
        <time>2011-12-18T10:55:21.000Z</time>
      </trkpt>
      <trkpt lat="48.86048" lon="1.84772">
        <ele>124.40000152588</ele>
        <time>2011-12-18T10:55:31.000Z</time>
      </trkpt>
      <trkpt lat="48.86038" lon="1.84781">
        <ele>124.59999847412</ele>
        <time>2011-12-18T10:55:38.000Z</time>
      </trkpt>
      <trkpt lat="48.86026" lon="1.84791">
        <ele>124.80000305176</ele>
        <time>2011-12-18T10:55:46.000Z</time>
      </trkpt>
      <trkpt lat="48.86013" lon="1.84801">
        <ele>125</ele>
        <time>2011-12-18T10:55:55.000Z</time>
      </trkpt>
      <trkpt lat="48.86004" lon="1.84809">
        <ele>125.19999694824</ele>
        <time>2011-12-18T10:56:01.000Z</time>
      </trkpt>
      <trkpt lat="48.85994" lon="1.84819">
        <ele>125.19999694824</ele>
        <time>2011-12-18T10:56:08.000Z</time>
      </trkpt>
      <trkpt lat="48.85986" lon="1.84827">
        <ele>125</ele>
        <time>2011-12-18T10:56:14.000Z</time>
      </trkpt>
      <trkpt lat="48.85974" lon="1.84837">
        <ele>125</ele>
        <time>2011-12-18T10:56:22.000Z</time>
      </trkpt>
      <trkpt lat="48.85961" lon="1.84844">
        <ele>124.80000305176</ele>
        <time>2011-12-18T10:56:30.000Z</time>
      </trkpt>
      <trkpt lat="48.85948" lon="1.84853">
        <ele>124.59999847412</ele>
        <time>2011-12-18T10:56:39.000Z</time>
      </trkpt>
      <trkpt lat="48.85937" lon="1.84861">
        <ele>124.40000152588</ele>
        <time>2011-12-18T10:56:47.000Z</time>
      </trkpt>
      <trkpt lat="48.85921" lon="1.8487">
        <ele>124.19999694824</ele>
        <time>2011-12-18T10:56:57.000Z</time>
      </trkpt>
      <trkpt lat="48.85907" lon="1.84877">
        <ele>123.80000305176</ele>
        <time>2011-12-18T10:57:05.000Z</time>
      </trkpt>
      <trkpt lat="48.85888" lon="1.84882">
        <ele>123.59999847412</ele>
        <time>2011-12-18T10:57:16.000Z</time>
      </trkpt>
      <trkpt lat="48.85871" lon="1.84887">
        <ele>123.40000152588</ele>
        <time>2011-12-18T10:57:26.000Z</time>
      </trkpt>
      <trkpt lat="48.85854" lon="1.84893">
        <ele>123</ele>
        <time>2011-12-18T10:57:36.000Z</time>
      </trkpt>
      <trkpt lat="48.85847" lon="1.84895">
        <ele>122.80000305176</ele>
        <time>2011-12-18T10:57:41.000Z</time>
      </trkpt>
      <trkpt lat="48.85836" lon="1.84899">
        <ele>122.59999847412</ele>
        <time>2011-12-18T10:57:48.000Z</time>
      </trkpt>
      <trkpt lat="48.85824" lon="1.84903">
        <ele>122.40000152588</ele>
        <time>2011-12-18T10:57:55.000Z</time>
      </trkpt>
      <trkpt lat="48.85809" lon="1.84909">
        <ele>122.19999694824</ele>
        <time>2011-12-18T10:58:04.000Z</time>
      </trkpt>
      <trkpt lat="48.85794" lon="1.84916">
        <ele>122</ele>
        <time>2011-12-18T10:58:13.000Z</time>
      </trkpt>
      <trkpt lat="48.85782" lon="1.84921">
        <ele>122</ele>
        <time>2011-12-18T10:58:21.000Z</time>
      </trkpt>
      <trkpt lat="48.85773" lon="1.84926">
        <ele>122</ele>
        <time>2011-12-18T10:58:27.000Z</time>
      </trkpt>
      <trkpt lat="48.85759" lon="1.84933">
        <ele>122</ele>
        <time>2011-12-18T10:58:36.000Z</time>
      </trkpt>
      <trkpt lat="48.85746" lon="1.84937">
        <ele>122</ele>
        <time>2011-12-18T10:58:43.000Z</time>
      </trkpt>
      <trkpt lat="48.8573" lon="1.84944">
        <ele>122.40000152588</ele>
        <time>2011-12-18T10:58:53.000Z</time>
      </trkpt>
      <trkpt lat="48.85713" lon="1.84951">
        <ele>122.80000305176</ele>
        <time>2011-12-18T10:59:02.000Z</time>
      </trkpt>
      <trkpt lat="48.85703" lon="1.84955">
        <ele>123.19999694824</ele>
        <time>2011-12-18T10:59:08.000Z</time>
      </trkpt>
      <trkpt lat="48.8569" lon="1.84957">
        <ele>123.40000152588</ele>
        <time>2011-12-18T10:59:16.000Z</time>
      </trkpt>
      <trkpt lat="48.85678" lon="1.84955">
        <ele>123.80000305176</ele>
        <time>2011-12-18T10:59:24.000Z</time>
      </trkpt>
      <trkpt lat="48.85671" lon="1.84952">
        <ele>124</ele>
        <time>2011-12-18T10:59:30.000Z</time>
      </trkpt>
      <trkpt lat="48.85668" lon="1.84953">
        <ele>124</ele>
        <time>2011-12-18T10:59:32.000Z</time>
      </trkpt>
      <trkpt lat="48.8566" lon="1.84951">
        <ele>124.19999694824</ele>
        <time>2011-12-18T10:59:37.000Z</time>
      </trkpt>
      <trkpt lat="48.85649" lon="1.84947">
        <ele>124.59999847412</ele>
        <time>2011-12-18T10:59:44.000Z</time>
      </trkpt>
      <trkpt lat="48.85634" lon="1.84942">
        <ele>125</ele>
        <time>2011-12-18T10:59:53.000Z</time>
      </trkpt>
      <trkpt lat="48.85628" lon="1.8494">
        <ele>125.19999694824</ele>
        <time>2011-12-18T10:59:56.000Z</time>
      </trkpt>
      <trkpt lat="48.85624" lon="1.8494">
        <ele>125.40000152588</ele>
        <time>2011-12-18T10:59:59.000Z</time>
      </trkpt>
      <trkpt lat="48.85611" lon="1.84938">
        <ele>125.80000305176</ele>
        <time>2011-12-18T11:00:07.000Z</time>
      </trkpt>
      <trkpt lat="48.85598" lon="1.84932">
        <ele>126.40000152588</ele>
        <time>2011-12-18T11:00:15.000Z</time>
      </trkpt>
      <trkpt lat="48.85585" lon="1.84928">
        <ele>126.80000305176</ele>
        <time>2011-12-18T11:00:23.000Z</time>
      </trkpt>
      <trkpt lat="48.85573" lon="1.84924">
        <ele>126.59999847412</ele>
        <time>2011-12-18T11:00:30.000Z</time>
      </trkpt>
      <trkpt lat="48.85557" lon="1.8492">
        <ele>126.40000152588</ele>
        <time>2011-12-18T11:00:38.000Z</time>
      </trkpt>
      <trkpt lat="48.85543" lon="1.84917">
        <ele>126</ele>
        <time>2011-12-18T11:00:46.000Z</time>
      </trkpt>
      <trkpt lat="48.85532" lon="1.84914">
        <ele>125.80000305176</ele>
        <time>2011-12-18T11:00:53.000Z</time>
      </trkpt>
      <trkpt lat="48.85517" lon="1.84911">
        <ele>125.19999694824</ele>
        <time>2011-12-18T11:01:01.000Z</time>
      </trkpt>
      <trkpt lat="48.85516" lon="1.8491">
        <ele>125.19999694824</ele>
        <time>2011-12-18T11:01:02.000Z</time>
      </trkpt>
      <trkpt lat="48.85509" lon="1.84914">
        <ele>125.19999694824</ele>
        <time>2011-12-18T11:01:06.000Z</time>
      </trkpt>
      <trkpt lat="48.85501" lon="1.84924">
        <ele>125.19999694824</ele>
        <time>2011-12-18T11:01:12.000Z</time>
      </trkpt>
      <trkpt lat="48.85497" lon="1.8493">
        <ele>125</ele>
        <time>2011-12-18T11:01:16.000Z</time>
      </trkpt>
      <trkpt lat="48.85498" lon="1.84947">
        <ele>125.19999694824</ele>
        <time>2011-12-18T11:01:23.000Z</time>
      </trkpt>
      <trkpt lat="48.85498" lon="1.84952">
        <ele>125.40000152588</ele>
        <time>2011-12-18T11:01:25.000Z</time>
      </trkpt>
      <trkpt lat="48.855" lon="1.84965">
        <ele>125.59999847412</ele>
        <time>2011-12-18T11:01:30.000Z</time>
      </trkpt>
      <trkpt lat="48.855" lon="1.84986">
        <ele>125.80000305176</ele>
        <time>2011-12-18T11:01:38.000Z</time>
      </trkpt>
      <trkpt lat="48.855" lon="1.84989">
        <ele>125.80000305176</ele>
        <time>2011-12-18T11:01:39.000Z</time>
      </trkpt>
      <trkpt lat="48.85501" lon="1.85003">
        <ele>126</ele>
        <time>2011-12-18T11:01:44.000Z</time>
      </trkpt>
      <trkpt lat="48.85499" lon="1.85026">
        <ele>126</ele>
        <time>2011-12-18T11:01:52.000Z</time>
      </trkpt>
      <trkpt lat="48.855" lon="1.85042">
        <ele>126</ele>
        <time>2011-12-18T11:01:57.000Z</time>
      </trkpt>
      <trkpt lat="48.85501" lon="1.85059">
        <ele>126</ele>
        <time>2011-12-18T11:02:03.000Z</time>
      </trkpt>
      <trkpt lat="48.85501" lon="1.85076">
        <ele>126</ele>
        <time>2011-12-18T11:02:09.000Z</time>
      </trkpt>
      <trkpt lat="48.85502" lon="1.85093">
        <ele>126.19999694824</ele>
        <time>2011-12-18T11:02:15.000Z</time>
      </trkpt>
      <trkpt lat="48.85502" lon="1.85109">
        <ele>126.40000152588</ele>
        <time>2011-12-18T11:02:21.000Z</time>
      </trkpt>
      <trkpt lat="48.85502" lon="1.85124">
        <ele>126.59999847412</ele>
        <time>2011-12-18T11:02:27.000Z</time>
      </trkpt>
      <trkpt lat="48.85504" lon="1.8514">
        <ele>126.80000305176</ele>
        <time>2011-12-18T11:02:34.000Z</time>
      </trkpt>
      <trkpt lat="48.85506" lon="1.85154">
        <ele>127</ele>
        <time>2011-12-18T11:02:40.000Z</time>
      </trkpt>
      <trkpt lat="48.85506" lon="1.85156">
        <ele>127</ele>
        <time>2011-12-18T11:02:41.000Z</time>
      </trkpt>
      <trkpt lat="48.85506" lon="1.85175">
        <ele>127.19999694824</ele>
        <time>2011-12-18T11:02:49.000Z</time>
      </trkpt>
      <trkpt lat="48.85507" lon="1.85192">
        <ele>127</ele>
        <time>2011-12-18T11:02:55.000Z</time>
      </trkpt>
      <trkpt lat="48.85505" lon="1.8521">
        <ele>126.59999847412</ele>
        <time>2011-12-18T11:03:02.000Z</time>
      </trkpt>
      <trkpt lat="48.85505" lon="1.85233">
        <ele>126.40000152588</ele>
        <time>2011-12-18T11:03:10.000Z</time>
      </trkpt>
      <trkpt lat="48.85504" lon="1.85255">
        <ele>126</ele>
        <time>2011-12-18T11:03:18.000Z</time>
      </trkpt>
      <trkpt lat="48.85508" lon="1.85273">
        <ele>126</ele>
        <time>2011-12-18T11:03:25.000Z</time>
      </trkpt>
      <trkpt lat="48.85509" lon="1.85291">
        <ele>125.80000305176</ele>
        <time>2011-12-18T11:03:32.000Z</time>
      </trkpt>
      <trkpt lat="48.85511" lon="1.85315">
        <ele>125.59999847412</ele>
        <time>2011-12-18T11:03:41.000Z</time>
      </trkpt>
      <trkpt lat="48.85512" lon="1.85336">
        <ele>125.40000152588</ele>
        <time>2011-12-18T11:03:48.000Z</time>
      </trkpt>
      <trkpt lat="48.85513" lon="1.85363">
        <ele>125.59999847412</ele>
        <time>2011-12-18T11:03:55.000Z</time>
      </trkpt>
      <trkpt lat="48.85514" lon="1.85384">
        <ele>125.80000305176</ele>
        <time>2011-12-18T11:04:03.000Z</time>
      </trkpt>
      <trkpt lat="48.85514" lon="1.85403">
        <ele>125.80000305176</ele>
        <time>2011-12-18T11:04:10.000Z</time>
      </trkpt>
      <trkpt lat="48.85515" lon="1.85426">
        <ele>125.80000305176</ele>
        <time>2011-12-18T11:04:18.000Z</time>
      </trkpt>
      <trkpt lat="48.85516" lon="1.85445">
        <ele>125.40000152588</ele>
        <time>2011-12-18T11:04:26.000Z</time>
      </trkpt>
      <trkpt lat="48.85515" lon="1.85461">
        <ele>125.19999694824</ele>
        <time>2011-12-18T11:04:31.000Z</time>
      </trkpt>
      <trkpt lat="48.85516" lon="1.85462">
        <ele>125.19999694824</ele>
        <time>2011-12-18T11:04:32.000Z</time>
      </trkpt>
      <trkpt lat="48.85517" lon="1.8548">
        <ele>124.80000305176</ele>
        <time>2011-12-18T11:04:38.000Z</time>
      </trkpt>
      <trkpt lat="48.85517" lon="1.85499">
        <ele>124.40000152588</ele>
        <time>2011-12-18T11:04:44.000Z</time>
      </trkpt>
      <trkpt lat="48.85517" lon="1.85515">
        <ele>124.19999694824</ele>
        <time>2011-12-18T11:04:50.000Z</time>
      </trkpt>
      <trkpt lat="48.85518" lon="1.85533">
        <ele>124</ele>
        <time>2011-12-18T11:04:56.000Z</time>
      </trkpt>
      <trkpt lat="48.85519" lon="1.85551">
        <ele>123.80000305176</ele>
        <time>2011-12-18T11:05:01.000Z</time>
      </trkpt>
      <trkpt lat="48.8552" lon="1.85574">
        <ele>123.40000152588</ele>
        <time>2011-12-18T11:05:08.000Z</time>
      </trkpt>
      <trkpt lat="48.8552" lon="1.8559">
        <ele>123</ele>
        <time>2011-12-18T11:05:14.000Z</time>
      </trkpt>
      <trkpt lat="48.85521" lon="1.85606">
        <ele>122.59999847412</ele>
        <time>2011-12-18T11:05:20.000Z</time>
      </trkpt>
      <trkpt lat="48.85523" lon="1.85628">
        <ele>121.80000305176</ele>
        <time>2011-12-18T11:05:28.000Z</time>
      </trkpt>
      <trkpt lat="48.85525" lon="1.85649">
        <ele>121.19999694824</ele>
        <time>2011-12-18T11:05:35.000Z</time>
      </trkpt>
      <trkpt lat="48.85525" lon="1.85675">
        <ele>120.40000152588</ele>
        <time>2011-12-18T11:05:44.000Z</time>
      </trkpt>
      <trkpt lat="48.85526" lon="1.85694">
        <ele>120.19999694824</ele>
        <time>2011-12-18T11:05:51.000Z</time>
      </trkpt>
      <trkpt lat="48.85527" lon="1.85711">
        <ele>120</ele>
        <time>2011-12-18T11:05:57.000Z</time>
      </trkpt>
      <trkpt lat="48.85528" lon="1.85735">
        <ele>119.59999847412</ele>
        <time>2011-12-18T11:06:05.000Z</time>
      </trkpt>
      <trkpt lat="48.85529" lon="1.85759">
        <ele>119.40000152588</ele>
        <time>2011-12-18T11:06:13.000Z</time>
      </trkpt>
      <trkpt lat="48.8553" lon="1.85779">
        <ele>119.59999847412</ele>
        <time>2011-12-18T11:06:20.000Z</time>
      </trkpt>
      <trkpt lat="48.85531" lon="1.85814">
        <ele>119.59999847412</ele>
        <time>2011-12-18T11:06:32.000Z</time>
      </trkpt>
      <trkpt lat="48.85533" lon="1.85837">
        <ele>119.59999847412</ele>
        <time>2011-12-18T11:06:40.000Z</time>
      </trkpt>
      <trkpt lat="48.85534" lon="1.85872">
        <ele>117.19999694824</ele>
        <time>2011-12-18T11:06:52.000Z</time>
      </trkpt>
      <trkpt lat="48.85535" lon="1.85901">
        <ele>115.19999694824</ele>
        <time>2011-12-18T11:07:02.000Z</time>
      </trkpt>
      <trkpt lat="48.85535" lon="1.85916">
        <ele>114.40000152588</ele>
        <time>2011-12-18T11:07:08.000Z</time>
      </trkpt>
      <trkpt lat="48.85535" lon="1.85929">
        <ele>113.19999694824</ele>
        <time>2011-12-18T11:07:13.000Z</time>
      </trkpt>
      <trkpt lat="48.85535" lon="1.85944">
        <ele>111.59999847412</ele>
        <time>2011-12-18T11:07:20.000Z</time>
      </trkpt>
      <trkpt lat="48.85535" lon="1.85957">
        <ele>110.40000152588</ele>
        <time>2011-12-18T11:07:25.000Z</time>
      </trkpt>
      <trkpt lat="48.85536" lon="1.85983">
        <ele>108.19999694824</ele>
        <time>2011-12-18T11:07:34.000Z</time>
      </trkpt>
      <trkpt lat="48.85536" lon="1.8599">
        <ele>107.59999847412</ele>
        <time>2011-12-18T11:07:37.000Z</time>
      </trkpt>
      <trkpt lat="48.85536" lon="1.85994">
        <ele>107</ele>
        <time>2011-12-18T11:07:39.000Z</time>
      </trkpt>
      <trkpt lat="48.85541" lon="1.8601">
        <ele>106.59999847412</ele>
        <time>2011-12-18T11:07:45.000Z</time>
      </trkpt>
      <trkpt lat="48.85546" lon="1.86021">
        <ele>106.80000305176</ele>
        <time>2011-12-18T11:07:50.000Z</time>
      </trkpt>
      <trkpt lat="48.85548" lon="1.86025">
        <ele>106.80000305176</ele>
        <time>2011-12-18T11:07:52.000Z</time>
      </trkpt>
      <trkpt lat="48.85551" lon="1.86038">
        <ele>106.59999847412</ele>
        <time>2011-12-18T11:07:57.000Z</time>
      </trkpt>
      <trkpt lat="48.85547" lon="1.86052">
        <ele>105</ele>
        <time>2011-12-18T11:08:03.000Z</time>
      </trkpt>
      <trkpt lat="48.85546" lon="1.86066">
        <ele>103.80000305176</ele>
        <time>2011-12-18T11:08:10.000Z</time>
      </trkpt>
      <trkpt lat="48.85546" lon="1.86067">
        <ele>103.59999847412</ele>
        <time>2011-12-18T11:08:13.000Z</time>
      </trkpt>
      <trkpt lat="48.85552" lon="1.86087">
        <ele>103.80000305176</ele>
        <time>2011-12-18T11:08:44.000Z</time>
      </trkpt>
      <trkpt lat="48.85555" lon="1.86095">
        <ele>103.80000305176</ele>
        <time>2011-12-18T11:08:47.000Z</time>
      </trkpt>
      <trkpt lat="48.85556" lon="1.86097">
        <ele>103.80000305176</ele>
        <time>2011-12-18T11:08:48.000Z</time>
      </trkpt>
      <trkpt lat="48.85562" lon="1.86114">
        <ele>103.59999847412</ele>
        <time>2011-12-18T11:08:55.000Z</time>
      </trkpt>
      <trkpt lat="48.85566" lon="1.86127">
        <ele>103.59999847412</ele>
        <time>2011-12-18T11:09:01.000Z</time>
      </trkpt>
      <trkpt lat="48.85571" lon="1.86141">
        <ele>103.40000152588</ele>
        <time>2011-12-18T11:09:07.000Z</time>
      </trkpt>
      <trkpt lat="48.85578" lon="1.86155">
        <ele>103.80000305176</ele>
        <time>2011-12-18T11:09:14.000Z</time>
      </trkpt>
      <trkpt lat="48.85584" lon="1.86173">
        <ele>103.19999694824</ele>
        <time>2011-12-18T11:09:21.000Z</time>
      </trkpt>
      <trkpt lat="48.85588" lon="1.86186">
        <ele>102.19999694824</ele>
        <time>2011-12-18T11:09:28.000Z</time>
      </trkpt>
      <trkpt lat="48.85588" lon="1.86198">
        <ele>100.59999847412</ele>
        <time>2011-12-18T11:09:35.000Z</time>
      </trkpt>
      <trkpt lat="48.85589" lon="1.86202">
        <ele>100.40000152588</ele>
        <time>2011-12-18T11:09:37.000Z</time>
      </trkpt>
      <trkpt lat="48.85591" lon="1.86205">
        <ele>100.19999694824</ele>
        <time>2011-12-18T11:09:39.000Z</time>
      </trkpt>
      <trkpt lat="48.85594" lon="1.86218">
        <ele>99.199996948242</ele>
        <time>2011-12-18T11:09:46.000Z</time>
      </trkpt>
      <trkpt lat="48.85595" lon="1.86223">
        <ele>98.599998474121</ele>
        <time>2011-12-18T11:09:48.000Z</time>
      </trkpt>
      <trkpt lat="48.85597" lon="1.86238">
        <ele>97.400001525879</ele>
        <time>2011-12-18T11:09:55.000Z</time>
      </trkpt>
      <trkpt lat="48.85598" lon="1.86252">
        <ele>95.800003051758</ele>
        <time>2011-12-18T11:10:01.000Z</time>
      </trkpt>
      <trkpt lat="48.85599" lon="1.8626">
        <ele>95.199996948242</ele>
        <time>2011-12-18T11:10:05.000Z</time>
      </trkpt>
      <trkpt lat="48.85604" lon="1.8627">
        <ele>95.400001525879</ele>
        <time>2011-12-18T11:10:11.000Z</time>
      </trkpt>
      <trkpt lat="48.85607" lon="1.86277">
        <ele>95.199996948242</ele>
        <time>2011-12-18T11:10:16.000Z</time>
      </trkpt>
      <trkpt lat="48.85607" lon="1.86281">
        <ele>95</ele>
        <time>2011-12-18T11:10:18.000Z</time>
      </trkpt>
      <trkpt lat="48.85608" lon="1.86288">
        <ele>94.400001525879</ele>
        <time>2011-12-18T11:10:22.000Z</time>
      </trkpt>
      <trkpt lat="48.85606" lon="1.86303">
        <ele>92.599998474121</ele>
        <time>2011-12-18T11:10:30.000Z</time>
      </trkpt>
      <trkpt lat="48.85609" lon="1.8632">
        <ele>91.800003051758</ele>
        <time>2011-12-18T11:10:37.000Z</time>
      </trkpt>
      <trkpt lat="48.85612" lon="1.86341">
        <ele>91</ele>
        <time>2011-12-18T11:10:45.000Z</time>
      </trkpt>
      <trkpt lat="48.85614" lon="1.86352">
        <ele>90.599998474121</ele>
        <time>2011-12-18T11:10:50.000Z</time>
      </trkpt>
      <trkpt lat="48.85614" lon="1.86355">
        <ele>90.599998474121</ele>
        <time>2011-12-18T11:10:51.000Z</time>
      </trkpt>
      <trkpt lat="48.85612" lon="1.86366">
        <ele>89.400001525879</ele>
        <time>2011-12-18T11:10:57.000Z</time>
      </trkpt>
      <trkpt lat="48.85611" lon="1.86376">
        <ele>88.599998474121</ele>
        <time>2011-12-18T11:11:01.000Z</time>
      </trkpt>
      <trkpt lat="48.8561" lon="1.86394">
        <ele>87.400001525879</ele>
        <time>2011-12-18T11:11:08.000Z</time>
      </trkpt>
      <trkpt lat="48.8561" lon="1.86411">
        <ele>86.199996948242</ele>
        <time>2011-12-18T11:11:14.000Z</time>
      </trkpt>
      <trkpt lat="48.85608" lon="1.86427">
        <ele>85</ele>
        <time>2011-12-18T11:11:20.000Z</time>
      </trkpt>
      <trkpt lat="48.85607" lon="1.86435">
        <ele>84.400001525879</ele>
        <time>2011-12-18T11:11:23.000Z</time>
      </trkpt>
      <trkpt lat="48.85605" lon="1.86452">
        <ele>83.199996948242</ele>
        <time>2011-12-18T11:11:30.000Z</time>
      </trkpt>
      <trkpt lat="48.85605" lon="1.86457">
        <ele>83</ele>
        <time>2011-12-18T11:11:32.000Z</time>
      </trkpt>
      <trkpt lat="48.85604" lon="1.86478">
        <ele>82.199996948242</ele>
        <time>2011-12-18T11:11:40.000Z</time>
      </trkpt>
      <trkpt lat="48.85603" lon="1.8649">
        <ele>81.400001525879</ele>
        <time>2011-12-18T11:11:45.000Z</time>
      </trkpt>
      <trkpt lat="48.85603" lon="1.86503">
        <ele>80.800003051758</ele>
        <time>2011-12-18T11:11:51.000Z</time>
      </trkpt>
      <trkpt lat="48.85603" lon="1.86512">
        <ele>80.199996948242</ele>
        <time>2011-12-18T11:11:55.000Z</time>
      </trkpt>
      <trkpt lat="48.85603" lon="1.86529">
        <ele>79</ele>
        <time>2011-12-18T11:12:02.000Z</time>
      </trkpt>
      <trkpt lat="48.85606" lon="1.8655">
        <ele>78</ele>
        <time>2011-12-18T11:12:10.000Z</time>
      </trkpt>
      <trkpt lat="48.85606" lon="1.86551">
        <ele>78</ele>
        <time>2011-12-18T11:12:11.000Z</time>
      </trkpt>
      <trkpt lat="48.85607" lon="1.86561">
        <ele>77.199996948242</ele>
        <time>2011-12-18T11:12:15.000Z</time>
      </trkpt>
      <trkpt lat="48.85607" lon="1.86564">
        <ele>77.199996948242</ele>
        <time>2011-12-18T11:12:16.000Z</time>
      </trkpt>
      <trkpt lat="48.8561" lon="1.86584">
        <ele>76.199996948242</ele>
        <time>2011-12-18T11:12:23.000Z</time>
      </trkpt>
      <trkpt lat="48.8561" lon="1.86594">
        <ele>75.199996948242</ele>
        <time>2011-12-18T11:12:27.000Z</time>
      </trkpt>
      <trkpt lat="48.85614" lon="1.86612">
        <ele>74.400001525879</ele>
        <time>2011-12-18T11:12:35.000Z</time>
      </trkpt>
      <trkpt lat="48.85616" lon="1.86631">
        <ele>73</ele>
        <time>2011-12-18T11:12:42.000Z</time>
      </trkpt>
      <trkpt lat="48.85621" lon="1.86656">
        <ele>71.199996948242</ele>
        <time>2011-12-18T11:12:52.000Z</time>
      </trkpt>
      <trkpt lat="48.85625" lon="1.86682">
        <ele>69.599998474121</ele>
        <time>2011-12-18T11:13:02.000Z</time>
      </trkpt>
      <trkpt lat="48.85628" lon="1.86709">
        <ele>68.199996948242</ele>
        <time>2011-12-18T11:13:12.000Z</time>
      </trkpt>
      <trkpt lat="48.85633" lon="1.86733">
        <ele>66.800003051758</ele>
        <time>2011-12-18T11:13:21.000Z</time>
      </trkpt>
      <trkpt lat="48.85637" lon="1.86752">
        <ele>65.800003051758</ele>
        <time>2011-12-18T11:13:28.000Z</time>
      </trkpt>
      <trkpt lat="48.85638" lon="1.86763">
        <ele>65.400001525879</ele>
        <time>2011-12-18T11:13:32.000Z</time>
      </trkpt>
      <trkpt lat="48.85641" lon="1.86782">
        <ele>64.800003051758</ele>
        <time>2011-12-18T11:13:39.000Z</time>
      </trkpt>
      <trkpt lat="48.85642" lon="1.86797">
        <ele>64.199996948242</ele>
        <time>2011-12-18T11:13:46.000Z</time>
      </trkpt>
      <trkpt lat="48.85639" lon="1.86811">
        <ele>63.599998474121</ele>
        <time>2011-12-18T11:13:52.000Z</time>
      </trkpt>
      <trkpt lat="48.85643" lon="1.86829">
        <ele>62.799999237061</ele>
        <time>2011-12-18T11:13:59.000Z</time>
      </trkpt>
      <trkpt lat="48.85646" lon="1.86853">
        <ele>61.799999237061</ele>
        <time>2011-12-18T11:14:08.000Z</time>
      </trkpt>
      <trkpt lat="48.85648" lon="1.86878">
        <ele>61</ele>
        <time>2011-12-18T11:14:17.000Z</time>
      </trkpt>
      <trkpt lat="48.85648" lon="1.86904">
        <ele>60</ele>
        <time>2011-12-18T11:14:26.000Z</time>
      </trkpt>
      <trkpt lat="48.85649" lon="1.86922">
        <ele>59.400001525879</ele>
        <time>2011-12-18T11:14:33.000Z</time>
      </trkpt>
      <trkpt lat="48.85648" lon="1.86947">
        <ele>58.599998474121</ele>
        <time>2011-12-18T11:14:43.000Z</time>
      </trkpt>
      <trkpt lat="48.85647" lon="1.86967">
        <ele>58</ele>
        <time>2011-12-18T11:14:50.000Z</time>
      </trkpt>
      <trkpt lat="48.85646" lon="1.86983">
        <ele>57.400001525879</ele>
        <time>2011-12-18T11:14:56.000Z</time>
      </trkpt>
      <trkpt lat="48.85646" lon="1.87008">
        <ele>56.799999237061</ele>
        <time>2011-12-18T11:15:05.000Z</time>
      </trkpt>
      <trkpt lat="48.85646" lon="1.87028">
        <ele>56.599998474121</ele>
        <time>2011-12-18T11:15:12.000Z</time>
      </trkpt>
      <trkpt lat="48.85648" lon="1.87054">
        <ele>56.599998474121</ele>
        <time>2011-12-18T11:15:22.000Z</time>
      </trkpt>
      <trkpt lat="48.85651" lon="1.87074">
        <ele>56.599998474121</ele>
        <time>2011-12-18T11:15:30.000Z</time>
      </trkpt>
      <trkpt lat="48.85649" lon="1.8709">
        <ele>56.599998474121</ele>
        <time>2011-12-18T11:15:36.000Z</time>
      </trkpt>
      <trkpt lat="48.85649" lon="1.87117">
        <ele>56.400001525879</ele>
        <time>2011-12-18T11:15:46.000Z</time>
      </trkpt>
      <trkpt lat="48.8565" lon="1.87139">
        <ele>56.200000762939</ele>
        <time>2011-12-18T11:15:55.000Z</time>
      </trkpt>
      <trkpt lat="48.85651" lon="1.87146">
        <ele>56.200000762939</ele>
        <time>2011-12-18T11:16:00.000Z</time>
      </trkpt>
      <trkpt lat="48.85646" lon="1.87153">
        <ele>56</ele>
        <time>2011-12-18T11:16:05.000Z</time>
      </trkpt>
      <trkpt lat="48.85638" lon="1.87156">
        <ele>56</ele>
        <time>2011-12-18T11:16:10.000Z</time>
      </trkpt>
      <trkpt lat="48.85628" lon="1.87159">
        <ele>56</ele>
        <time>2011-12-18T11:16:16.000Z</time>
      </trkpt>
      <trkpt lat="48.85616" lon="1.87162">
        <ele>56</ele>
        <time>2011-12-18T11:16:23.000Z</time>
      </trkpt>
      <trkpt lat="48.85608" lon="1.87164">
        <ele>56</ele>
        <time>2011-12-18T11:16:29.000Z</time>
      </trkpt>
      <trkpt lat="48.85591" lon="1.8717">
        <ele>56</ele>
        <time>2011-12-18T11:16:39.000Z</time>
      </trkpt>
      <trkpt lat="48.85582" lon="1.87179">
        <ele>56</ele>
        <time>2011-12-18T11:16:46.000Z</time>
      </trkpt>
      <trkpt lat="48.85583" lon="1.87195">
        <ele>56</ele>
        <time>2011-12-18T11:16:54.000Z</time>
      </trkpt>
      <trkpt lat="48.85585" lon="1.87218">
        <ele>56</ele>
        <time>2011-12-18T11:17:04.000Z</time>
      </trkpt>
      <trkpt lat="48.85584" lon="1.87235">
        <ele>56</ele>
        <time>2011-12-18T11:17:11.000Z</time>
      </trkpt>
      <trkpt lat="48.85582" lon="1.87255">
        <ele>56</ele>
        <time>2011-12-18T11:17:18.000Z</time>
      </trkpt>
      <trkpt lat="48.85577" lon="1.8727">
        <ele>56.200000762939</ele>
        <time>2011-12-18T11:17:24.000Z</time>
      </trkpt>
      <trkpt lat="48.85566" lon="1.87276">
        <ele>56.599998474121</ele>
        <time>2011-12-18T11:17:30.000Z</time>
      </trkpt>
      <trkpt lat="48.85554" lon="1.87281">
        <ele>57.200000762939</ele>
        <time>2011-12-18T11:17:37.000Z</time>
      </trkpt>
      <trkpt lat="48.85545" lon="1.87288">
        <ele>57.400001525879</ele>
        <time>2011-12-18T11:17:44.000Z</time>
      </trkpt>
      <trkpt lat="48.85539" lon="1.87298">
        <ele>57.400001525879</ele>
        <time>2011-12-18T11:17:50.000Z</time>
      </trkpt>
      <trkpt lat="48.85541" lon="1.87317">
        <ele>56.599998474121</ele>
        <time>2011-12-18T11:17:58.000Z</time>
      </trkpt>
      <trkpt lat="48.85538" lon="1.87331">
        <ele>56.200000762939</ele>
        <time>2011-12-18T11:18:04.000Z</time>
      </trkpt>
      <trkpt lat="48.85527" lon="1.87345">
        <ele>56</ele>
        <time>2011-12-18T11:18:12.000Z</time>
      </trkpt>
      <trkpt lat="48.85522" lon="1.87358">
        <ele>55.599998474121</ele>
        <time>2011-12-18T11:18:19.000Z</time>
      </trkpt>
      <trkpt lat="48.85526" lon="1.87376">
        <ele>55</ele>
        <time>2011-12-18T11:18:27.000Z</time>
      </trkpt>
      <trkpt lat="48.85531" lon="1.87389">
        <ele>54.400001525879</ele>
        <time>2011-12-18T11:18:33.000Z</time>
      </trkpt>
      <trkpt lat="48.85538" lon="1.8741">
        <ele>53.799999237061</ele>
        <time>2011-12-18T11:18:42.000Z</time>
      </trkpt>
      <trkpt lat="48.85545" lon="1.87431">
        <ele>52.799999237061</ele>
        <time>2011-12-18T11:18:52.000Z</time>
      </trkpt>
      <trkpt lat="48.85552" lon="1.87454">
        <ele>51.799999237061</ele>
        <time>2011-12-18T11:19:03.000Z</time>
      </trkpt>
      <trkpt lat="48.85562" lon="1.87472">
        <ele>50.799999237061</ele>
        <time>2011-12-18T11:19:13.000Z</time>
      </trkpt>
      <trkpt lat="48.8557" lon="1.87489">
        <ele>49.799999237061</ele>
        <time>2011-12-18T11:19:22.000Z</time>
      </trkpt>
      <trkpt lat="48.85574" lon="1.875">
        <ele>49.200000762939</ele>
        <time>2011-12-18T11:19:28.000Z</time>
      </trkpt>
      <trkpt lat="48.85577" lon="1.87506">
        <ele>49.200000762939</ele>
        <time>2011-12-18T11:19:32.000Z</time>
      </trkpt>
      <trkpt lat="48.8558" lon="1.87512">
        <ele>49</ele>
        <time>2011-12-18T11:19:37.000Z</time>
      </trkpt>
      <trkpt lat="48.85588" lon="1.87525">
        <ele>49</ele>
        <time>2011-12-18T11:19:45.000Z</time>
      </trkpt>
      <trkpt lat="48.85589" lon="1.87528">
        <ele>49</ele>
        <time>2011-12-18T11:19:47.000Z</time>
      </trkpt>
      <trkpt lat="48.85588" lon="1.87534">
        <ele>49</ele>
        <time>2011-12-18T11:19:51.000Z</time>
      </trkpt>
      <trkpt lat="48.85585" lon="1.87538">
        <ele>49</ele>
        <time>2011-12-18T11:19:54.000Z</time>
      </trkpt>
      <trkpt lat="48.85584" lon="1.87539">
        <ele>49</ele>
        <time>2011-12-18T11:19:57.000Z</time>
      </trkpt>
      <trkpt lat="48.8557" lon="1.87535">
        <ele>49.400001525879</ele>
        <time>2011-12-18T11:24:04.000Z</time>
      </trkpt>
      <trkpt lat="48.85572" lon="1.8753">
        <ele>49.200000762939</ele>
        <time>2011-12-18T11:24:09.000Z</time>
      </trkpt>
      <trkpt lat="48.85579" lon="1.87521">
        <ele>49</ele>
        <time>2011-12-18T11:31:57.000Z</time>
      </trkpt>
      <trkpt lat="48.85586" lon="1.8752">
        <ele>49</ele>
        <time>2011-12-18T11:31:59.000Z</time>
      </trkpt>
      <trkpt lat="48.85592" lon="1.87527">
        <ele>49</ele>
        <time>2011-12-18T11:32:03.000Z</time>
      </trkpt>
      <trkpt lat="48.85595" lon="1.87531">
        <ele>49</ele>
        <time>2011-12-18T11:32:07.000Z</time>
      </trkpt>
      <trkpt lat="48.85604" lon="1.87532">
        <ele>49</ele>
        <time>2011-12-18T11:32:11.000Z</time>
      </trkpt>
      <trkpt lat="48.85614" lon="1.87523">
        <ele>49.200000762939</ele>
        <time>2011-12-18T11:32:15.000Z</time>
      </trkpt>
      <trkpt lat="48.85622" lon="1.87524">
        <ele>49.200000762939</ele>
        <time>2011-12-18T11:32:18.000Z</time>
      </trkpt>
      <trkpt lat="48.85632" lon="1.87528">
        <ele>49.200000762939</ele>
        <time>2011-12-18T11:32:23.000Z</time>
      </trkpt>
      <trkpt lat="48.85641" lon="1.8753">
        <ele>49.200000762939</ele>
        <time>2011-12-18T11:32:30.000Z</time>
      </trkpt>
      <trkpt lat="48.85651" lon="1.87528">
        <ele>49.200000762939</ele>
        <time>2011-12-18T11:32:36.000Z</time>
      </trkpt>
      <trkpt lat="48.85659" lon="1.87525">
        <ele>49.200000762939</ele>
        <time>2011-12-18T11:32:42.000Z</time>
      </trkpt>
      <trkpt lat="48.85668" lon="1.87523">
        <ele>49.200000762939</ele>
        <time>2011-12-18T11:32:48.000Z</time>
      </trkpt>
      <trkpt lat="48.85675" lon="1.87521">
        <ele>49.400001525879</ele>
        <time>2011-12-18T11:32:54.000Z</time>
      </trkpt>
      <trkpt lat="48.85676" lon="1.87518">
        <ele>49.400001525879</ele>
        <time>2011-12-18T11:32:56.000Z</time>
      </trkpt>
      <trkpt lat="48.85675" lon="1.87513">
        <ele>49.200000762939</ele>
        <time>2011-12-18T11:33:01.000Z</time>
      </trkpt>
      <trkpt lat="48.85669" lon="1.87519">
        <ele>49.200000762939</ele>
        <time>2011-12-18T11:33:05.000Z</time>
      </trkpt>
      <trkpt lat="48.85668" lon="1.87519">
        <ele>49.200000762939</ele>
        <time>2011-12-18T11:33:06.000Z</time>
      </trkpt>
      <trkpt lat="48.85662" lon="1.8752">
        <ele>49.200000762939</ele>
        <time>2011-12-18T11:33:09.000Z</time>
      </trkpt>
      <trkpt lat="48.85656" lon="1.87518">
        <ele>49.200000762939</ele>
        <time>2011-12-18T11:33:13.000Z</time>
      </trkpt>
      <trkpt lat="48.85647" lon="1.87518">
        <ele>49.200000762939</ele>
        <time>2011-12-18T11:33:20.000Z</time>
      </trkpt>
      <trkpt lat="48.85638" lon="1.87521">
        <ele>49.200000762939</ele>
        <time>2011-12-18T11:33:27.000Z</time>
      </trkpt>
      <trkpt lat="48.85637" lon="1.8752">
        <ele>49.200000762939</ele>
        <time>2011-12-18T11:33:28.000Z</time>
      </trkpt>
      <trkpt lat="48.85635" lon="1.87519">
        <ele>49.200000762939</ele>
        <time>2011-12-18T11:33:32.000Z</time>
      </trkpt>
      <trkpt lat="48.85618" lon="1.87504">
        <ele>49</ele>
        <time>2011-12-18T11:35:38.000Z</time>
      </trkpt>
      <trkpt lat="48.85611" lon="1.87498">
        <ele>49</ele>
        <time>2011-12-18T11:35:43.000Z</time>
      </trkpt>
      <trkpt lat="48.8561" lon="1.87497">
        <ele>49.200000762939</ele>
        <time>2011-12-18T11:35:46.000Z</time>
      </trkpt>
      <trkpt lat="48.85608" lon="1.87486">
        <ele>49.599998474121</ele>
        <time>2011-12-18T11:35:55.000Z</time>
      </trkpt>
      <trkpt lat="48.85607" lon="1.87478">
        <ele>50</ele>
        <time>2011-12-18T11:36:00.000Z</time>
      </trkpt>
      <trkpt lat="48.85605" lon="1.87472">
        <ele>50.200000762939</ele>
        <time>2011-12-18T11:36:04.000Z</time>
      </trkpt>
      <trkpt lat="48.85605" lon="1.87468">
        <ele>50.400001525879</ele>
        <time>2011-12-18T11:36:06.000Z</time>
      </trkpt>
      <trkpt lat="48.85602" lon="1.87459">
        <ele>50.799999237061</ele>
        <time>2011-12-18T11:36:12.000Z</time>
      </trkpt>
      <trkpt lat="48.85604" lon="1.87451">
        <ele>51</ele>
        <time>2011-12-18T11:36:16.000Z</time>
      </trkpt>
      <trkpt lat="48.85607" lon="1.87444">
        <ele>51.400001525879</ele>
        <time>2011-12-18T11:36:22.000Z</time>
      </trkpt>
      <trkpt lat="48.85609" lon="1.87411">
        <ele>52.400001525879</ele>
        <time>2011-12-18T11:41:41.000Z</time>
      </trkpt>
      <trkpt lat="48.85613" lon="1.87399">
        <ele>52.599998474121</ele>
        <time>2011-12-18T11:41:47.000Z</time>
      </trkpt>
      <trkpt lat="48.85616" lon="1.87399">
        <ele>52.599998474121</ele>
        <time>2011-12-18T11:41:50.000Z</time>
      </trkpt>
      <trkpt lat="48.85623" lon="1.87403">
        <ele>52.400001525879</ele>
        <time>2011-12-18T11:41:57.000Z</time>
      </trkpt>
      <trkpt lat="48.8563" lon="1.87413">
        <ele>52</ele>
        <time>2011-12-18T11:42:05.000Z</time>
      </trkpt>
      <trkpt lat="48.85631" lon="1.87416">
        <ele>51.799999237061</ele>
        <time>2011-12-18T11:42:10.000Z</time>
      </trkpt>
      <trkpt lat="48.85636" lon="1.8742">
        <ele>51.599998474121</ele>
        <time>2011-12-18T11:42:25.000Z</time>
      </trkpt>
      <trkpt lat="48.85643" lon="1.87427">
        <ele>51.200000762939</ele>
        <time>2011-12-18T11:42:31.000Z</time>
      </trkpt>
      <trkpt lat="48.85651" lon="1.8744">
        <ele>50.799999237061</ele>
        <time>2011-12-18T11:42:40.000Z</time>
      </trkpt>
      <trkpt lat="48.85657" lon="1.87459">
        <ele>50.200000762939</ele>
        <time>2011-12-18T11:42:50.000Z</time>
      </trkpt>
      <trkpt lat="48.85659" lon="1.87468">
        <ele>49.799999237061</ele>
        <time>2011-12-18T11:42:55.000Z</time>
      </trkpt>
      <trkpt lat="48.85656" lon="1.8748">
        <ele>49.599998474121</ele>
        <time>2011-12-18T11:43:01.000Z</time>
      </trkpt>
      <trkpt lat="48.85651" lon="1.87494">
        <ele>49.200000762939</ele>
        <time>2011-12-18T11:43:08.000Z</time>
      </trkpt>
      <trkpt lat="48.85645" lon="1.87505">
        <ele>49</ele>
        <time>2011-12-18T11:43:15.000Z</time>
      </trkpt>
      <trkpt lat="48.85638" lon="1.87509">
        <ele>49</ele>
        <time>2011-12-18T11:43:21.000Z</time>
      </trkpt>
      <trkpt lat="48.85631" lon="1.87513">
        <ele>49</ele>
        <time>2011-12-18T11:43:28.000Z</time>
      </trkpt>
      <trkpt lat="48.85624" lon="1.87509">
        <ele>49</ele>
        <time>2011-12-18T11:43:34.000Z</time>
      </trkpt>
      <trkpt lat="48.85614" lon="1.87499">
        <ele>49</ele>
        <time>2011-12-18T11:43:43.000Z</time>
      </trkpt>
      <trkpt lat="48.85611" lon="1.87491">
        <ele>49.400001525879</ele>
        <time>2011-12-18T11:43:48.000Z</time>
      </trkpt>
      <trkpt lat="48.85606" lon="1.87477">
        <ele>50</ele>
        <time>2011-12-18T11:43:56.000Z</time>
      </trkpt>
      <trkpt lat="48.85604" lon="1.87463">
        <ele>50.599998474121</ele>
        <time>2011-12-18T11:44:03.000Z</time>
      </trkpt>
      <trkpt lat="48.85602" lon="1.87463">
        <ele>50.599998474121</ele>
        <time>2011-12-18T11:44:07.000Z</time>
      </trkpt>
      <trkpt lat="48.85602" lon="1.87463">
        <ele>50.599998474121</ele>
        <time>2011-12-18T11:44:09.000Z</time>
      </trkpt>
      <trkpt lat="48.85603" lon="1.87455">
        <ele>50.799999237061</ele>
        <time>2011-12-18T11:45:17.000Z</time>
      </trkpt>
      <trkpt lat="48.85604" lon="1.8746">
        <ele>50.599998474121</ele>
        <time>2011-12-18T11:45:21.000Z</time>
      </trkpt>
      <trkpt lat="48.85608" lon="1.8743">
        <ele>51.799999237061</ele>
        <time>2011-12-18T11:46:20.000Z</time>
      </trkpt>
      <trkpt lat="48.85609" lon="1.87425">
        <ele>52</ele>
        <time>2011-12-18T11:46:22.000Z</time>
      </trkpt>
      <trkpt lat="48.8561" lon="1.87424">
        <ele>52</ele>
        <time>2011-12-18T11:46:26.000Z</time>
      </trkpt>
      <trkpt lat="48.8566" lon="1.87528">
        <ele>49.400001525879</ele>
        <time>2011-12-18T11:57:44.000Z</time>
      </trkpt>
      <trkpt lat="48.85651" lon="1.87529">
        <ele>49.200000762939</ele>
        <time>2011-12-18T11:57:51.000Z</time>
      </trkpt>
      <trkpt lat="48.85642" lon="1.87532">
        <ele>49.200000762939</ele>
        <time>2011-12-18T11:57:59.000Z</time>
      </trkpt>
      <trkpt lat="48.8564" lon="1.87533">
        <ele>49.200000762939</ele>
        <time>2011-12-18T11:58:01.000Z</time>
      </trkpt>
      <trkpt lat="48.85637" lon="1.87532">
        <ele>49.200000762939</ele>
        <time>2011-12-18T11:58:06.000Z</time>
      </trkpt>
      <trkpt lat="48.85634" lon="1.87532">
        <ele>49.200000762939</ele>
        <time>2011-12-18T11:58:18.000Z</time>
      </trkpt>
      <trkpt lat="48.8563" lon="1.87531">
        <ele>49.200000762939</ele>
        <time>2011-12-18T11:58:20.000Z</time>
      </trkpt>
      <trkpt lat="48.85624" lon="1.8753">
        <ele>49.200000762939</ele>
        <time>2011-12-18T11:58:26.000Z</time>
      </trkpt>
      <trkpt lat="48.85617" lon="1.87526">
        <ele>49.200000762939</ele>
        <time>2011-12-18T11:58:33.000Z</time>
      </trkpt>
      <trkpt lat="48.85613" lon="1.87522">
        <ele>49</ele>
        <time>2011-12-18T11:58:38.000Z</time>
      </trkpt>
      <trkpt lat="48.85603" lon="1.87511">
        <ele>49</ele>
        <time>2011-12-18T11:58:48.000Z</time>
      </trkpt>
      <trkpt lat="48.85598" lon="1.87501">
        <ele>49</ele>
        <time>2011-12-18T11:58:56.000Z</time>
      </trkpt>
      <trkpt lat="48.85598" lon="1.875">
        <ele>49</ele>
        <time>2011-12-18T11:58:58.000Z</time>
      </trkpt>
      <trkpt lat="48.85564" lon="1.87457">
        <ele>51.400001525879</ele>
        <time>2011-12-18T12:02:04.000Z</time>
      </trkpt>
      <trkpt lat="48.8557" lon="1.87452">
        <ele>51.599998474121</ele>
        <time>2011-12-18T12:02:09.000Z</time>
      </trkpt>
      <trkpt lat="48.85571" lon="1.87451">
        <ele>51.599998474121</ele>
        <time>2011-12-18T12:02:10.000Z</time>
      </trkpt>
      <trkpt lat="48.85574" lon="1.87448">
        <ele>51.599998474121</ele>
        <time>2011-12-18T12:02:16.000Z</time>
      </trkpt>
      <trkpt lat="48.85576" lon="1.87446">
        <ele>51.799999237061</ele>
        <time>2011-12-18T12:02:21.000Z</time>
      </trkpt>
      <trkpt lat="48.85585" lon="1.87435">
        <ele>52</ele>
        <time>2011-12-18T12:03:13.000Z</time>
      </trkpt>
      <trkpt lat="48.85583" lon="1.87436">
        <ele>52.200000762939</ele>
        <time>2011-12-18T12:03:14.000Z</time>
      </trkpt>
      <trkpt lat="48.85577" lon="1.87437">
        <ele>52.200000762939</ele>
        <time>2011-12-18T12:03:15.000Z</time>
      </trkpt>
      <trkpt lat="48.85761" lon="1.87605">
        <ele>53.599998474121</ele>
        <time>2011-12-18T13:54:47.000Z</time>
      </trkpt>
      <trkpt lat="48.85771" lon="1.87612">
        <ele>54.400001525879</ele>
        <time>2011-12-18T13:54:53.000Z</time>
      </trkpt>
      <trkpt lat="48.85781" lon="1.87614">
        <ele>54.799999237061</ele>
        <time>2011-12-18T13:54:57.000Z</time>
      </trkpt>
      <trkpt lat="48.85796" lon="1.8761">
        <ele>54.799999237061</ele>
        <time>2011-12-18T13:55:05.000Z</time>
      </trkpt>
      <trkpt lat="48.85806" lon="1.87606">
        <ele>54.799999237061</ele>
        <time>2011-12-18T13:55:11.000Z</time>
      </trkpt>
      <trkpt lat="48.85816" lon="1.87602">
        <ele>55</ele>
        <time>2011-12-18T13:55:17.000Z</time>
      </trkpt>
      <trkpt lat="48.85832" lon="1.87595">
        <ele>54.799999237061</ele>
        <time>2011-12-18T13:55:25.000Z</time>
      </trkpt>
      <trkpt lat="48.85845" lon="1.87598">
        <ele>55.200000762939</ele>
        <time>2011-12-18T13:55:33.000Z</time>
      </trkpt>
      <trkpt lat="48.85851" lon="1.87609">
        <ele>56</ele>
        <time>2011-12-18T13:55:39.000Z</time>
      </trkpt>
      <trkpt lat="48.85855" lon="1.87627">
        <ele>57.200000762939</ele>
        <time>2011-12-18T13:55:44.000Z</time>
      </trkpt>
      <trkpt lat="48.85851" lon="1.87648">
        <ele>58.599998474121</ele>
        <time>2011-12-18T13:55:48.000Z</time>
      </trkpt>
      <trkpt lat="48.85839" lon="1.87672">
        <ele>60.400001525879</ele>
        <time>2011-12-18T13:55:53.000Z</time>
      </trkpt>
      <trkpt lat="48.85822" lon="1.87703">
        <ele>63.200000762939</ele>
        <time>2011-12-18T13:55:59.000Z</time>
      </trkpt>
      <trkpt lat="48.85809" lon="1.87727">
        <ele>65</ele>
        <time>2011-12-18T13:56:04.000Z</time>
      </trkpt>
      <trkpt lat="48.85806" lon="1.87743">
        <ele>66.400001525879</ele>
        <time>2011-12-18T13:56:08.000Z</time>
      </trkpt>
      <trkpt lat="48.85813" lon="1.87769">
        <ele>69</ele>
        <time>2011-12-18T13:56:14.000Z</time>
      </trkpt>
      <trkpt lat="48.85819" lon="1.8779">
        <ele>71</ele>
        <time>2011-12-18T13:56:19.000Z</time>
      </trkpt>
      <trkpt lat="48.85823" lon="1.87806">
        <ele>72.400001525879</ele>
        <time>2011-12-18T13:56:25.000Z</time>
      </trkpt>
      <trkpt lat="48.85825" lon="1.87812">
        <ele>73</ele>
        <time>2011-12-18T13:56:28.000Z</time>
      </trkpt>
      <trkpt lat="48.85834" lon="1.87816">
        <ele>73.599998474121</ele>
        <time>2011-12-18T13:56:35.000Z</time>
      </trkpt>
      <trkpt lat="48.8584" lon="1.87819">
        <ele>73.599998474121</ele>
        <time>2011-12-18T13:56:40.000Z</time>
      </trkpt>
      <trkpt lat="48.85844" lon="1.87816">
        <ele>73.400001525879</ele>
        <time>2011-12-18T13:56:42.000Z</time>
      </trkpt>
      <trkpt lat="48.85853" lon="1.87812">
        <ele>73</ele>
        <time>2011-12-18T13:56:47.000Z</time>
      </trkpt>
      <trkpt lat="48.85862" lon="1.87811">
        <ele>72.800003051758</ele>
        <time>2011-12-18T13:56:52.000Z</time>
      </trkpt>
      <trkpt lat="48.85873" lon="1.87809">
        <ele>72.400001525879</ele>
        <time>2011-12-18T13:56:57.000Z</time>
      </trkpt>
      <trkpt lat="48.85889" lon="1.87805">
        <ele>72</ele>
        <time>2011-12-18T13:57:04.000Z</time>
      </trkpt>
      <trkpt lat="48.85903" lon="1.87801">
        <ele>71.400001525879</ele>
        <time>2011-12-18T13:57:09.000Z</time>
      </trkpt>
      <trkpt lat="48.85927" lon="1.87794">
        <ele>71</ele>
        <time>2011-12-18T13:57:15.000Z</time>
      </trkpt>
      <trkpt lat="48.85951" lon="1.87789">
        <ele>71.400001525879</ele>
        <time>2011-12-18T13:57:22.000Z</time>
      </trkpt>
      <trkpt lat="48.85984" lon="1.87782">
        <ele>72.199996948242</ele>
        <time>2011-12-18T13:57:32.000Z</time>
      </trkpt>
      <trkpt lat="48.86003" lon="1.87786">
        <ele>73</ele>
        <time>2011-12-18T13:57:38.000Z</time>
      </trkpt>
      <trkpt lat="48.86019" lon="1.87799">
        <ele>73.800003051758</ele>
        <time>2011-12-18T13:57:44.000Z</time>
      </trkpt>
      <trkpt lat="48.86038" lon="1.87809">
        <ele>74.400001525879</ele>
        <time>2011-12-18T13:57:50.000Z</time>
      </trkpt>
      <trkpt lat="48.8606" lon="1.87814">
        <ele>74.400001525879</ele>
        <time>2011-12-18T13:57:57.000Z</time>
      </trkpt>
      <trkpt lat="48.86087" lon="1.87814">
        <ele>74</ele>
        <time>2011-12-18T13:58:05.000Z</time>
      </trkpt>
      <trkpt lat="48.86116" lon="1.87811">
        <ele>73</ele>
        <time>2011-12-18T13:58:13.000Z</time>
      </trkpt>
      <trkpt lat="48.86141" lon="1.87804">
        <ele>71.800003051758</ele>
        <time>2011-12-18T13:58:20.000Z</time>
      </trkpt>
      <trkpt lat="48.8617" lon="1.87797">
        <ele>71.199996948242</ele>
        <time>2011-12-18T13:58:28.000Z</time>
      </trkpt>
      <trkpt lat="48.86196" lon="1.8779">
        <ele>72.400001525879</ele>
        <time>2011-12-18T13:58:35.000Z</time>
      </trkpt>
      <trkpt lat="48.86221" lon="1.87783">
        <ele>73.599998474121</ele>
        <time>2011-12-18T13:58:42.000Z</time>
      </trkpt>
      <trkpt lat="48.86241" lon="1.87776">
        <ele>74.199996948242</ele>
        <time>2011-12-18T13:58:48.000Z</time>
      </trkpt>
      <trkpt lat="48.86269" lon="1.87765">
        <ele>75</ele>
        <time>2011-12-18T13:58:56.000Z</time>
      </trkpt>
      <trkpt lat="48.86302" lon="1.87754">
        <ele>76.199996948242</ele>
        <time>2011-12-18T13:59:05.000Z</time>
      </trkpt>
      <trkpt lat="48.86334" lon="1.87742">
        <ele>77.199996948242</ele>
        <time>2011-12-18T13:59:13.000Z</time>
      </trkpt>
      <trkpt lat="48.86359" lon="1.87732">
        <ele>78.400001525879</ele>
        <time>2011-12-18T13:59:20.000Z</time>
      </trkpt>
      <trkpt lat="48.86391" lon="1.87719">
        <ele>79.599998474121</ele>
        <time>2011-12-18T13:59:28.000Z</time>
      </trkpt>
      <trkpt lat="48.86416" lon="1.8771">
        <ele>80.599998474121</ele>
        <time>2011-12-18T13:59:35.000Z</time>
      </trkpt>
      <trkpt lat="48.86442" lon="1.87704">
        <ele>81.400001525879</ele>
        <time>2011-12-18T13:59:43.000Z</time>
      </trkpt>
      <trkpt lat="48.86464" lon="1.87702">
        <ele>82.400001525879</ele>
        <time>2011-12-18T13:59:49.000Z</time>
      </trkpt>
      <trkpt lat="48.86491" lon="1.87704">
        <ele>84.199996948242</ele>
        <time>2011-12-18T13:59:57.000Z</time>
      </trkpt>
      <trkpt lat="48.86502" lon="1.87705">
        <ele>84.599998474121</ele>
        <time>2011-12-18T14:00:02.000Z</time>
      </trkpt>
      <trkpt lat="48.86515" lon="1.87706">
        <ele>83.599998474121</ele>
        <time>2011-12-18T14:00:09.000Z</time>
      </trkpt>
      <trkpt lat="48.86531" lon="1.87708">
        <ele>82.800003051758</ele>
        <time>2011-12-18T14:00:17.000Z</time>
      </trkpt>
      <trkpt lat="48.86549" lon="1.87711">
        <ele>81.800003051758</ele>
        <time>2011-12-18T14:00:27.000Z</time>
      </trkpt>
      <trkpt lat="48.86565" lon="1.87715">
        <ele>81</ele>
        <time>2011-12-18T14:00:36.000Z</time>
      </trkpt>
      <trkpt lat="48.86585" lon="1.8772">
        <ele>80</ele>
        <time>2011-12-18T14:00:47.000Z</time>
      </trkpt>
      <trkpt lat="48.86592" lon="1.87722">
        <ele>79.199996948242</ele>
        <time>2011-12-18T14:00:53.000Z</time>
      </trkpt>
      <trkpt lat="48.86605" lon="1.87727">
        <ele>78.199996948242</ele>
        <time>2011-12-18T14:01:00.000Z</time>
      </trkpt>
      <trkpt lat="48.86623" lon="1.87736">
        <ele>76.599998474121</ele>
        <time>2011-12-18T14:01:10.000Z</time>
      </trkpt>
      <trkpt lat="48.86637" lon="1.87745">
        <ele>75.599998474121</ele>
        <time>2011-12-18T14:01:18.000Z</time>
      </trkpt>
      <trkpt lat="48.86649" lon="1.87757">
        <ele>74.599998474121</ele>
        <time>2011-12-18T14:01:27.000Z</time>
      </trkpt>
      <trkpt lat="48.86663" lon="1.8777">
        <ele>73.599998474121</ele>
        <time>2011-12-18T14:01:36.000Z</time>
      </trkpt>
      <trkpt lat="48.86675" lon="1.87782">
        <ele>73.400001525879</ele>
        <time>2011-12-18T14:01:44.000Z</time>
      </trkpt>
      <trkpt lat="48.86689" lon="1.87794">
        <ele>73.199996948242</ele>
        <time>2011-12-18T14:01:53.000Z</time>
      </trkpt>
      <trkpt lat="48.86702" lon="1.87804">
        <ele>73.199996948242</ele>
        <time>2011-12-18T14:02:00.000Z</time>
      </trkpt>
      <trkpt lat="48.86715" lon="1.87815">
        <ele>73</ele>
        <time>2011-12-18T14:02:07.000Z</time>
      </trkpt>
      <trkpt lat="48.86727" lon="1.87826">
        <ele>73</ele>
        <time>2011-12-18T14:02:14.000Z</time>
      </trkpt>
      <trkpt lat="48.86743" lon="1.8784">
        <ele>73</ele>
        <time>2011-12-18T14:02:23.000Z</time>
      </trkpt>
      <trkpt lat="48.86754" lon="1.87851">
        <ele>73.199996948242</ele>
        <time>2011-12-18T14:02:30.000Z</time>
      </trkpt>
      <trkpt lat="48.86759" lon="1.87855">
        <ele>73.599998474121</ele>
        <time>2011-12-18T14:02:33.000Z</time>
      </trkpt>
      <trkpt lat="48.86769" lon="1.87863">
        <ele>74</ele>
        <time>2011-12-18T14:02:39.000Z</time>
      </trkpt>
      <trkpt lat="48.86771" lon="1.87865">
        <ele>74</ele>
        <time>2011-12-18T14:02:40.000Z</time>
      </trkpt>
      <trkpt lat="48.86792" lon="1.87882">
        <ele>75</ele>
        <time>2011-12-18T14:02:51.000Z</time>
      </trkpt>
      <trkpt lat="48.86811" lon="1.879">
        <ele>75.599998474121</ele>
        <time>2011-12-18T14:03:02.000Z</time>
      </trkpt>
      <trkpt lat="48.86826" lon="1.87914">
        <ele>76</ele>
        <time>2011-12-18T14:03:10.000Z</time>
      </trkpt>
      <trkpt lat="48.8684" lon="1.87926">
        <ele>76.199996948242</ele>
        <time>2011-12-18T14:03:17.000Z</time>
      </trkpt>
      <trkpt lat="48.86856" lon="1.87941">
        <ele>76.199996948242</ele>
        <time>2011-12-18T14:03:26.000Z</time>
      </trkpt>
      <trkpt lat="48.86869" lon="1.87952">
        <ele>76</ele>
        <time>2011-12-18T14:03:33.000Z</time>
      </trkpt>
      <trkpt lat="48.86881" lon="1.87963">
        <ele>75.800003051758</ele>
        <time>2011-12-18T14:03:40.000Z</time>
      </trkpt>
      <trkpt lat="48.86892" lon="1.87972">
        <ele>75.800003051758</ele>
        <time>2011-12-18T14:03:46.000Z</time>
      </trkpt>
      <trkpt lat="48.86911" lon="1.87987">
        <ele>75.599998474121</ele>
        <time>2011-12-18T14:03:56.000Z</time>
      </trkpt>
      <trkpt lat="48.86929" lon="1.88002">
        <ele>75.599998474121</ele>
        <time>2011-12-18T14:04:06.000Z</time>
      </trkpt>
      <trkpt lat="48.86946" lon="1.88016">
        <ele>75.800003051758</ele>
        <time>2011-12-18T14:04:15.000Z</time>
      </trkpt>
      <trkpt lat="48.86964" lon="1.88029">
        <ele>76.199996948242</ele>
        <time>2011-12-18T14:04:24.000Z</time>
      </trkpt>
      <trkpt lat="48.86979" lon="1.88041">
        <ele>76.400001525879</ele>
        <time>2011-12-18T14:04:33.000Z</time>
      </trkpt>
      <trkpt lat="48.86995" lon="1.8805">
        <ele>76.400001525879</ele>
        <time>2011-12-18T14:04:42.000Z</time>
      </trkpt>
      <trkpt lat="48.8701" lon="1.88057">
        <ele>76.199996948242</ele>
        <time>2011-12-18T14:04:50.000Z</time>
      </trkpt>
      <trkpt lat="48.87025" lon="1.88063">
        <ele>76</ele>
        <time>2011-12-18T14:04:58.000Z</time>
      </trkpt>
      <trkpt lat="48.8704" lon="1.88072">
        <ele>75.800003051758</ele>
        <time>2011-12-18T14:05:06.000Z</time>
      </trkpt>
      <trkpt lat="48.87058" lon="1.88082">
        <ele>75.400001525879</ele>
        <time>2011-12-18T14:05:16.000Z</time>
      </trkpt>
      <trkpt lat="48.87074" lon="1.8809">
        <ele>74.800003051758</ele>
        <time>2011-12-18T14:05:25.000Z</time>
      </trkpt>
      <trkpt lat="48.87091" lon="1.88095">
        <ele>74.199996948242</ele>
        <time>2011-12-18T14:05:34.000Z</time>
      </trkpt>
      <trkpt lat="48.87111" lon="1.88095">
        <ele>73</ele>
        <time>2011-12-18T14:05:45.000Z</time>
      </trkpt>
      <trkpt lat="48.87127" lon="1.88091">
        <ele>72</ele>
        <time>2011-12-18T14:05:54.000Z</time>
      </trkpt>
      <trkpt lat="48.87147" lon="1.8809">
        <ele>71</ele>
        <time>2011-12-18T14:06:05.000Z</time>
      </trkpt>
      <trkpt lat="48.87152" lon="1.88091">
        <ele>70.800003051758</ele>
        <time>2011-12-18T14:06:08.000Z</time>
      </trkpt>
      <trkpt lat="48.87158" lon="1.88089">
        <ele>70.400001525879</ele>
        <time>2011-12-18T14:06:12.000Z</time>
      </trkpt>
      <trkpt lat="48.8717" lon="1.88089">
        <ele>69.599998474121</ele>
        <time>2011-12-18T14:06:19.000Z</time>
      </trkpt>
      <trkpt lat="48.8718" lon="1.88095">
        <ele>67.800003051758</ele>
        <time>2011-12-18T14:06:26.000Z</time>
      </trkpt>
      <trkpt lat="48.87182" lon="1.88096">
        <ele>67.599998474121</ele>
        <time>2011-12-18T14:06:27.000Z</time>
      </trkpt>
      <trkpt lat="48.8719" lon="1.881">
        <ele>66.199996948242</ele>
        <time>2011-12-18T14:06:32.000Z</time>
      </trkpt>
      <trkpt lat="48.872" lon="1.88101">
        <ele>64.800003051758</ele>
        <time>2011-12-18T14:06:37.000Z</time>
      </trkpt>
      <trkpt lat="48.8722" lon="1.8811">
        <ele>61.799999237061</ele>
        <time>2011-12-18T14:06:48.000Z</time>
      </trkpt>
      <trkpt lat="48.8724" lon="1.88119">
        <ele>58.599998474121</ele>
        <time>2011-12-18T14:06:59.000Z</time>
      </trkpt>
      <trkpt lat="48.87252" lon="1.88124">
        <ele>56.799999237061</ele>
        <time>2011-12-18T14:07:07.000Z</time>
      </trkpt>
      <trkpt lat="48.87266" lon="1.8813">
        <ele>55</ele>
        <time>2011-12-18T14:07:16.000Z</time>
      </trkpt>
      <trkpt lat="48.87272" lon="1.8813">
        <ele>54.400001525879</ele>
        <time>2011-12-18T14:07:20.000Z</time>
      </trkpt>
      <trkpt lat="48.87278" lon="1.88132">
        <ele>53.599998474121</ele>
        <time>2011-12-18T14:07:24.000Z</time>
      </trkpt>
      <trkpt lat="48.87283" lon="1.88136">
        <ele>53</ele>
        <time>2011-12-18T14:07:28.000Z</time>
      </trkpt>
      <trkpt lat="48.87295" lon="1.8814">
        <ele>51.400001525879</ele>
        <time>2011-12-18T14:07:37.000Z</time>
      </trkpt>
      <trkpt lat="48.87302" lon="1.88142">
        <ele>50.400001525879</ele>
        <time>2011-12-18T14:07:42.000Z</time>
      </trkpt>
      <trkpt lat="48.87309" lon="1.88133">
        <ele>49.799999237061</ele>
        <time>2011-12-18T14:07:49.000Z</time>
      </trkpt>
      <trkpt lat="48.87315" lon="1.88108">
        <ele>49.599998474121</ele>
        <time>2011-12-18T14:08:00.000Z</time>
      </trkpt>
      <trkpt lat="48.87321" lon="1.88087">
        <ele>49.400001525879</ele>
        <time>2011-12-18T14:08:09.000Z</time>
      </trkpt>
      <trkpt lat="48.87324" lon="1.88074">
        <ele>48.799999237061</ele>
        <time>2011-12-18T14:08:14.000Z</time>
      </trkpt>
      <trkpt lat="48.87326" lon="1.88056">
        <ele>48.200000762939</ele>
        <time>2011-12-18T14:08:21.000Z</time>
      </trkpt>
      <trkpt lat="48.87327" lon="1.88053">
        <ele>48</ele>
        <time>2011-12-18T14:08:22.000Z</time>
      </trkpt>
      <trkpt lat="48.8733" lon="1.88037">
        <ele>47.200000762939</ele>
        <time>2011-12-18T14:08:28.000Z</time>
      </trkpt>
      <trkpt lat="48.87333" lon="1.88032">
        <ele>46.799999237061</ele>
        <time>2011-12-18T14:08:31.000Z</time>
      </trkpt>
      <trkpt lat="48.8734" lon="1.88035">
        <ele>46.400001525879</ele>
        <time>2011-12-18T14:08:37.000Z</time>
      </trkpt>
      <trkpt lat="48.87353" lon="1.88056">
        <ele>46</ele>
        <time>2011-12-18T14:08:47.000Z</time>
      </trkpt>
      <trkpt lat="48.8736" lon="1.88071">
        <ele>45.799999237061</ele>
        <time>2011-12-18T14:08:54.000Z</time>
      </trkpt>
      <trkpt lat="48.87366" lon="1.88086">
        <ele>45.599998474121</ele>
        <time>2011-12-18T14:09:01.000Z</time>
      </trkpt>
      <trkpt lat="48.87372" lon="1.88101">
        <ele>45</ele>
        <time>2011-12-18T14:09:08.000Z</time>
      </trkpt>
      <trkpt lat="48.87381" lon="1.8812">
        <ele>44.400001525879</ele>
        <time>2011-12-18T14:09:17.000Z</time>
      </trkpt>
      <trkpt lat="48.87394" lon="1.88142">
        <ele>43.799999237061</ele>
        <time>2011-12-18T14:09:29.000Z</time>
      </trkpt>
      <trkpt lat="48.874" lon="1.88154">
        <ele>43.599998474121</ele>
        <time>2011-12-18T14:09:35.000Z</time>
      </trkpt>
      <trkpt lat="48.87406" lon="1.8817">
        <ele>43.400001525879</ele>
        <time>2011-12-18T14:09:42.000Z</time>
      </trkpt>
      <trkpt lat="48.87409" lon="1.88184">
        <ele>43.400001525879</ele>
        <time>2011-12-18T14:09:48.000Z</time>
      </trkpt>
      <trkpt lat="48.87414" lon="1.88203">
        <ele>43.599998474121</ele>
        <time>2011-12-18T14:09:56.000Z</time>
      </trkpt>
      <trkpt lat="48.87418" lon="1.88218">
        <ele>43.599998474121</ele>
        <time>2011-12-18T14:10:02.000Z</time>
      </trkpt>
      <trkpt lat="48.87423" lon="1.88236">
        <ele>44</ele>
        <time>2011-12-18T14:10:08.000Z</time>
      </trkpt>
      <trkpt lat="48.87428" lon="1.88251">
        <ele>44.200000762939</ele>
        <time>2011-12-18T14:10:15.000Z</time>
      </trkpt>
      <trkpt lat="48.87435" lon="1.88268">
        <ele>44.400001525879</ele>
        <time>2011-12-18T14:10:23.000Z</time>
      </trkpt>
      <trkpt lat="48.87439" lon="1.88279">
        <ele>44.599998474121</ele>
        <time>2011-12-18T14:10:28.000Z</time>
      </trkpt>
      <trkpt lat="48.87448" lon="1.88302">
        <ele>45</ele>
        <time>2011-12-18T14:10:39.000Z</time>
      </trkpt>
      <trkpt lat="48.87457" lon="1.88321">
        <ele>45.400001525879</ele>
        <time>2011-12-18T14:10:48.000Z</time>
      </trkpt>
      <trkpt lat="48.87468" lon="1.88346">
        <ele>45.799999237061</ele>
        <time>2011-12-18T14:10:59.000Z</time>
      </trkpt>
      <trkpt lat="48.87475" lon="1.88368">
        <ele>46.200000762939</ele>
        <time>2011-12-18T14:11:08.000Z</time>
      </trkpt>
      <trkpt lat="48.87483" lon="1.88392">
        <ele>46.599998474121</ele>
        <time>2011-12-18T14:11:18.000Z</time>
      </trkpt>
      <trkpt lat="48.8749" lon="1.88414">
        <ele>46.799999237061</ele>
        <time>2011-12-18T14:11:27.000Z</time>
      </trkpt>
      <trkpt lat="48.87494" lon="1.88443">
        <ele>47.400001525879</ele>
        <time>2011-12-18T14:11:37.000Z</time>
      </trkpt>
      <trkpt lat="48.87499" lon="1.88472">
        <ele>48.200000762939</ele>
        <time>2011-12-18T14:11:47.000Z</time>
      </trkpt>
      <trkpt lat="48.87503" lon="1.88493">
        <ele>49.400001525879</ele>
        <time>2011-12-18T14:11:55.000Z</time>
      </trkpt>
      <trkpt lat="48.87509" lon="1.8852">
        <ele>51.400001525879</ele>
        <time>2011-12-18T14:12:05.000Z</time>
      </trkpt>
      <trkpt lat="48.87513" lon="1.88533">
        <ele>52.400001525879</ele>
        <time>2011-12-18T14:12:10.000Z</time>
      </trkpt>
      <trkpt lat="48.87519" lon="1.88553">
        <ele>54</ele>
        <time>2011-12-18T14:12:18.000Z</time>
      </trkpt>
      <trkpt lat="48.87525" lon="1.88566">
        <ele>55.200000762939</ele>
        <time>2011-12-18T14:12:24.000Z</time>
      </trkpt>
      <trkpt lat="48.87534" lon="1.88582">
        <ele>56.599998474121</ele>
        <time>2011-12-18T14:12:33.000Z</time>
      </trkpt>
      <trkpt lat="48.8754" lon="1.88596">
        <ele>57.599998474121</ele>
        <time>2011-12-18T14:12:40.000Z</time>
      </trkpt>
      <trkpt lat="48.8755" lon="1.88612">
        <ele>58.799999237061</ele>
        <time>2011-12-18T14:12:49.000Z</time>
      </trkpt>
      <trkpt lat="48.87561" lon="1.88623">
        <ele>60.200000762939</ele>
        <time>2011-12-18T14:12:57.000Z</time>
      </trkpt>
      <trkpt lat="48.87569" lon="1.88634">
        <ele>61.200000762939</ele>
        <time>2011-12-18T14:13:04.000Z</time>
      </trkpt>
      <trkpt lat="48.87581" lon="1.88642">
        <ele>62.400001525879</ele>
        <time>2011-12-18T14:13:11.000Z</time>
      </trkpt>
      <trkpt lat="48.87593" lon="1.88649">
        <ele>64</ele>
        <time>2011-12-18T14:13:20.000Z</time>
      </trkpt>
      <trkpt lat="48.87607" lon="1.88663">
        <ele>66</ele>
        <time>2011-12-18T14:13:29.000Z</time>
      </trkpt>
      <trkpt lat="48.8762" lon="1.88678">
        <ele>68</ele>
        <time>2011-12-18T14:13:38.000Z</time>
      </trkpt>
      <trkpt lat="48.87629" lon="1.88688">
        <ele>69</ele>
        <time>2011-12-18T14:13:45.000Z</time>
      </trkpt>
      <trkpt lat="48.8764" lon="1.88704">
        <ele>70.599998474121</ele>
        <time>2011-12-18T14:13:54.000Z</time>
      </trkpt>
      <trkpt lat="48.8765" lon="1.88719">
        <ele>72</ele>
        <time>2011-12-18T14:14:03.000Z</time>
      </trkpt>
      <trkpt lat="48.87653" lon="1.88723">
        <ele>72.400001525879</ele>
        <time>2011-12-18T14:14:06.000Z</time>
      </trkpt>
      <trkpt lat="48.87658" lon="1.88732">
        <ele>73</ele>
        <time>2011-12-18T14:14:11.000Z</time>
      </trkpt>
      <trkpt lat="48.87663" lon="1.8875">
        <ele>73.599998474121</ele>
        <time>2011-12-18T14:14:18.000Z</time>
      </trkpt>
      <trkpt lat="48.8767" lon="1.88764">
        <ele>74.199996948242</ele>
        <time>2011-12-18T14:14:23.000Z</time>
      </trkpt>
      <trkpt lat="48.87676" lon="1.88781">
        <ele>75</ele>
        <time>2011-12-18T14:14:31.000Z</time>
      </trkpt>
      <trkpt lat="48.87683" lon="1.88801">
        <ele>75.800003051758</ele>
        <time>2011-12-18T14:14:38.000Z</time>
      </trkpt>
      <trkpt lat="48.87693" lon="1.8882">
        <ele>77.400001525879</ele>
        <time>2011-12-18T14:14:47.000Z</time>
      </trkpt>
      <trkpt lat="48.877" lon="1.8883">
        <ele>78.599998474121</ele>
        <time>2011-12-18T14:14:52.000Z</time>
      </trkpt>
      <trkpt lat="48.87701" lon="1.88831">
        <ele>78.800003051758</ele>
        <time>2011-12-18T14:14:53.000Z</time>
      </trkpt>
      <trkpt lat="48.87702" lon="1.88837">
        <ele>79</ele>
        <time>2011-12-18T14:14:57.000Z</time>
      </trkpt>
      <trkpt lat="48.87707" lon="1.88853">
        <ele>79.800003051758</ele>
        <time>2011-12-18T14:15:03.000Z</time>
      </trkpt>
      <trkpt lat="48.87709" lon="1.88872">
        <ele>80.199996948242</ele>
        <time>2011-12-18T14:15:10.000Z</time>
      </trkpt>
      <trkpt lat="48.87709" lon="1.88895">
        <ele>80.599998474121</ele>
        <time>2011-12-18T14:15:17.000Z</time>
      </trkpt>
      <trkpt lat="48.8771" lon="1.88911">
        <ele>80.800003051758</ele>
        <time>2011-12-18T14:15:23.000Z</time>
      </trkpt>
      <trkpt lat="48.87713" lon="1.88933">
        <ele>81.199996948242</ele>
        <time>2011-12-18T14:15:31.000Z</time>
      </trkpt>
      <trkpt lat="48.87715" lon="1.88953">
        <ele>81.599998474121</ele>
        <time>2011-12-18T14:15:38.000Z</time>
      </trkpt>
      <trkpt lat="48.87717" lon="1.88981">
        <ele>82</ele>
        <time>2011-12-18T14:15:48.000Z</time>
      </trkpt>
      <trkpt lat="48.87718" lon="1.8901">
        <ele>82.599998474121</ele>
        <time>2011-12-18T14:15:58.000Z</time>
      </trkpt>
      <trkpt lat="48.8772" lon="1.89036">
        <ele>83.800003051758</ele>
        <time>2011-12-18T14:16:06.000Z</time>
      </trkpt>
      <trkpt lat="48.8772" lon="1.89061">
        <ele>85</ele>
        <time>2011-12-18T14:16:15.000Z</time>
      </trkpt>
      <trkpt lat="48.87721" lon="1.89089">
        <ele>86.599998474121</ele>
        <time>2011-12-18T14:16:26.000Z</time>
      </trkpt>
      <trkpt lat="48.87723" lon="1.89109">
        <ele>88</ele>
        <time>2011-12-18T14:16:34.000Z</time>
      </trkpt>
      <trkpt lat="48.87727" lon="1.89132">
        <ele>90</ele>
        <time>2011-12-18T14:16:44.000Z</time>
      </trkpt>
      <trkpt lat="48.87731" lon="1.89151">
        <ele>91.400001525879</ele>
        <time>2011-12-18T14:16:52.000Z</time>
      </trkpt>
      <trkpt lat="48.87733" lon="1.89167">
        <ele>92.599998474121</ele>
        <time>2011-12-18T14:16:59.000Z</time>
      </trkpt>
      <trkpt lat="48.87735" lon="1.89183">
        <ele>93.599998474121</ele>
        <time>2011-12-18T14:17:06.000Z</time>
      </trkpt>
      <trkpt lat="48.87739" lon="1.89195">
        <ele>94.400001525879</ele>
        <time>2011-12-18T14:17:11.000Z</time>
      </trkpt>
      <trkpt lat="48.87742" lon="1.89217">
        <ele>95.400001525879</ele>
        <time>2011-12-18T14:17:19.000Z</time>
      </trkpt>
      <trkpt lat="48.87744" lon="1.89237">
        <ele>96.400001525879</ele>
        <time>2011-12-18T14:17:26.000Z</time>
      </trkpt>
      <trkpt lat="48.87744" lon="1.89254">
        <ele>96.800003051758</ele>
        <time>2011-12-18T14:17:32.000Z</time>
      </trkpt>
      <trkpt lat="48.87745" lon="1.89272">
        <ele>97</ele>
        <time>2011-12-18T14:17:39.000Z</time>
      </trkpt>
      <trkpt lat="48.87745" lon="1.89294">
        <ele>97</ele>
        <time>2011-12-18T14:17:47.000Z</time>
      </trkpt>
      <trkpt lat="48.87745" lon="1.89319">
        <ele>97.199996948242</ele>
        <time>2011-12-18T14:17:56.000Z</time>
      </trkpt>
      <trkpt lat="48.87746" lon="1.89338">
        <ele>97.400001525879</ele>
        <time>2011-12-18T14:18:03.000Z</time>
      </trkpt>
      <trkpt lat="48.87747" lon="1.89364">
        <ele>98.199996948242</ele>
        <time>2011-12-18T14:18:13.000Z</time>
      </trkpt>
      <trkpt lat="48.87746" lon="1.89386">
        <ele>99.199996948242</ele>
        <time>2011-12-18T14:18:20.000Z</time>
      </trkpt>
      <trkpt lat="48.87746" lon="1.89399">
        <ele>99.599998474121</ele>
        <time>2011-12-18T14:18:25.000Z</time>
      </trkpt>
      <trkpt lat="48.87746" lon="1.89418">
        <ele>100.40000152588</ele>
        <time>2011-12-18T14:18:32.000Z</time>
      </trkpt>
      <trkpt lat="48.87745" lon="1.89437">
        <ele>101.40000152588</ele>
        <time>2011-12-18T14:18:39.000Z</time>
      </trkpt>
      <trkpt lat="48.87744" lon="1.89454">
        <ele>102.19999694824</ele>
        <time>2011-12-18T14:18:46.000Z</time>
      </trkpt>
      <trkpt lat="48.87745" lon="1.89461">
        <ele>102.40000152588</ele>
        <time>2011-12-18T14:18:49.000Z</time>
      </trkpt>
      <trkpt lat="48.87746" lon="1.8948">
        <ele>103.19999694824</ele>
        <time>2011-12-18T14:18:57.000Z</time>
      </trkpt>
      <trkpt lat="48.87746" lon="1.89487">
        <ele>103.59999847412</ele>
        <time>2011-12-18T14:19:00.000Z</time>
      </trkpt>
      <trkpt lat="48.8775" lon="1.89501">
        <ele>104</ele>
        <time>2011-12-18T14:19:06.000Z</time>
      </trkpt>
      <trkpt lat="48.8775" lon="1.89504">
        <ele>104.19999694824</ele>
        <time>2011-12-18T14:19:07.000Z</time>
      </trkpt>
      <trkpt lat="48.8775" lon="1.89523">
        <ele>104.80000305176</ele>
        <time>2011-12-18T14:19:13.000Z</time>
      </trkpt>
      <trkpt lat="48.87753" lon="1.89541">
        <ele>105.59999847412</ele>
        <time>2011-12-18T14:19:20.000Z</time>
      </trkpt>
      <trkpt lat="48.87753" lon="1.89563">
        <ele>106.40000152588</ele>
        <time>2011-12-18T14:19:28.000Z</time>
      </trkpt>
      <trkpt lat="48.87755" lon="1.89579">
        <ele>107</ele>
        <time>2011-12-18T14:19:34.000Z</time>
      </trkpt>
      <trkpt lat="48.87758" lon="1.89597">
        <ele>107.59999847412</ele>
        <time>2011-12-18T14:19:41.000Z</time>
      </trkpt>
      <trkpt lat="48.87757" lon="1.89611">
        <ele>107.80000305176</ele>
        <time>2011-12-18T14:19:47.000Z</time>
      </trkpt>
      <trkpt lat="48.87761" lon="1.89629">
        <ele>108.40000152588</ele>
        <time>2011-12-18T14:19:55.000Z</time>
      </trkpt>
      <trkpt lat="48.87765" lon="1.89646">
        <ele>108.80000305176</ele>
        <time>2011-12-18T14:20:02.000Z</time>
      </trkpt>
      <trkpt lat="48.87769" lon="1.89664">
        <ele>109.40000152588</ele>
        <time>2011-12-18T14:20:09.000Z</time>
      </trkpt>
      <trkpt lat="48.87773" lon="1.89681">
        <ele>110</ele>
        <time>2011-12-18T14:20:16.000Z</time>
      </trkpt>
      <trkpt lat="48.87773" lon="1.89686">
        <ele>110</ele>
        <time>2011-12-18T14:20:18.000Z</time>
      </trkpt>
      <trkpt lat="48.87778" lon="1.89701">
        <ele>110.59999847412</ele>
        <time>2011-12-18T14:20:24.000Z</time>
      </trkpt>
      <trkpt lat="48.87782" lon="1.89714">
        <ele>111.19999694824</ele>
        <time>2011-12-18T14:20:29.000Z</time>
      </trkpt>
      <trkpt lat="48.87788" lon="1.89736">
        <ele>112</ele>
        <time>2011-12-18T14:20:36.000Z</time>
      </trkpt>
      <trkpt lat="48.87793" lon="1.89754">
        <ele>112.59999847412</ele>
        <time>2011-12-18T14:20:43.000Z</time>
      </trkpt>
      <trkpt lat="48.87797" lon="1.8977">
        <ele>113.19999694824</ele>
        <time>2011-12-18T14:20:49.000Z</time>
      </trkpt>
      <trkpt lat="48.87801" lon="1.89786">
        <ele>113.59999847412</ele>
        <time>2011-12-18T14:20:55.000Z</time>
      </trkpt>
      <trkpt lat="48.87806" lon="1.898">
        <ele>114</ele>
        <time>2011-12-18T14:21:01.000Z</time>
      </trkpt>
      <trkpt lat="48.8781" lon="1.89815">
        <ele>114.40000152588</ele>
        <time>2011-12-18T14:21:07.000Z</time>
      </trkpt>
      <trkpt lat="48.87816" lon="1.89838">
        <ele>114.80000305176</ele>
        <time>2011-12-18T14:21:16.000Z</time>
      </trkpt>
      <trkpt lat="48.8782" lon="1.89853">
        <ele>115</ele>
        <time>2011-12-18T14:21:22.000Z</time>
      </trkpt>
      <trkpt lat="48.87826" lon="1.89869">
        <ele>115.40000152588</ele>
        <time>2011-12-18T14:21:29.000Z</time>
      </trkpt>
      <trkpt lat="48.87832" lon="1.89885">
        <ele>115.59999847412</ele>
        <time>2011-12-18T14:21:35.000Z</time>
      </trkpt>
      <trkpt lat="48.87833" lon="1.89886">
        <ele>115.59999847412</ele>
        <time>2011-12-18T14:21:36.000Z</time>
      </trkpt>
      <trkpt lat="48.87841" lon="1.89905">
        <ele>115.80000305176</ele>
        <time>2011-12-18T14:21:45.000Z</time>
      </trkpt>
      <trkpt lat="48.87844" lon="1.89918">
        <ele>116</ele>
        <time>2011-12-18T14:21:50.000Z</time>
      </trkpt>
      <trkpt lat="48.87851" lon="1.8993">
        <ele>116.19999694824</ele>
        <time>2011-12-18T14:21:56.000Z</time>
      </trkpt>
      <trkpt lat="48.87858" lon="1.89942">
        <ele>116.40000152588</ele>
        <time>2011-12-18T14:22:02.000Z</time>
      </trkpt>
      <trkpt lat="48.87865" lon="1.89958">
        <ele>116.59999847412</ele>
        <time>2011-12-18T14:22:08.000Z</time>
      </trkpt>
      <trkpt lat="48.87874" lon="1.89982">
        <ele>117.19999694824</ele>
        <time>2011-12-18T14:22:15.000Z</time>
      </trkpt>
      <trkpt lat="48.87883" lon="1.90008">
        <ele>117.59999847412</ele>
        <time>2011-12-18T14:22:23.000Z</time>
      </trkpt>
      <trkpt lat="48.87892" lon="1.90039">
        <ele>118.19999694824</ele>
        <time>2011-12-18T14:22:31.000Z</time>
      </trkpt>
      <trkpt lat="48.87896" lon="1.90056">
        <ele>118.40000152588</ele>
        <time>2011-12-18T14:22:37.000Z</time>
      </trkpt>
      <trkpt lat="48.87901" lon="1.9008">
        <ele>118.80000305176</ele>
        <time>2011-12-18T14:22:47.000Z</time>
      </trkpt>
      <trkpt lat="48.87907" lon="1.90106">
        <ele>119</ele>
        <time>2011-12-18T14:22:57.000Z</time>
      </trkpt>
      <trkpt lat="48.87907" lon="1.90127">
        <ele>119</ele>
        <time>2011-12-18T14:23:04.000Z</time>
      </trkpt>
      <trkpt lat="48.87909" lon="1.90146">
        <ele>119</ele>
        <time>2011-12-18T14:23:11.000Z</time>
      </trkpt>
      <trkpt lat="48.87912" lon="1.90176">
        <ele>119.19999694824</ele>
        <time>2011-12-18T14:23:23.000Z</time>
      </trkpt>
      <trkpt lat="48.87911" lon="1.90201">
        <ele>119.40000152588</ele>
        <time>2011-12-18T14:23:33.000Z</time>
      </trkpt>
      <trkpt lat="48.87913" lon="1.90227">
        <ele>119.80000305176</ele>
        <time>2011-12-18T14:23:43.000Z</time>
      </trkpt>
      <trkpt lat="48.87916" lon="1.90259">
        <ele>120</ele>
        <time>2011-12-18T14:23:55.000Z</time>
      </trkpt>
      <trkpt lat="48.87918" lon="1.90288">
        <ele>120</ele>
        <time>2011-12-18T14:24:06.000Z</time>
      </trkpt>
      <trkpt lat="48.87921" lon="1.90312">
        <ele>120</ele>
        <time>2011-12-18T14:24:15.000Z</time>
      </trkpt>
      <trkpt lat="48.87922" lon="1.90329">
        <ele>120.19999694824</ele>
        <time>2011-12-18T14:24:21.000Z</time>
      </trkpt>
      <trkpt lat="48.87924" lon="1.9035">
        <ele>120.40000152588</ele>
        <time>2011-12-18T14:24:29.000Z</time>
      </trkpt>
      <trkpt lat="48.87925" lon="1.90363">
        <ele>120.40000152588</ele>
        <time>2011-12-18T14:24:34.000Z</time>
      </trkpt>
      <trkpt lat="48.87926" lon="1.90378">
        <ele>120.59999847412</ele>
        <time>2011-12-18T14:24:40.000Z</time>
      </trkpt>
      <trkpt lat="48.87926" lon="1.90391">
        <ele>120.80000305176</ele>
        <time>2011-12-18T14:24:45.000Z</time>
      </trkpt>
      <trkpt lat="48.87928" lon="1.90411">
        <ele>121</ele>
        <time>2011-12-18T14:24:52.000Z</time>
      </trkpt>
      <trkpt lat="48.8793" lon="1.90427">
        <ele>120.80000305176</ele>
        <time>2011-12-18T14:24:58.000Z</time>
      </trkpt>
      <trkpt lat="48.8793" lon="1.90445">
        <ele>120.59999847412</ele>
        <time>2011-12-18T14:25:05.000Z</time>
      </trkpt>
      <trkpt lat="48.87931" lon="1.90462">
        <ele>120.40000152588</ele>
        <time>2011-12-18T14:25:12.000Z</time>
      </trkpt>
      <trkpt lat="48.87932" lon="1.90476">
        <ele>120.19999694824</ele>
        <time>2011-12-18T14:25:17.000Z</time>
      </trkpt>
      <trkpt lat="48.87933" lon="1.90491">
        <ele>120.19999694824</ele>
        <time>2011-12-18T14:25:23.000Z</time>
      </trkpt>
      <trkpt lat="48.87936" lon="1.90511">
        <ele>120.19999694824</ele>
        <time>2011-12-18T14:25:30.000Z</time>
      </trkpt>
      <trkpt lat="48.87938" lon="1.90532">
        <ele>120.40000152588</ele>
        <time>2011-12-18T14:25:38.000Z</time>
      </trkpt>
      <trkpt lat="48.8794" lon="1.9056">
        <ele>120.80000305176</ele>
        <time>2011-12-18T14:25:49.000Z</time>
      </trkpt>
      <trkpt lat="48.87942" lon="1.90572">
        <ele>120.80000305176</ele>
        <time>2011-12-18T14:25:54.000Z</time>
      </trkpt>
      <trkpt lat="48.87943" lon="1.90586">
        <ele>121</ele>
        <time>2011-12-18T14:25:59.000Z</time>
      </trkpt>
      <trkpt lat="48.87948" lon="1.90602">
        <ele>121.19999694824</ele>
        <time>2011-12-18T14:26:05.000Z</time>
      </trkpt>
      <trkpt lat="48.8795" lon="1.90615">
        <ele>121.40000152588</ele>
        <time>2011-12-18T14:26:11.000Z</time>
      </trkpt>
      <trkpt lat="48.87953" lon="1.90629">
        <ele>121.59999847412</ele>
        <time>2011-12-18T14:26:17.000Z</time>
      </trkpt>
      <trkpt lat="48.87956" lon="1.90642">
        <ele>121.80000305176</ele>
        <time>2011-12-18T14:26:22.000Z</time>
      </trkpt>
      <trkpt lat="48.87959" lon="1.90662">
        <ele>122</ele>
        <time>2011-12-18T14:26:30.000Z</time>
      </trkpt>
      <trkpt lat="48.87964" lon="1.9068">
        <ele>121.80000305176</ele>
        <time>2011-12-18T14:26:37.000Z</time>
      </trkpt>
      <trkpt lat="48.87967" lon="1.90694">
        <ele>121.80000305176</ele>
        <time>2011-12-18T14:26:43.000Z</time>
      </trkpt>
      <trkpt lat="48.87972" lon="1.90715">
        <ele>121.59999847412</ele>
        <time>2011-12-18T14:26:51.000Z</time>
      </trkpt>
      <trkpt lat="48.87975" lon="1.90728">
        <ele>121.59999847412</ele>
        <time>2011-12-18T14:26:56.000Z</time>
      </trkpt>
      <trkpt lat="48.87978" lon="1.90737">
        <ele>121.59999847412</ele>
        <time>2011-12-18T14:27:00.000Z</time>
      </trkpt>
      <trkpt lat="48.87983" lon="1.90757">
        <ele>121.40000152588</ele>
        <time>2011-12-18T14:27:08.000Z</time>
      </trkpt>
      <trkpt lat="48.87988" lon="1.90771">
        <ele>121.19999694824</ele>
        <time>2011-12-18T14:27:14.000Z</time>
      </trkpt>
      <trkpt lat="48.87993" lon="1.90784">
        <ele>121.19999694824</ele>
        <time>2011-12-18T14:27:20.000Z</time>
      </trkpt>
      <trkpt lat="48.87997" lon="1.90797">
        <ele>121</ele>
        <time>2011-12-18T14:27:26.000Z</time>
      </trkpt>
      <trkpt lat="48.88002" lon="1.90809">
        <ele>121</ele>
        <time>2011-12-18T14:27:31.000Z</time>
      </trkpt>
      <trkpt lat="48.88009" lon="1.90828">
        <ele>121.19999694824</ele>
        <time>2011-12-18T14:27:39.000Z</time>
      </trkpt>
      <trkpt lat="48.88013" lon="1.90837">
        <ele>121.19999694824</ele>
        <time>2011-12-18T14:27:43.000Z</time>
      </trkpt>
      <trkpt lat="48.88019" lon="1.90853">
        <ele>121.59999847412</ele>
        <time>2011-12-18T14:27:50.000Z</time>
      </trkpt>
      <trkpt lat="48.8803" lon="1.90881">
        <ele>122</ele>
        <time>2011-12-18T14:28:03.000Z</time>
      </trkpt>
      <trkpt lat="48.88037" lon="1.909">
        <ele>122.40000152588</ele>
        <time>2011-12-18T14:28:12.000Z</time>
      </trkpt>
      <trkpt lat="48.88044" lon="1.9092">
        <ele>122.40000152588</ele>
        <time>2011-12-18T14:28:20.000Z</time>
      </trkpt>
      <trkpt lat="48.88049" lon="1.90937">
        <ele>122.19999694824</ele>
        <time>2011-12-18T14:28:27.000Z</time>
      </trkpt>
      <trkpt lat="48.88054" lon="1.90955">
        <ele>121.80000305176</ele>
        <time>2011-12-18T14:28:34.000Z</time>
      </trkpt>
      <trkpt lat="48.88061" lon="1.9098">
        <ele>121.40000152588</ele>
        <time>2011-12-18T14:28:44.000Z</time>
      </trkpt>
      <trkpt lat="48.88065" lon="1.90995">
        <ele>121.19999694824</ele>
        <time>2011-12-18T14:28:50.000Z</time>
      </trkpt>
      <trkpt lat="48.88071" lon="1.91021">
        <ele>121.19999694824</ele>
        <time>2011-12-18T14:29:01.000Z</time>
      </trkpt>
      <trkpt lat="48.88077" lon="1.91044">
        <ele>121</ele>
        <time>2011-12-18T14:29:10.000Z</time>
      </trkpt>
      <trkpt lat="48.88083" lon="1.91069">
        <ele>121</ele>
        <time>2011-12-18T14:29:20.000Z</time>
      </trkpt>
      <trkpt lat="48.88087" lon="1.91086">
        <ele>121</ele>
        <time>2011-12-18T14:29:26.000Z</time>
      </trkpt>
      <trkpt lat="48.88091" lon="1.91102">
        <ele>121.40000152588</ele>
        <time>2011-12-18T14:29:31.000Z</time>
      </trkpt>
      <trkpt lat="48.88095" lon="1.91121">
        <ele>121.59999847412</ele>
        <time>2011-12-18T14:29:38.000Z</time>
      </trkpt>
      <trkpt lat="48.88103" lon="1.9115">
        <ele>122</ele>
        <time>2011-12-18T14:29:49.000Z</time>
      </trkpt>
      <trkpt lat="48.88107" lon="1.91166">
        <ele>122.19999694824</ele>
        <time>2011-12-18T14:29:55.000Z</time>
      </trkpt>
      <trkpt lat="48.88111" lon="1.91185">
        <ele>122.19999694824</ele>
        <time>2011-12-18T14:30:02.000Z</time>
      </trkpt>
      <trkpt lat="48.88116" lon="1.91203">
        <ele>122.19999694824</ele>
        <time>2011-12-18T14:30:09.000Z</time>
      </trkpt>
      <trkpt lat="48.88121" lon="1.91223">
        <ele>122</ele>
        <time>2011-12-18T14:30:17.000Z</time>
      </trkpt>
      <trkpt lat="48.88125" lon="1.91246">
        <ele>122</ele>
        <time>2011-12-18T14:30:26.000Z</time>
      </trkpt>
      <trkpt lat="48.8813" lon="1.91263">
        <ele>122</ele>
        <time>2011-12-18T14:30:33.000Z</time>
      </trkpt>
      <trkpt lat="48.88135" lon="1.91289">
        <ele>122</ele>
        <time>2011-12-18T14:30:43.000Z</time>
      </trkpt>
      <trkpt lat="48.88139" lon="1.91307">
        <ele>121.80000305176</ele>
        <time>2011-12-18T14:30:50.000Z</time>
      </trkpt>
      <trkpt lat="48.88143" lon="1.91326">
        <ele>121.80000305176</ele>
        <time>2011-12-18T14:30:57.000Z</time>
      </trkpt>
      <trkpt lat="48.88146" lon="1.91338">
        <ele>121.80000305176</ele>
        <time>2011-12-18T14:31:02.000Z</time>
      </trkpt>
      <trkpt lat="48.88152" lon="1.9136">
        <ele>121.80000305176</ele>
        <time>2011-12-18T14:31:11.000Z</time>
      </trkpt>
      <trkpt lat="48.88157" lon="1.91373">
        <ele>121.80000305176</ele>
        <time>2011-12-18T14:31:17.000Z</time>
      </trkpt>
      <trkpt lat="48.88161" lon="1.91388">
        <ele>122</ele>
        <time>2011-12-18T14:31:23.000Z</time>
      </trkpt>
      <trkpt lat="48.88164" lon="1.91396">
        <ele>122</ele>
        <time>2011-12-18T14:31:27.000Z</time>
      </trkpt>
      <trkpt lat="48.88173" lon="1.91419">
        <ele>122</ele>
        <time>2011-12-18T14:31:37.000Z</time>
      </trkpt>
      <trkpt lat="48.88175" lon="1.91424">
        <ele>121.80000305176</ele>
        <time>2011-12-18T14:31:40.000Z</time>
      </trkpt>
      <trkpt lat="48.8818" lon="1.91435">
        <ele>121.59999847412</ele>
        <time>2011-12-18T14:31:46.000Z</time>
      </trkpt>
      <trkpt lat="48.88185" lon="1.91446">
        <ele>121.59999847412</ele>
        <time>2011-12-18T14:31:52.000Z</time>
      </trkpt>
      <trkpt lat="48.88192" lon="1.91461">
        <ele>121.40000152588</ele>
        <time>2011-12-18T14:32:00.000Z</time>
      </trkpt>
      <trkpt lat="48.88193" lon="1.91464">
        <ele>121.40000152588</ele>
        <time>2011-12-18T14:32:01.000Z</time>
      </trkpt>
      <trkpt lat="48.88199" lon="1.91476">
        <ele>121.40000152588</ele>
        <time>2011-12-18T14:32:07.000Z</time>
      </trkpt>
      <trkpt lat="48.88206" lon="1.91494">
        <ele>121.40000152588</ele>
        <time>2011-12-18T14:32:17.000Z</time>
      </trkpt>
      <trkpt lat="48.88213" lon="1.91509">
        <ele>121.40000152588</ele>
        <time>2011-12-18T14:32:26.000Z</time>
      </trkpt>
      <trkpt lat="48.88215" lon="1.91513">
        <ele>121.40000152588</ele>
        <time>2011-12-18T14:32:28.000Z</time>
      </trkpt>
      <trkpt lat="48.88222" lon="1.91528">
        <ele>121.19999694824</ele>
        <time>2011-12-18T14:32:36.000Z</time>
      </trkpt>
      <trkpt lat="48.88224" lon="1.91543">
        <ele>120.80000305176</ele>
        <time>2011-12-18T14:32:43.000Z</time>
      </trkpt>
      <trkpt lat="48.88221" lon="1.91557">
        <ele>120.59999847412</ele>
        <time>2011-12-18T14:32:49.000Z</time>
      </trkpt>
      <trkpt lat="48.88218" lon="1.91569">
        <ele>120.19999694824</ele>
        <time>2011-12-18T14:32:54.000Z</time>
      </trkpt>
      <trkpt lat="48.88215" lon="1.91585">
        <ele>120</ele>
        <time>2011-12-18T14:33:00.000Z</time>
      </trkpt>
      <trkpt lat="48.88213" lon="1.91597">
        <ele>119.80000305176</ele>
        <time>2011-12-18T14:33:05.000Z</time>
      </trkpt>
      <trkpt lat="48.88211" lon="1.91609">
        <ele>119.59999847412</ele>
        <time>2011-12-18T14:33:11.000Z</time>
      </trkpt>
      <trkpt lat="48.8821" lon="1.91619">
        <ele>119.40000152588</ele>
        <time>2011-12-18T14:33:17.000Z</time>
      </trkpt>
      <trkpt lat="48.88207" lon="1.91635">
        <ele>119</ele>
        <time>2011-12-18T14:33:24.000Z</time>
      </trkpt>
      <trkpt lat="48.88205" lon="1.91643">
        <ele>118.80000305176</ele>
        <time>2011-12-18T14:33:27.000Z</time>
      </trkpt>
      <trkpt lat="48.88201" lon="1.91661">
        <ele>118.59999847412</ele>
        <time>2011-12-18T14:33:35.000Z</time>
      </trkpt>
      <trkpt lat="48.88197" lon="1.91682">
        <ele>117.80000305176</ele>
        <time>2011-12-18T14:33:44.000Z</time>
      </trkpt>
      <trkpt lat="48.88194" lon="1.91699">
        <ele>117.19999694824</ele>
        <time>2011-12-18T14:33:51.000Z</time>
      </trkpt>
      <trkpt lat="48.88192" lon="1.91713">
        <ele>116.80000305176</ele>
        <time>2011-12-18T14:33:57.000Z</time>
      </trkpt>
      <trkpt lat="48.88189" lon="1.91722">
        <ele>116.40000152588</ele>
        <time>2011-12-18T14:34:01.000Z</time>
      </trkpt>
      <trkpt lat="48.88187" lon="1.91735">
        <ele>116</ele>
        <time>2011-12-18T14:34:06.000Z</time>
      </trkpt>
      <trkpt lat="48.88184" lon="1.91758">
        <ele>115.40000152588</ele>
        <time>2011-12-18T14:34:15.000Z</time>
      </trkpt>
      <trkpt lat="48.8818" lon="1.91772">
        <ele>115</ele>
        <time>2011-12-18T14:34:21.000Z</time>
      </trkpt>
      <trkpt lat="48.88176" lon="1.91791">
        <ele>114.80000305176</ele>
        <time>2011-12-18T14:34:29.000Z</time>
      </trkpt>
      <trkpt lat="48.88172" lon="1.91811">
        <ele>114.40000152588</ele>
        <time>2011-12-18T14:34:38.000Z</time>
      </trkpt>
      <trkpt lat="48.88165" lon="1.91837">
        <ele>114</ele>
        <time>2011-12-18T14:34:50.000Z</time>
      </trkpt>
      <trkpt lat="48.88158" lon="1.91859">
        <ele>113.40000152588</ele>
        <time>2011-12-18T14:35:00.000Z</time>
      </trkpt>
      <trkpt lat="48.88151" lon="1.9188">
        <ele>113</ele>
        <time>2011-12-18T14:35:10.000Z</time>
      </trkpt>
      <trkpt lat="48.88143" lon="1.91904">
        <ele>112.59999847412</ele>
        <time>2011-12-18T14:35:21.000Z</time>
      </trkpt>
      <trkpt lat="48.88135" lon="1.91925">
        <ele>112</ele>
        <time>2011-12-18T14:35:32.000Z</time>
      </trkpt>
      <trkpt lat="48.88131" lon="1.91944">
        <ele>111.40000152588</ele>
        <time>2011-12-18T14:35:40.000Z</time>
      </trkpt>
      <trkpt lat="48.88128" lon="1.91969">
        <ele>110.59999847412</ele>
        <time>2011-12-18T14:35:50.000Z</time>
      </trkpt>
      <trkpt lat="48.88127" lon="1.91995">
        <ele>109.80000305176</ele>
        <time>2011-12-18T14:36:01.000Z</time>
      </trkpt>
      <trkpt lat="48.88126" lon="1.92022">
        <ele>109.40000152588</ele>
        <time>2011-12-18T14:36:13.000Z</time>
      </trkpt>
      <trkpt lat="48.88126" lon="1.9205">
        <ele>109</ele>
        <time>2011-12-18T14:36:25.000Z</time>
      </trkpt>
      <trkpt lat="48.88125" lon="1.92069">
        <ele>108.59999847412</ele>
        <time>2011-12-18T14:36:33.000Z</time>
      </trkpt>
      <trkpt lat="48.88128" lon="1.92088">
        <ele>108.59999847412</ele>
        <time>2011-12-18T14:36:41.000Z</time>
      </trkpt>
      <trkpt lat="48.88133" lon="1.92099">
        <ele>108.80000305176</ele>
        <time>2011-12-18T14:36:47.000Z</time>
      </trkpt>
      <trkpt lat="48.88141" lon="1.92112">
        <ele>109.19999694824</ele>
        <time>2011-12-18T14:36:54.000Z</time>
      </trkpt>
      <trkpt lat="48.88143" lon="1.92115">
        <ele>109.40000152588</ele>
        <time>2011-12-18T14:36:56.000Z</time>
      </trkpt>
      <trkpt lat="48.88147" lon="1.92124">
        <ele>109.59999847412</ele>
        <time>2011-12-18T14:37:02.000Z</time>
      </trkpt>
      <trkpt lat="48.88157" lon="1.92132">
        <ele>110.19999694824</ele>
        <time>2011-12-18T14:37:09.000Z</time>
      </trkpt>
      <trkpt lat="48.88166" lon="1.92142">
        <ele>110.59999847412</ele>
        <time>2011-12-18T14:37:15.000Z</time>
      </trkpt>
      <trkpt lat="48.88176" lon="1.92153">
        <ele>110.59999847412</ele>
        <time>2011-12-18T14:37:22.000Z</time>
      </trkpt>
      <trkpt lat="48.88193" lon="1.92173">
        <ele>110.59999847412</ele>
        <time>2011-12-18T14:37:34.000Z</time>
      </trkpt>
      <trkpt lat="48.88202" lon="1.92185">
        <ele>110.59999847412</ele>
        <time>2011-12-18T14:37:41.000Z</time>
      </trkpt>
      <trkpt lat="48.88203" lon="1.92195">
        <ele>110.40000152588</ele>
        <time>2011-12-18T14:37:45.000Z</time>
      </trkpt>
      <trkpt lat="48.882" lon="1.92217">
        <ele>109.80000305176</ele>
        <time>2011-12-18T14:37:53.000Z</time>
      </trkpt>
      <trkpt lat="48.882" lon="1.92238">
        <ele>109.40000152588</ele>
        <time>2011-12-18T14:38:01.000Z</time>
      </trkpt>
      <trkpt lat="48.88201" lon="1.92258">
        <ele>109</ele>
        <time>2011-12-18T14:38:09.000Z</time>
      </trkpt>
      <trkpt lat="48.88196" lon="1.92276">
        <ele>108.40000152588</ele>
        <time>2011-12-18T14:38:16.000Z</time>
      </trkpt>
      <trkpt lat="48.88184" lon="1.92302">
        <ele>107.19999694824</ele>
        <time>2011-12-18T14:38:28.000Z</time>
      </trkpt>
      <trkpt lat="48.88176" lon="1.92317">
        <ele>106.59999847412</ele>
        <time>2011-12-18T14:38:36.000Z</time>
      </trkpt>
      <trkpt lat="48.88171" lon="1.92333">
        <ele>106.19999694824</ele>
        <time>2011-12-18T14:38:43.000Z</time>
      </trkpt>
      <trkpt lat="48.88166" lon="1.92349">
        <ele>105.19999694824</ele>
        <time>2011-12-18T14:38:50.000Z</time>
      </trkpt>
      <trkpt lat="48.88162" lon="1.92362">
        <ele>104.19999694824</ele>
        <time>2011-12-18T14:38:57.000Z</time>
      </trkpt>
      <trkpt lat="48.88155" lon="1.9238">
        <ele>103</ele>
        <time>2011-12-18T14:39:05.000Z</time>
      </trkpt>
      <trkpt lat="48.88155" lon="1.92392">
        <ele>102.40000152588</ele>
        <time>2011-12-18T14:39:11.000Z</time>
      </trkpt>
      <trkpt lat="48.88157" lon="1.92393">
        <ele>102.59999847412</ele>
        <time>2011-12-18T14:39:15.000Z</time>
      </trkpt>
      <trkpt lat="48.88162" lon="1.92398">
        <ele>102.59999847412</ele>
        <time>2011-12-18T14:39:23.000Z</time>
      </trkpt>
      <trkpt lat="48.88169" lon="1.92404">
        <ele>102.59999847412</ele>
        <time>2011-12-18T14:39:29.000Z</time>
      </trkpt>
      <trkpt lat="48.88173" lon="1.92409">
        <ele>102.59999847412</ele>
        <time>2011-12-18T14:39:35.000Z</time>
      </trkpt>
      <trkpt lat="48.88176" lon="1.92414">
        <ele>102.40000152588</ele>
        <time>2011-12-18T14:39:48.000Z</time>
      </trkpt>
      <trkpt lat="48.8818" lon="1.92429">
        <ele>102</ele>
        <time>2011-12-18T14:39:54.000Z</time>
      </trkpt>
      <trkpt lat="48.88181" lon="1.92432">
        <ele>101.80000305176</ele>
        <time>2011-12-18T14:39:55.000Z</time>
      </trkpt>
      <trkpt lat="48.88181" lon="1.92455">
        <ele>100.80000305176</ele>
        <time>2011-12-18T14:40:04.000Z</time>
      </trkpt>
      <trkpt lat="48.88182" lon="1.92476">
        <ele>99.800003051758</ele>
        <time>2011-12-18T14:40:12.000Z</time>
      </trkpt>
      <trkpt lat="48.88182" lon="1.92482">
        <ele>99.599998474121</ele>
        <time>2011-12-18T14:40:14.000Z</time>
      </trkpt>
      <trkpt lat="48.88182" lon="1.92491">
        <ele>99.199996948242</ele>
        <time>2011-12-18T14:40:18.000Z</time>
      </trkpt>
      <trkpt lat="48.88183" lon="1.92505">
        <ele>98.800003051758</ele>
        <time>2011-12-18T14:40:24.000Z</time>
      </trkpt>
      <trkpt lat="48.88187" lon="1.92522">
        <ele>98.800003051758</ele>
        <time>2011-12-18T14:40:31.000Z</time>
      </trkpt>
      <trkpt lat="48.88193" lon="1.92536">
        <ele>99</ele>
        <time>2011-12-18T14:40:37.000Z</time>
      </trkpt>
      <trkpt lat="48.88202" lon="1.92559">
        <ele>99.199996948242</ele>
        <time>2011-12-18T14:40:47.000Z</time>
      </trkpt>
      <trkpt lat="48.88204" lon="1.92568">
        <ele>99.400001525879</ele>
        <time>2011-12-18T14:40:53.000Z</time>
      </trkpt>
      <trkpt lat="48.88204" lon="1.92568">
        <ele>99.400001525879</ele>
        <time>2011-12-18T14:40:54.000Z</time>
      </trkpt>
      <trkpt lat="48.88207" lon="1.92579">
        <ele>99.400001525879</ele>
        <time>2011-12-18T14:41:02.000Z</time>
      </trkpt>
      <trkpt lat="48.88206" lon="1.92598">
        <ele>99.599998474121</ele>
        <time>2011-12-18T14:41:07.000Z</time>
      </trkpt>
      <trkpt lat="48.8821" lon="1.92622">
        <ele>100.19999694824</ele>
        <time>2011-12-18T14:41:13.000Z</time>
      </trkpt>
      <trkpt lat="48.8821" lon="1.92625">
        <ele>100.40000152588</ele>
        <time>2011-12-18T14:41:14.000Z</time>
      </trkpt>
      <trkpt lat="48.8821" lon="1.92634">
        <ele>100.59999847412</ele>
        <time>2011-12-18T14:41:20.000Z</time>
      </trkpt>
      <trkpt lat="48.88213" lon="1.92654">
        <ele>101</ele>
        <time>2011-12-18T14:41:26.000Z</time>
      </trkpt>
      <trkpt lat="48.88216" lon="1.92675">
        <ele>101.80000305176</ele>
        <time>2011-12-18T14:41:32.000Z</time>
      </trkpt>
      <trkpt lat="48.8822" lon="1.92697">
        <ele>103</ele>
        <time>2011-12-18T14:41:38.000Z</time>
      </trkpt>
      <trkpt lat="48.88225" lon="1.92723">
        <ele>104.40000152588</ele>
        <time>2011-12-18T14:41:44.000Z</time>
      </trkpt>
      <trkpt lat="48.88237" lon="1.92738">
        <ele>105.80000305176</ele>
        <time>2011-12-18T14:41:49.000Z</time>
      </trkpt>
      <trkpt lat="48.88256" lon="1.92756">
        <ele>107.19999694824</ele>
        <time>2011-12-18T14:41:55.000Z</time>
      </trkpt>
      <trkpt lat="48.88271" lon="1.92771">
        <ele>108.19999694824</ele>
        <time>2011-12-18T14:42:00.000Z</time>
      </trkpt>
      <trkpt lat="48.88285" lon="1.92796">
        <ele>109.59999847412</ele>
        <time>2011-12-18T14:42:06.000Z</time>
      </trkpt>
      <trkpt lat="48.88293" lon="1.92821">
        <ele>110.80000305176</ele>
        <time>2011-12-18T14:42:11.000Z</time>
      </trkpt>
      <trkpt lat="48.88296" lon="1.92846">
        <ele>111.59999847412</ele>
        <time>2011-12-18T14:42:16.000Z</time>
      </trkpt>
      <trkpt lat="48.88298" lon="1.92878">
        <ele>112.80000305176</ele>
        <time>2011-12-18T14:42:22.000Z</time>
      </trkpt>
      <trkpt lat="48.88305" lon="1.92917">
        <ele>114.40000152588</ele>
        <time>2011-12-18T14:42:29.000Z</time>
      </trkpt>
      <trkpt lat="48.88312" lon="1.92946">
        <ele>115.80000305176</ele>
        <time>2011-12-18T14:42:34.000Z</time>
      </trkpt>
      <trkpt lat="48.88318" lon="1.92979">
        <ele>117.40000152588</ele>
        <time>2011-12-18T14:42:40.000Z</time>
      </trkpt>
      <trkpt lat="48.88328" lon="1.93015">
        <ele>118.40000152588</ele>
        <time>2011-12-18T14:42:47.000Z</time>
      </trkpt>
      <trkpt lat="48.88337" lon="1.9304">
        <ele>118.19999694824</ele>
        <time>2011-12-18T14:42:52.000Z</time>
      </trkpt>
      <trkpt lat="48.88342" lon="1.93058">
        <ele>118</ele>
        <time>2011-12-18T14:42:56.000Z</time>
      </trkpt>
      <trkpt lat="48.88348" lon="1.93078">
        <ele>117.59999847412</ele>
        <time>2011-12-18T14:43:02.000Z</time>
      </trkpt>
      <trkpt lat="48.88356" lon="1.93097">
        <ele>117.40000152588</ele>
        <time>2011-12-18T14:43:08.000Z</time>
      </trkpt>
      <trkpt lat="48.88363" lon="1.93111">
        <ele>117.40000152588</ele>
        <time>2011-12-18T14:43:13.000Z</time>
      </trkpt>
      <trkpt lat="48.88366" lon="1.93115">
        <ele>117.40000152588</ele>
        <time>2011-12-18T14:43:15.000Z</time>
      </trkpt>
      <trkpt lat="48.88371" lon="1.93114">
        <ele>117.59999847412</ele>
        <time>2011-12-18T14:43:21.000Z</time>
      </trkpt>
      <trkpt lat="48.88377" lon="1.93101">
        <ele>118.19999694824</ele>
        <time>2011-12-18T14:43:27.000Z</time>
      </trkpt>
      <trkpt lat="48.88381" lon="1.93091">
        <ele>118.59999847412</ele>
        <time>2011-12-18T14:43:32.000Z</time>
      </trkpt>
      <trkpt lat="48.88388" lon="1.93076">
        <ele>119</ele>
        <time>2011-12-18T14:43:41.000Z</time>
      </trkpt>
      <trkpt lat="48.88388" lon="1.93075">
        <ele>119.19999694824</ele>
        <time>2011-12-18T14:43:42.000Z</time>
      </trkpt>
      <trkpt lat="48.88393" lon="1.9307">
        <ele>119.40000152588</ele>
        <time>2011-12-18T14:43:48.000Z</time>
      </trkpt>
      <trkpt lat="48.88402" lon="1.93075">
        <ele>119.59999847412</ele>
        <time>2011-12-18T14:43:55.000Z</time>
      </trkpt>
      <trkpt lat="48.88409" lon="1.93081">
        <ele>119.80000305176</ele>
        <time>2011-12-18T14:44:00.000Z</time>
      </trkpt>
      <trkpt lat="48.88412" lon="1.93086">
        <ele>119.80000305176</ele>
        <time>2011-12-18T14:44:03.000Z</time>
      </trkpt>
      <trkpt lat="48.88425" lon="1.93096">
        <ele>119.40000152588</ele>
        <time>2011-12-18T14:44:10.000Z</time>
      </trkpt>
      <trkpt lat="48.88434" lon="1.93101">
        <ele>119.19999694824</ele>
        <time>2011-12-18T14:44:17.000Z</time>
      </trkpt>
      <trkpt lat="48.88445" lon="1.93107">
        <ele>118.80000305176</ele>
        <time>2011-12-18T14:44:25.000Z</time>
      </trkpt>
      <trkpt lat="48.88457" lon="1.93114">
        <ele>118.59999847412</ele>
        <time>2011-12-18T14:44:33.000Z</time>
      </trkpt>
      <trkpt lat="48.88474" lon="1.93126">
        <ele>118.40000152588</ele>
        <time>2011-12-18T14:44:44.000Z</time>
      </trkpt>
      <trkpt lat="48.88489" lon="1.93136">
        <ele>118.40000152588</ele>
        <time>2011-12-18T14:44:54.000Z</time>
      </trkpt>
      <trkpt lat="48.88498" lon="1.93143">
        <ele>118.40000152588</ele>
        <time>2011-12-18T14:45:00.000Z</time>
      </trkpt>
      <trkpt lat="48.88514" lon="1.93152">
        <ele>118.40000152588</ele>
        <time>2011-12-18T14:45:09.000Z</time>
      </trkpt>
      <trkpt lat="48.88526" lon="1.93161">
        <ele>118.59999847412</ele>
        <time>2011-12-18T14:45:16.000Z</time>
      </trkpt>
      <trkpt lat="48.88542" lon="1.93172">
        <ele>118.59999847412</ele>
        <time>2011-12-18T14:45:24.000Z</time>
      </trkpt>
      <trkpt lat="48.8855" lon="1.93191">
        <ele>119</ele>
        <time>2011-12-18T14:45:29.000Z</time>
      </trkpt>
      <trkpt lat="48.88556" lon="1.93216">
        <ele>119.59999847412</ele>
        <time>2011-12-18T14:45:34.000Z</time>
      </trkpt>
      <trkpt lat="48.88572" lon="1.93244">
        <ele>120.59999847412</ele>
        <time>2011-12-18T14:45:40.000Z</time>
      </trkpt>
      <trkpt lat="48.88603" lon="1.93294">
        <ele>122</ele>
        <time>2011-12-18T14:45:51.000Z</time>
      </trkpt>
      <trkpt lat="48.88622" lon="1.93326">
        <ele>122.80000305176</ele>
        <time>2011-12-18T14:45:58.000Z</time>
      </trkpt>
      <trkpt lat="48.88634" lon="1.93344">
        <ele>123.19999694824</ele>
        <time>2011-12-18T14:46:02.000Z</time>
      </trkpt>
      <trkpt lat="48.88661" lon="1.93377">
        <ele>124.40000152588</ele>
        <time>2011-12-18T14:46:11.000Z</time>
      </trkpt>
      <trkpt lat="48.88687" lon="1.93415">
        <ele>126.19999694824</ele>
        <time>2011-12-18T14:46:20.000Z</time>
      </trkpt>
      <trkpt lat="48.88711" lon="1.93453">
        <ele>127.40000152588</ele>
        <time>2011-12-18T14:46:29.000Z</time>
      </trkpt>
      <trkpt lat="48.88738" lon="1.93491">
        <ele>129.19999694824</ele>
        <time>2011-12-18T14:46:38.000Z</time>
      </trkpt>
      <trkpt lat="48.88764" lon="1.93528">
        <ele>131.19999694824</ele>
        <time>2011-12-18T14:46:47.000Z</time>
      </trkpt>
      <trkpt lat="48.88794" lon="1.93572">
        <ele>134.60000610352</ele>
        <time>2011-12-18T14:46:57.000Z</time>
      </trkpt>
      <trkpt lat="48.88807" lon="1.93592">
        <ele>136.60000610352</ele>
        <time>2011-12-18T14:47:03.000Z</time>
      </trkpt>
      <trkpt lat="48.88815" lon="1.93603">
        <ele>137.80000305176</ele>
        <time>2011-12-18T14:47:09.000Z</time>
      </trkpt>
      <trkpt lat="48.88823" lon="1.93612">
        <ele>139</ele>
        <time>2011-12-18T14:47:15.000Z</time>
      </trkpt>
      <trkpt lat="48.88828" lon="1.93613">
        <ele>139.39999389648</ele>
        <time>2011-12-18T14:47:19.000Z</time>
      </trkpt>
      <trkpt lat="48.88829" lon="1.93614">
        <ele>139.39999389648</ele>
        <time>2011-12-18T14:47:23.000Z</time>
      </trkpt>
      <trkpt lat="48.88842" lon="1.93629">
        <ele>141.19999694824</ele>
        <time>2011-12-18T14:47:43.000Z</time>
      </trkpt>
      <trkpt lat="48.88848" lon="1.93639">
        <ele>142.19999694824</ele>
        <time>2011-12-18T14:47:48.000Z</time>
      </trkpt>
      <trkpt lat="48.88859" lon="1.9366">
        <ele>144</ele>
        <time>2011-12-18T14:47:57.000Z</time>
      </trkpt>
      <trkpt lat="48.88866" lon="1.93676">
        <ele>145.39999389648</ele>
        <time>2011-12-18T14:48:04.000Z</time>
      </trkpt>
      <trkpt lat="48.88875" lon="1.93697">
        <ele>146.80000305176</ele>
        <time>2011-12-18T14:48:12.000Z</time>
      </trkpt>
      <trkpt lat="48.88887" lon="1.93722">
        <ele>148.60000610352</ele>
        <time>2011-12-18T14:48:20.000Z</time>
      </trkpt>
      <trkpt lat="48.88899" lon="1.93749">
        <ele>150.80000305176</ele>
        <time>2011-12-18T14:48:28.000Z</time>
      </trkpt>
      <trkpt lat="48.88908" lon="1.93766">
        <ele>152.39999389648</ele>
        <time>2011-12-18T14:48:34.000Z</time>
      </trkpt>
      <trkpt lat="48.88915" lon="1.93785">
        <ele>154</ele>
        <time>2011-12-18T14:48:41.000Z</time>
      </trkpt>
      <trkpt lat="48.88921" lon="1.93807">
        <ele>155.60000610352</ele>
        <time>2011-12-18T14:48:49.000Z</time>
      </trkpt>
      <trkpt lat="48.88925" lon="1.93833">
        <ele>157.39999389648</ele>
        <time>2011-12-18T14:48:57.000Z</time>
      </trkpt>
      <trkpt lat="48.8893" lon="1.93854">
        <ele>158.80000305176</ele>
        <time>2011-12-18T14:49:04.000Z</time>
      </trkpt>
      <trkpt lat="48.88936" lon="1.93883">
        <ele>161</ele>
        <time>2011-12-18T14:49:14.000Z</time>
      </trkpt>
      <trkpt lat="48.88942" lon="1.93909">
        <ele>163.19999694824</ele>
        <time>2011-12-18T14:49:23.000Z</time>
      </trkpt>
      <trkpt lat="48.88945" lon="1.93931">
        <ele>164.60000610352</ele>
        <time>2011-12-18T14:49:30.000Z</time>
      </trkpt>
      <trkpt lat="48.88951" lon="1.93957">
        <ele>166.39999389648</ele>
        <time>2011-12-18T14:49:39.000Z</time>
      </trkpt>
      <trkpt lat="48.88958" lon="1.93988">
        <ele>168.39999389648</ele>
        <time>2011-12-18T14:49:49.000Z</time>
      </trkpt>
      <trkpt lat="48.88964" lon="1.94009">
        <ele>169.80000305176</ele>
        <time>2011-12-18T14:49:57.000Z</time>
      </trkpt>
      <trkpt lat="48.88973" lon="1.94033">
        <ele>171.19999694824</ele>
        <time>2011-12-18T14:50:07.000Z</time>
      </trkpt>
      <trkpt lat="48.88984" lon="1.94055">
        <ele>172.60000610352</ele>
        <time>2011-12-18T14:50:17.000Z</time>
      </trkpt>
      <trkpt lat="48.88997" lon="1.94075">
        <ele>174.39999389648</ele>
        <time>2011-12-18T14:50:27.000Z</time>
      </trkpt>
      <trkpt lat="48.89006" lon="1.94089">
        <ele>175.60000610352</ele>
        <time>2011-12-18T14:50:34.000Z</time>
      </trkpt>
      <trkpt lat="48.89015" lon="1.94101">
        <ele>176.60000610352</ele>
        <time>2011-12-18T14:50:39.000Z</time>
      </trkpt>
      <trkpt lat="48.89027" lon="1.94116">
        <ele>178.19999694824</ele>
        <time>2011-12-18T14:50:45.000Z</time>
      </trkpt>
      <trkpt lat="48.89036" lon="1.94127">
        <ele>179.39999389648</ele>
        <time>2011-12-18T14:50:50.000Z</time>
      </trkpt>
      <trkpt lat="48.89047" lon="1.94137">
        <ele>180.80000305176</ele>
        <time>2011-12-18T14:50:56.000Z</time>
      </trkpt>
      <trkpt lat="48.89061" lon="1.94149">
        <ele>182.60000610352</ele>
        <time>2011-12-18T14:51:03.000Z</time>
      </trkpt>
      <trkpt lat="48.89072" lon="1.9416">
        <ele>184.19999694824</ele>
        <time>2011-12-18T14:51:09.000Z</time>
      </trkpt>
      <trkpt lat="48.89085" lon="1.94174">
        <ele>186</ele>
        <time>2011-12-18T14:51:17.000Z</time>
      </trkpt>
      <trkpt lat="48.89095" lon="1.94186">
        <ele>186.80000305176</ele>
        <time>2011-12-18T14:51:24.000Z</time>
      </trkpt>
      <trkpt lat="48.89101" lon="1.94202">
        <ele>187</ele>
        <time>2011-12-18T14:51:30.000Z</time>
      </trkpt>
      <trkpt lat="48.89106" lon="1.94219">
        <ele>187.19999694824</ele>
        <time>2011-12-18T14:51:36.000Z</time>
      </trkpt>
      <trkpt lat="48.8911" lon="1.94238">
        <ele>187.39999389648</ele>
        <time>2011-12-18T14:51:42.000Z</time>
      </trkpt>
      <trkpt lat="48.89114" lon="1.94251">
        <ele>187.60000610352</ele>
        <time>2011-12-18T14:51:47.000Z</time>
      </trkpt>
      <trkpt lat="48.89115" lon="1.9426">
        <ele>187.60000610352</ele>
        <time>2011-12-18T14:51:50.000Z</time>
      </trkpt>
      <trkpt lat="48.89119" lon="1.94275">
        <ele>187.80000305176</ele>
        <time>2011-12-18T14:51:56.000Z</time>
      </trkpt>
      <trkpt lat="48.89126" lon="1.94297">
        <ele>188.39999389648</ele>
        <time>2011-12-18T14:52:06.000Z</time>
      </trkpt>
      <trkpt lat="48.89128" lon="1.943">
        <ele>188.60000610352</ele>
        <time>2011-12-18T14:52:08.000Z</time>
      </trkpt>
      <trkpt lat="48.89135" lon="1.94309">
        <ele>189.19999694824</ele>
        <time>2011-12-18T14:52:15.000Z</time>
      </trkpt>
      <trkpt lat="48.89142" lon="1.94312">
        <ele>189.60000610352</ele>
        <time>2011-12-18T14:52:20.000Z</time>
      </trkpt>
      <trkpt lat="48.89155" lon="1.94311">
        <ele>191</ele>
        <time>2011-12-18T14:52:28.000Z</time>
      </trkpt>
      <trkpt lat="48.89163" lon="1.94305">
        <ele>191.60000610352</ele>
        <time>2011-12-18T14:52:33.000Z</time>
      </trkpt>
      <trkpt lat="48.89174" lon="1.94294">
        <ele>192.19999694824</ele>
        <time>2011-12-18T14:52:40.000Z</time>
      </trkpt>
      <trkpt lat="48.8918" lon="1.94283">
        <ele>192.19999694824</ele>
        <time>2011-12-18T14:52:46.000Z</time>
      </trkpt>
      <trkpt lat="48.89187" lon="1.9427">
        <ele>192.19999694824</ele>
        <time>2011-12-18T14:52:52.000Z</time>
      </trkpt>
      <trkpt lat="48.89193" lon="1.94258">
        <ele>192.39999389648</ele>
        <time>2011-12-18T14:52:58.000Z</time>
      </trkpt>
      <trkpt lat="48.89196" lon="1.94255">
        <ele>192.39999389648</ele>
        <time>2011-12-18T14:53:00.000Z</time>
      </trkpt>
      <trkpt lat="48.89202" lon="1.94245">
        <ele>192.39999389648</ele>
        <time>2011-12-18T14:53:06.000Z</time>
      </trkpt>
      <trkpt lat="48.89208" lon="1.94236">
        <ele>192.39999389648</ele>
        <time>2011-12-18T14:53:11.000Z</time>
      </trkpt>
      <trkpt lat="48.89214" lon="1.94222">
        <ele>192.39999389648</ele>
        <time>2011-12-18T14:53:17.000Z</time>
      </trkpt>
      <trkpt lat="48.89221" lon="1.94209">
        <ele>192.19999694824</ele>
        <time>2011-12-18T14:53:23.000Z</time>
      </trkpt>
      <trkpt lat="48.8923" lon="1.94194">
        <ele>192</ele>
        <time>2011-12-18T14:53:30.000Z</time>
      </trkpt>
      <trkpt lat="48.89235" lon="1.94183">
        <ele>191.60000610352</ele>
        <time>2011-12-18T14:53:35.000Z</time>
      </trkpt>
      <trkpt lat="48.89245" lon="1.94167">
        <ele>191.19999694824</ele>
        <time>2011-12-18T14:53:42.000Z</time>
      </trkpt>
      <trkpt lat="48.89251" lon="1.94152">
        <ele>191.19999694824</ele>
        <time>2011-12-18T14:53:48.000Z</time>
      </trkpt>
      <trkpt lat="48.89264" lon="1.94137">
        <ele>191.60000610352</ele>
        <time>2011-12-18T14:53:56.000Z</time>
      </trkpt>
      <trkpt lat="48.89275" lon="1.9412">
        <ele>191.80000305176</ele>
        <time>2011-12-18T14:54:05.000Z</time>
      </trkpt>
      <trkpt lat="48.89283" lon="1.94106">
        <ele>192.19999694824</ele>
        <time>2011-12-18T14:54:12.000Z</time>
      </trkpt>
      <trkpt lat="48.89294" lon="1.94089">
        <ele>192.39999389648</ele>
        <time>2011-12-18T14:54:21.000Z</time>
      </trkpt>
      <trkpt lat="48.89302" lon="1.94074">
        <ele>192.60000610352</ele>
        <time>2011-12-18T14:54:28.000Z</time>
      </trkpt>
      <trkpt lat="48.89304" lon="1.94072">
        <ele>192.60000610352</ele>
        <time>2011-12-18T14:54:29.000Z</time>
      </trkpt>
      <trkpt lat="48.89309" lon="1.94058">
        <ele>192.80000305176</ele>
        <time>2011-12-18T14:54:35.000Z</time>
      </trkpt>
      <trkpt lat="48.8931" lon="1.94057">
        <ele>192.80000305176</ele>
        <time>2011-12-18T14:54:36.000Z</time>
      </trkpt>
      <trkpt lat="48.89321" lon="1.94041">
        <ele>192.80000305176</ele>
        <time>2011-12-18T14:54:44.000Z</time>
      </trkpt>
      <trkpt lat="48.89328" lon="1.94027">
        <ele>193</ele>
        <time>2011-12-18T14:54:51.000Z</time>
      </trkpt>
      <trkpt lat="48.89337" lon="1.94011">
        <ele>193</ele>
        <time>2011-12-18T14:54:58.000Z</time>
      </trkpt>
      <trkpt lat="48.89347" lon="1.93996">
        <ele>193</ele>
        <time>2011-12-18T14:55:06.000Z</time>
      </trkpt>
      <trkpt lat="48.89355" lon="1.93981">
        <ele>192.80000305176</ele>
        <time>2011-12-18T14:55:13.000Z</time>
      </trkpt>
      <trkpt lat="48.89365" lon="1.93964">
        <ele>192.60000610352</ele>
        <time>2011-12-18T14:55:21.000Z</time>
      </trkpt>
      <trkpt lat="48.89374" lon="1.93951">
        <ele>192.39999389648</ele>
        <time>2011-12-18T14:55:28.000Z</time>
      </trkpt>
      <trkpt lat="48.89382" lon="1.93934">
        <ele>192</ele>
        <time>2011-12-18T14:55:36.000Z</time>
      </trkpt>
      <trkpt lat="48.89389" lon="1.9392">
        <ele>191.80000305176</ele>
        <time>2011-12-18T14:55:43.000Z</time>
      </trkpt>
      <trkpt lat="48.89395" lon="1.93907">
        <ele>191.19999694824</ele>
        <time>2011-12-18T14:55:49.000Z</time>
      </trkpt>
      <trkpt lat="48.89404" lon="1.93893">
        <ele>190.39999389648</ele>
        <time>2011-12-18T14:55:56.000Z</time>
      </trkpt>
      <trkpt lat="48.89412" lon="1.93878">
        <ele>189.60000610352</ele>
        <time>2011-12-18T14:56:03.000Z</time>
      </trkpt>
      <trkpt lat="48.89417" lon="1.93866">
        <ele>189.19999694824</ele>
        <time>2011-12-18T14:56:09.000Z</time>
      </trkpt>
      <trkpt lat="48.89416" lon="1.93853">
        <ele>188.80000305176</ele>
        <time>2011-12-18T14:56:14.000Z</time>
      </trkpt>
      <trkpt lat="48.89412" lon="1.93829">
        <ele>187.80000305176</ele>
        <time>2011-12-18T14:56:23.000Z</time>
      </trkpt>
      <trkpt lat="48.8941" lon="1.93811">
        <ele>187.39999389648</ele>
        <time>2011-12-18T14:56:30.000Z</time>
      </trkpt>
      <trkpt lat="48.8941" lon="1.93788">
        <ele>186.80000305176</ele>
        <time>2011-12-18T14:56:38.000Z</time>
      </trkpt>
      <trkpt lat="48.89414" lon="1.93772">
        <ele>186.39999389648</ele>
        <time>2011-12-18T14:56:45.000Z</time>
      </trkpt>
      <trkpt lat="48.89418" lon="1.93758">
        <ele>186.19999694824</ele>
        <time>2011-12-18T14:56:51.000Z</time>
      </trkpt>
      <trkpt lat="48.89424" lon="1.93738">
        <ele>185.39999389648</ele>
        <time>2011-12-18T14:56:59.000Z</time>
      </trkpt>
      <trkpt lat="48.89427" lon="1.93729">
        <ele>185</ele>
        <time>2011-12-18T14:57:04.000Z</time>
      </trkpt>
      <trkpt lat="48.89432" lon="1.93721">
        <ele>184.80000305176</ele>
        <time>2011-12-18T14:57:09.000Z</time>
      </trkpt>
      <trkpt lat="48.89434" lon="1.93714">
        <ele>184.60000610352</ele>
        <time>2011-12-18T14:57:13.000Z</time>
      </trkpt>
      <trkpt lat="48.89439" lon="1.93706">
        <ele>184.19999694824</ele>
        <time>2011-12-18T14:57:17.000Z</time>
      </trkpt>
      <trkpt lat="48.89445" lon="1.93692">
        <ele>184</ele>
        <time>2011-12-18T14:57:25.000Z</time>
      </trkpt>
      <trkpt lat="48.89451" lon="1.93678">
        <ele>183.60000610352</ele>
        <time>2011-12-18T14:57:31.000Z</time>
      </trkpt>
      <trkpt lat="48.89454" lon="1.93671">
        <ele>183.60000610352</ele>
        <time>2011-12-18T14:57:34.000Z</time>
      </trkpt>
      <trkpt lat="48.89461" lon="1.93657">
        <ele>183.60000610352</ele>
        <time>2011-12-18T14:57:40.000Z</time>
      </trkpt>
      <trkpt lat="48.89465" lon="1.9365">
        <ele>183.80000305176</ele>
        <time>2011-12-18T14:57:45.000Z</time>
      </trkpt>
      <trkpt lat="48.89468" lon="1.93651">
        <ele>184</ele>
        <time>2011-12-18T14:57:47.000Z</time>
      </trkpt>
      <trkpt lat="48.89477" lon="1.9365">
        <ele>184.39999389648</ele>
        <time>2011-12-18T14:57:54.000Z</time>
      </trkpt>
      <trkpt lat="48.89485" lon="1.93647">
        <ele>184.60000610352</ele>
        <time>2011-12-18T14:57:59.000Z</time>
      </trkpt>
      <trkpt lat="48.89488" lon="1.93647">
        <ele>184.80000305176</ele>
        <time>2011-12-18T14:58:01.000Z</time>
      </trkpt>
      <trkpt lat="48.89499" lon="1.93646">
        <ele>185.19999694824</ele>
        <time>2011-12-18T14:58:08.000Z</time>
      </trkpt>
      <trkpt lat="48.89507" lon="1.93645">
        <ele>185.39999389648</ele>
        <time>2011-12-18T14:58:13.000Z</time>
      </trkpt>
      <trkpt lat="48.89512" lon="1.9364">
        <ele>185.60000610352</ele>
        <time>2011-12-18T14:58:18.000Z</time>
      </trkpt>
      <trkpt lat="48.89515" lon="1.93634">
        <ele>185.80000305176</ele>
        <time>2011-12-18T14:58:23.000Z</time>
      </trkpt>
      <trkpt lat="48.89521" lon="1.93632">
        <ele>186</ele>
        <time>2011-12-18T14:58:32.000Z</time>
      </trkpt>
      <trkpt lat="48.89525" lon="1.93629">
        <ele>186</ele>
        <time>2011-12-18T14:58:35.000Z</time>
      </trkpt>
      <trkpt lat="48.89534" lon="1.93631">
        <ele>186.19999694824</ele>
        <time>2011-12-18T14:58:42.000Z</time>
      </trkpt>
      <trkpt lat="48.89536" lon="1.9363">
        <ele>186.19999694824</ele>
        <time>2011-12-18T14:58:46.000Z</time>
      </trkpt>
    </trkseg>
  </trk>
</gpx>